<?xml version="1.0" encoding="UTF-8" standalone="no" ?>
<gpx xmlns="http://www.topografix.com/GPX/1/1" xmlns:xsi="http://www.w3.org/2001/XMLSchema-instance" xsi:schemaLocation="http://www.topografix.com/GPX/1/1 http://www.topografix.com/GPX/1/1/gpx.xsd" version="1.1" creator="VisuGPX - https://www.visugpx.com">
  <metadata>
    <name>Aix Montaiguet</name>
    <desc><![CDATA[Boucle de 15.25 km, dénivelé cumulé 300 m, au départ du Chemin de la Plaine des Dés]]></desc>
  </metadata>
  <trk>
    <name><![CDATA[Aix Montaiguet_24 janv. 2018]]></name>
    <trkseg>
      <trkpt lat="43.50027" lon="5.44319">
        <ele>243.40962036173</ele>
        <time>2018-01-24T08:47:49Z</time>
      </trkpt>
      <trkpt lat="43.50028" lon="5.44329">
        <ele>243.40775812088</ele>
        <time>2018-01-24T08:52:23Z</time>
      </trkpt>
      <trkpt lat="43.50029" lon="5.44339">
        <ele>243.57662649139</ele>
        <time>2018-01-24T08:52:29Z</time>
      </trkpt>
      <trkpt lat="43.50026" lon="5.44328">
        <ele>243.94972913184</ele>
        <time>2018-01-24T08:53:16Z</time>
      </trkpt>
      <trkpt lat="43.5002" lon="5.44336">
        <ele>244.22497033451</ele>
        <time>2018-01-24T08:54:53Z</time>
      </trkpt>
      <trkpt lat="43.5002" lon="5.44348">
        <ele>244.19579176801</ele>
        <time>2018-01-24T08:55:25Z</time>
      </trkpt>
      <trkpt lat="43.50027" lon="5.44355">
        <ele>244.16941021583</ele>
        <time>2018-01-24T08:55:32Z</time>
      </trkpt>
      <trkpt lat="43.50032" lon="5.44364">
        <ele>244.14725871598</ele>
        <time>2018-01-24T08:55:39Z</time>
      </trkpt>
      <trkpt lat="43.50037" lon="5.44374">
        <ele>244.12825526953</ele>
        <time>2018-01-24T08:55:51Z</time>
      </trkpt>
      <trkpt lat="43.50037" lon="5.44386">
        <ele>244.11658357663</ele>
        <time>2018-01-24T08:56:02Z</time>
      </trkpt>
      <trkpt lat="43.50041" lon="5.44396">
        <ele>244.1148251762</ele>
        <time>2018-01-24T08:56:10Z</time>
      </trkpt>
      <trkpt lat="43.50046" lon="5.44406">
        <ele>244.12741736899</ele>
        <time>2018-01-24T08:56:19Z</time>
      </trkpt>
      <trkpt lat="43.50053" lon="5.44413">
        <ele>244.15102442725</ele>
        <time>2018-01-24T08:56:27Z</time>
      </trkpt>
      <trkpt lat="43.50059" lon="5.44422">
        <ele>244.18314320824</ele>
        <time>2018-01-24T08:56:34Z</time>
      </trkpt>
      <trkpt lat="43.50062" lon="5.44432">
        <ele>244.21590779807</ele>
        <time>2018-01-24T08:56:40Z</time>
      </trkpt>
      <trkpt lat="43.50062" lon="5.44443">
        <ele>244.24056663977</ele>
        <time>2018-01-24T08:56:45Z</time>
      </trkpt>
      <trkpt lat="43.50064" lon="5.44455">
        <ele>244.29821552218</ele>
        <time>2018-01-24T08:56:57Z</time>
      </trkpt>
      <trkpt lat="43.50064" lon="5.44466">
        <ele>244.33754962777</ele>
        <time>2018-01-24T08:57:06Z</time>
      </trkpt>
      <trkpt lat="43.50062" lon="5.44477">
        <ele>244.36483336652</ele>
        <time>2018-01-24T08:57:14Z</time>
      </trkpt>
      <trkpt lat="43.50057" lon="5.44488">
        <ele>244.37804863518</ele>
        <time>2018-01-24T08:57:22Z</time>
      </trkpt>
      <trkpt lat="43.50053" lon="5.44497">
        <ele>244.37519839555</ele>
        <time>2018-01-24T08:57:28Z</time>
      </trkpt>
      <trkpt lat="43.50046" lon="5.44506">
        <ele>244.36916210441</ele>
        <time>2018-01-24T08:57:35Z</time>
      </trkpt>
      <trkpt lat="43.50041" lon="5.44514">
        <ele>244.36565339629</ele>
        <time>2018-01-24T08:57:43Z</time>
      </trkpt>
      <trkpt lat="43.50034" lon="5.4452">
        <ele>244.37061729522</ele>
        <time>2018-01-24T08:57:52Z</time>
      </trkpt>
      <trkpt lat="43.50026" lon="5.44524">
        <ele>244.38303527453</ele>
        <time>2018-01-24T08:58:00Z</time>
      </trkpt>
      <trkpt lat="43.5002" lon="5.44531">
        <ele>244.39435231897</ele>
        <time>2018-01-24T08:58:06Z</time>
      </trkpt>
      <trkpt lat="43.50012" lon="5.44536">
        <ele>244.40902173788</ele>
        <time>2018-01-24T08:58:13Z</time>
      </trkpt>
      <trkpt lat="43.50005" lon="5.44542">
        <ele>244.43644473224</ele>
        <time>2018-01-24T08:58:22Z</time>
      </trkpt>
      <trkpt lat="43.49997" lon="5.44546">
        <ele>244.46692627683</ele>
        <time>2018-01-24T08:58:30Z</time>
      </trkpt>
      <trkpt lat="43.4999" lon="5.44551">
        <ele>244.5053818152</ele>
        <time>2018-01-24T08:58:37Z</time>
      </trkpt>
      <trkpt lat="43.49984" lon="5.44558">
        <ele>244.54740648896</ele>
        <time>2018-01-24T08:58:44Z</time>
      </trkpt>
      <trkpt lat="43.49979" lon="5.44567">
        <ele>244.58046009587</ele>
        <time>2018-01-24T08:58:56Z</time>
      </trkpt>
      <trkpt lat="43.49974" lon="5.44574">
        <ele>244.6027454611</ele>
        <time>2018-01-24T08:59:03Z</time>
      </trkpt>
      <trkpt lat="43.49969" lon="5.44585">
        <ele>244.63320312391</ele>
        <time>2018-01-24T08:59:10Z</time>
      </trkpt>
      <trkpt lat="43.49963" lon="5.44593">
        <ele>244.68539192116</ele>
        <time>2018-01-24T08:59:20Z</time>
      </trkpt>
      <trkpt lat="43.49956" lon="5.44602">
        <ele>244.74503705577</ele>
        <time>2018-01-24T08:59:30Z</time>
      </trkpt>
      <trkpt lat="43.49951" lon="5.44611">
        <ele>244.80698869468</ele>
        <time>2018-01-24T08:59:38Z</time>
      </trkpt>
      <trkpt lat="43.49948" lon="5.44621">
        <ele>244.86724460468</ele>
        <time>2018-01-24T08:59:45Z</time>
      </trkpt>
      <trkpt lat="43.49945" lon="5.44631">
        <ele>244.94844604445</ele>
        <time>2018-01-24T08:59:53Z</time>
      </trkpt>
      <trkpt lat="43.49941" lon="5.44641">
        <ele>245.01705660402</ele>
        <time>2018-01-24T08:59:59Z</time>
      </trkpt>
      <trkpt lat="43.49938" lon="5.44652">
        <ele>245.14272037643</ele>
        <time>2018-01-24T09:00:09Z</time>
      </trkpt>
      <trkpt lat="43.49933" lon="5.44662">
        <ele>245.28310037791</ele>
        <time>2018-01-24T09:00:20Z</time>
      </trkpt>
      <trkpt lat="43.49931" lon="5.44673">
        <ele>245.38966655629</ele>
        <time>2018-01-24T09:00:29Z</time>
      </trkpt>
      <trkpt lat="43.4993" lon="5.44684">
        <ele>245.52886138645</ele>
        <time>2018-01-24T09:00:39Z</time>
      </trkpt>
      <trkpt lat="43.49927" lon="5.44694">
        <ele>245.65239412258</ele>
        <time>2018-01-24T09:00:48Z</time>
      </trkpt>
      <trkpt lat="43.49921" lon="5.44703">
        <ele>245.76792857771</ele>
        <time>2018-01-24T09:00:57Z</time>
      </trkpt>
      <trkpt lat="43.49918" lon="5.44714">
        <ele>245.87286102869</ele>
        <time>2018-01-24T09:01:06Z</time>
      </trkpt>
      <trkpt lat="43.49914" lon="5.44725">
        <ele>245.98861344542</ele>
        <time>2018-01-24T09:01:16Z</time>
      </trkpt>
      <trkpt lat="43.49911" lon="5.44735">
        <ele>246.10397385598</ele>
        <time>2018-01-24T09:01:26Z</time>
      </trkpt>
      <trkpt lat="43.49909" lon="5.44747">
        <ele>246.16737324987</ele>
        <time>2018-01-24T09:01:32Z</time>
      </trkpt>
      <trkpt lat="43.49905" lon="5.44757">
        <ele>246.31851248321</ele>
        <time>2018-01-24T09:01:50Z</time>
      </trkpt>
      <trkpt lat="43.499" lon="5.44765">
        <ele>246.35227447203</ele>
        <time>2018-01-24T09:01:54Z</time>
      </trkpt>
      <trkpt lat="43.49893" lon="5.44772">
        <ele>246.401012071</ele>
        <time>2018-01-24T09:02:00Z</time>
      </trkpt>
      <trkpt lat="43.49885" lon="5.44776">
        <ele>246.50459604151</ele>
        <time>2018-01-24T09:02:13Z</time>
      </trkpt>
      <trkpt lat="43.49878" lon="5.44783">
        <ele>246.56276697141</ele>
        <time>2018-01-24T09:02:21Z</time>
      </trkpt>
      <trkpt lat="43.49872" lon="5.44791">
        <ele>246.64215043514</ele>
        <time>2018-01-24T09:02:32Z</time>
      </trkpt>
      <trkpt lat="43.49867" lon="5.448">
        <ele>246.68009866836</ele>
        <time>2018-01-24T09:02:37Z</time>
      </trkpt>
      <trkpt lat="43.4986" lon="5.44806">
        <ele>246.7516374064</ele>
        <time>2018-01-24T09:02:47Z</time>
      </trkpt>
      <trkpt lat="43.49852" lon="5.44812">
        <ele>246.82040810107</ele>
        <time>2018-01-24T09:02:56Z</time>
      </trkpt>
      <trkpt lat="43.49846" lon="5.44818">
        <ele>246.8790171991</ele>
        <time>2018-01-24T09:03:05Z</time>
      </trkpt>
      <trkpt lat="43.49842" lon="5.44827">
        <ele>246.94043049804</ele>
        <time>2018-01-24T09:03:13Z</time>
      </trkpt>
      <trkpt lat="43.49837" lon="5.44837">
        <ele>247.02092596277</ele>
        <time>2018-01-24T09:03:22Z</time>
      </trkpt>
      <trkpt lat="43.49834" lon="5.44848">
        <ele>247.14467461233</ele>
        <time>2018-01-24T09:03:34Z</time>
      </trkpt>
      <trkpt lat="43.49829" lon="5.44857">
        <ele>247.223083133</ele>
        <time>2018-01-24T09:03:43Z</time>
      </trkpt>
      <trkpt lat="43.49825" lon="5.44867">
        <ele>247.28834449652</ele>
        <time>2018-01-24T09:03:49Z</time>
      </trkpt>
      <trkpt lat="43.49818" lon="5.44875">
        <ele>247.46038455705</ele>
        <time>2018-01-24T09:04:03Z</time>
      </trkpt>
      <trkpt lat="43.49811" lon="5.44882">
        <ele>247.61316412795</ele>
        <time>2018-01-24T09:04:14Z</time>
      </trkpt>
      <trkpt lat="43.49804" lon="5.44889">
        <ele>247.76864656267</ele>
        <time>2018-01-24T09:04:25Z</time>
      </trkpt>
      <trkpt lat="43.49799" lon="5.44897">
        <ele>247.89351281883</ele>
        <time>2018-01-24T09:04:34Z</time>
      </trkpt>
      <trkpt lat="43.49792" lon="5.44902">
        <ele>248.05639496256</ele>
        <time>2018-01-24T09:04:40Z</time>
      </trkpt>
      <trkpt lat="43.49783" lon="5.44906">
        <ele>248.24786115008</ele>
        <time>2018-01-24T09:04:46Z</time>
      </trkpt>
      <trkpt lat="43.49776" lon="5.44911">
        <ele>248.55668600912</ele>
        <time>2018-01-24T09:04:54Z</time>
      </trkpt>
      <trkpt lat="43.49767" lon="5.44916">
        <ele>248.97801284452</ele>
        <time>2018-01-24T09:05:03Z</time>
      </trkpt>
      <trkpt lat="43.49759" lon="5.44915">
        <ele>249.31662343668</ele>
        <time>2018-01-24T09:05:10Z</time>
      </trkpt>
      <trkpt lat="43.49752" lon="5.44921">
        <ele>249.58376406677</ele>
        <time>2018-01-24T09:05:17Z</time>
      </trkpt>
      <trkpt lat="43.49745" lon="5.44928">
        <ele>250.00759044636</ele>
        <time>2018-01-24T09:05:28Z</time>
      </trkpt>
      <trkpt lat="43.49738" lon="5.44936">
        <ele>250.26512242732</ele>
        <time>2018-01-24T09:05:38Z</time>
      </trkpt>
      <trkpt lat="43.4973" lon="5.4494">
        <ele>250.45522175205</ele>
        <time>2018-01-24T09:05:44Z</time>
      </trkpt>
      <trkpt lat="43.49723" lon="5.44946">
        <ele>250.67146130657</ele>
        <time>2018-01-24T09:05:50Z</time>
      </trkpt>
      <trkpt lat="43.49717" lon="5.44954">
        <ele>251.05245878582</ele>
        <time>2018-01-24T09:05:58Z</time>
      </trkpt>
      <trkpt lat="43.49711" lon="5.44962">
        <ele>251.49800840667</ele>
        <time>2018-01-24T09:06:06Z</time>
      </trkpt>
      <trkpt lat="43.49703" lon="5.44964">
        <ele>251.90988548302</ele>
        <time>2018-01-24T09:06:13Z</time>
      </trkpt>
      <trkpt lat="43.49695" lon="5.44965">
        <ele>252.41737718062</ele>
        <time>2018-01-24T09:06:22Z</time>
      </trkpt>
      <trkpt lat="43.49688" lon="5.44973">
        <ele>252.79279980706</ele>
        <time>2018-01-24T09:06:29Z</time>
      </trkpt>
      <trkpt lat="43.49681" lon="5.44981">
        <ele>253.48937267583</ele>
        <time>2018-01-24T09:06:40Z</time>
      </trkpt>
      <trkpt lat="43.49674" lon="5.44987">
        <ele>254.14846565017</ele>
        <time>2018-01-24T09:06:49Z</time>
      </trkpt>
      <trkpt lat="43.49667" lon="5.44992">
        <ele>254.67699322367</ele>
        <time>2018-01-24T09:06:57Z</time>
      </trkpt>
      <trkpt lat="43.4966" lon="5.44996">
        <ele>255.04718090381</ele>
        <time>2018-01-24T09:07:02Z</time>
      </trkpt>
      <trkpt lat="43.49652" lon="5.44998">
        <ele>255.75133692974</ele>
        <time>2018-01-24T09:07:10Z</time>
      </trkpt>
      <trkpt lat="43.49644" lon="5.45001">
        <ele>256.48031467401</ele>
        <time>2018-01-24T09:07:18Z</time>
      </trkpt>
      <trkpt lat="43.49637" lon="5.45006">
        <ele>257.12946873466</ele>
        <time>2018-01-24T09:07:25Z</time>
      </trkpt>
      <trkpt lat="43.4963" lon="5.45012">
        <ele>257.7054640116</ele>
        <time>2018-01-24T09:07:31Z</time>
      </trkpt>
      <trkpt lat="43.49624" lon="5.4502">
        <ele>258.30831177112</ele>
        <time>2018-01-24T09:07:36Z</time>
      </trkpt>
      <trkpt lat="43.49616" lon="5.45023">
        <ele>259.55419205239</ele>
        <time>2018-01-24T09:07:44Z</time>
      </trkpt>
      <trkpt lat="43.49608" lon="5.45025">
        <ele>262.1755563559</ele>
        <time>2018-01-24T09:08:00Z</time>
      </trkpt>
      <trkpt lat="43.496" lon="5.4503">
        <ele>264.77579557622</ele>
        <time>2018-01-24T09:08:10Z</time>
      </trkpt>
      <trkpt lat="43.49593" lon="5.45033">
        <ele>266.56470491438</ele>
        <time>2018-01-24T09:08:17Z</time>
      </trkpt>
      <trkpt lat="43.49586" lon="5.45037">
        <ele>268.19266674312</ele>
        <time>2018-01-24T09:08:23Z</time>
      </trkpt>
      <trkpt lat="43.49577" lon="5.45037">
        <ele>270.07136342776</ele>
        <time>2018-01-24T09:08:30Z</time>
      </trkpt>
      <trkpt lat="43.49569" lon="5.45039">
        <ele>272.72347304594</ele>
        <time>2018-01-24T09:08:40Z</time>
      </trkpt>
      <trkpt lat="43.49561" lon="5.45037">
        <ele>274.42031317577</ele>
        <time>2018-01-24T09:08:47Z</time>
      </trkpt>
      <trkpt lat="43.49552" lon="5.45038">
        <ele>276.49483109117</ele>
        <time>2018-01-24T09:08:57Z</time>
      </trkpt>
      <trkpt lat="43.49544" lon="5.45036">
        <ele>278.07981369883</ele>
        <time>2018-01-24T09:09:05Z</time>
      </trkpt>
      <trkpt lat="43.49536" lon="5.45037">
        <ele>279.21281499207</ele>
        <time>2018-01-24T09:09:11Z</time>
      </trkpt>
      <trkpt lat="43.49527" lon="5.45037">
        <ele>281.5843858274</ele>
        <time>2018-01-24T09:09:25Z</time>
      </trkpt>
      <trkpt lat="43.4952" lon="5.4504">
        <ele>282.83099611865</ele>
        <time>2018-01-24T09:09:32Z</time>
      </trkpt>
      <trkpt lat="43.49512" lon="5.45042">
        <ele>284.66531045108</ele>
        <time>2018-01-24T09:09:41Z</time>
      </trkpt>
      <trkpt lat="43.49503" lon="5.45042">
        <ele>286.18201012426</ele>
        <time>2018-01-24T09:09:48Z</time>
      </trkpt>
      <trkpt lat="43.49494" lon="5.45042">
        <ele>288.09876222392</ele>
        <time>2018-01-24T09:09:57Z</time>
      </trkpt>
      <trkpt lat="43.49486" lon="5.4504">
        <ele>289.93354482136</ele>
        <time>2018-01-24T09:10:06Z</time>
      </trkpt>
      <trkpt lat="43.49478" lon="5.45045">
        <ele>291.65991226902</ele>
        <time>2018-01-24T09:10:15Z</time>
      </trkpt>
      <trkpt lat="43.49469" lon="5.45042">
        <ele>293.11694010715</ele>
        <time>2018-01-24T09:10:23Z</time>
      </trkpt>
      <trkpt lat="43.49462" lon="5.45049">
        <ele>294.77884805438</ele>
        <time>2018-01-24T09:10:33Z</time>
      </trkpt>
      <trkpt lat="43.49454" lon="5.4505">
        <ele>295.86039227176</ele>
        <time>2018-01-24T09:10:40Z</time>
      </trkpt>
      <trkpt lat="43.49445" lon="5.45052">
        <ele>297.00778282287</ele>
        <time>2018-01-24T09:10:48Z</time>
      </trkpt>
      <trkpt lat="43.49437" lon="5.45053">
        <ele>298.11552370967</ele>
        <time>2018-01-24T09:10:56Z</time>
      </trkpt>
      <trkpt lat="43.49428" lon="5.45051">
        <ele>299.05103569219</ele>
        <time>2018-01-24T09:11:03Z</time>
      </trkpt>
      <trkpt lat="43.4942" lon="5.45054">
        <ele>300.11521420283</ele>
        <time>2018-01-24T09:11:11Z</time>
      </trkpt>
      <trkpt lat="43.49412" lon="5.45052">
        <ele>301.61489319967</ele>
        <time>2018-01-24T09:11:22Z</time>
      </trkpt>
      <trkpt lat="43.49403" lon="5.4505">
        <ele>302.78228562426</ele>
        <time>2018-01-24T09:11:31Z</time>
      </trkpt>
      <trkpt lat="43.49395" lon="5.45053">
        <ele>303.75613570424</ele>
        <time>2018-01-24T09:11:39Z</time>
      </trkpt>
      <trkpt lat="43.49386" lon="5.45055">
        <ele>304.72661605333</ele>
        <time>2018-01-24T09:11:47Z</time>
      </trkpt>
      <trkpt lat="43.49378" lon="5.45055">
        <ele>305.61362530007</ele>
        <time>2018-01-24T09:11:55Z</time>
      </trkpt>
      <trkpt lat="43.49369" lon="5.45056">
        <ele>306.61075785025</ele>
        <time>2018-01-24T09:12:05Z</time>
      </trkpt>
      <trkpt lat="43.49361" lon="5.45057">
        <ele>307.40793544388</ele>
        <time>2018-01-24T09:12:14Z</time>
      </trkpt>
      <trkpt lat="43.49354" lon="5.45065">
        <ele>307.99511041905</ele>
        <time>2018-01-24T09:12:21Z</time>
      </trkpt>
      <trkpt lat="43.49347" lon="5.45071">
        <ele>308.73159955254</ele>
        <time>2018-01-24T09:12:30Z</time>
      </trkpt>
      <trkpt lat="43.4934" lon="5.45077">
        <ele>309.32667299882</ele>
        <time>2018-01-24T09:12:38Z</time>
      </trkpt>
      <trkpt lat="43.49333" lon="5.45083">
        <ele>309.86069120798</ele>
        <time>2018-01-24T09:12:46Z</time>
      </trkpt>
      <trkpt lat="43.49325" lon="5.45088">
        <ele>310.30583384491</ele>
        <time>2018-01-24T09:12:53Z</time>
      </trkpt>
      <trkpt lat="43.49317" lon="5.45091">
        <ele>310.83007761179</ele>
        <time>2018-01-24T09:13:02Z</time>
      </trkpt>
      <trkpt lat="43.49309" lon="5.45096">
        <ele>311.24075291823</ele>
        <time>2018-01-24T09:13:10Z</time>
      </trkpt>
      <trkpt lat="43.49301" lon="5.45098">
        <ele>311.60192604318</ele>
        <time>2018-01-24T09:13:17Z</time>
      </trkpt>
      <trkpt lat="43.49293" lon="5.45103">
        <ele>312.00952100396</ele>
        <time>2018-01-24T09:13:25Z</time>
      </trkpt>
      <trkpt lat="43.49287" lon="5.4511">
        <ele>312.39710565186</ele>
        <time>2018-01-24T09:13:33Z</time>
      </trkpt>
      <trkpt lat="43.49282" lon="5.45118">
        <ele>312.65187259198</ele>
        <time>2018-01-24T09:13:38Z</time>
      </trkpt>
      <trkpt lat="43.49274" lon="5.45124">
        <ele>313.87719951106</ele>
        <time>2018-01-24T09:14:23Z</time>
      </trkpt>
      <trkpt lat="43.49267" lon="5.4513">
        <ele>318.90121726328</ele>
        <time>2018-01-24T09:20:22Z</time>
      </trkpt>
      <trkpt lat="43.49258" lon="5.45133">
        <ele>320.35121205314</ele>
        <time>2018-01-24T09:20:40Z</time>
      </trkpt>
      <trkpt lat="43.4925" lon="5.45136">
        <ele>320.98227919595</ele>
        <time>2018-01-24T09:20:50Z</time>
      </trkpt>
      <trkpt lat="43.49242" lon="5.45135">
        <ele>321.37579608303</ele>
        <time>2018-01-24T09:20:57Z</time>
      </trkpt>
      <trkpt lat="43.49234" lon="5.45137">
        <ele>321.83993417658</ele>
        <time>2018-01-24T09:21:06Z</time>
      </trkpt>
      <trkpt lat="43.49226" lon="5.45142">
        <ele>322.24622798181</ele>
        <time>2018-01-24T09:21:15Z</time>
      </trkpt>
      <trkpt lat="43.49219" lon="5.45149">
        <ele>322.57369406327</ele>
        <time>2018-01-24T09:21:23Z</time>
      </trkpt>
      <trkpt lat="43.49211" lon="5.45155">
        <ele>322.89779008137</ele>
        <time>2018-01-24T09:21:31Z</time>
      </trkpt>
      <trkpt lat="43.49203" lon="5.45156">
        <ele>323.18934088389</ele>
        <time>2018-01-24T09:21:38Z</time>
      </trkpt>
      <trkpt lat="43.49195" lon="5.4516">
        <ele>323.5540641067</ele>
        <time>2018-01-24T09:21:46Z</time>
      </trkpt>
      <trkpt lat="43.49187" lon="5.45165">
        <ele>323.94222654874</ele>
        <time>2018-01-24T09:21:54Z</time>
      </trkpt>
      <trkpt lat="43.49179" lon="5.45167">
        <ele>324.48750664926</ele>
        <time>2018-01-24T09:22:10Z</time>
      </trkpt>
      <trkpt lat="43.49171" lon="5.45169">
        <ele>325.1634238905</ele>
        <time>2018-01-24T09:22:24Z</time>
      </trkpt>
      <trkpt lat="43.49163" lon="5.45176">
        <ele>325.53383198008</ele>
        <time>2018-01-24T09:22:33Z</time>
      </trkpt>
      <trkpt lat="43.49156" lon="5.45182">
        <ele>325.86792052702</ele>
        <time>2018-01-24T09:22:42Z</time>
      </trkpt>
      <trkpt lat="43.49149" lon="5.45188">
        <ele>326.16746587618</ele>
        <time>2018-01-24T09:22:51Z</time>
      </trkpt>
      <trkpt lat="43.49143" lon="5.45195">
        <ele>326.37889816123</ele>
        <time>2018-01-24T09:22:58Z</time>
      </trkpt>
      <trkpt lat="43.49135" lon="5.45202">
        <ele>326.58830193824</ele>
        <time>2018-01-24T09:23:05Z</time>
      </trkpt>
      <trkpt lat="43.49127" lon="5.45205">
        <ele>326.83714720413</ele>
        <time>2018-01-24T09:23:13Z</time>
      </trkpt>
      <trkpt lat="43.4912" lon="5.45211">
        <ele>327.09730637403</ele>
        <time>2018-01-24T09:23:21Z</time>
      </trkpt>
      <trkpt lat="43.49111" lon="5.45213">
        <ele>327.35756832168</ele>
        <time>2018-01-24T09:23:29Z</time>
      </trkpt>
      <trkpt lat="43.49103" lon="5.45218">
        <ele>327.6516598799</ele>
        <time>2018-01-24T09:23:38Z</time>
      </trkpt>
      <trkpt lat="43.49096" lon="5.45224">
        <ele>328.07704667765</ele>
        <time>2018-01-24T09:23:50Z</time>
      </trkpt>
      <trkpt lat="43.49088" lon="5.4523">
        <ele>328.37321337753</ele>
        <time>2018-01-24T09:23:59Z</time>
      </trkpt>
      <trkpt lat="43.49081" lon="5.45237">
        <ele>328.59038350968</ele>
        <time>2018-01-24T09:24:06Z</time>
      </trkpt>
      <trkpt lat="43.49075" lon="5.45244">
        <ele>328.7984437722</ele>
        <time>2018-01-24T09:24:13Z</time>
      </trkpt>
      <trkpt lat="43.49068" lon="5.45251">
        <ele>328.99367777181</ele>
        <time>2018-01-24T09:24:20Z</time>
      </trkpt>
      <trkpt lat="43.49061" lon="5.45258">
        <ele>329.17987856268</ele>
        <time>2018-01-24T09:24:27Z</time>
      </trkpt>
      <trkpt lat="43.49055" lon="5.45265">
        <ele>329.36342592136</ele>
        <time>2018-01-24T09:24:34Z</time>
      </trkpt>
      <trkpt lat="43.49047" lon="5.45272">
        <ele>329.57215794105</ele>
        <time>2018-01-24T09:24:42Z</time>
      </trkpt>
      <trkpt lat="43.49041" lon="5.4528">
        <ele>329.7253237416</ele>
        <time>2018-01-24T09:24:48Z</time>
      </trkpt>
      <trkpt lat="43.49036" lon="5.45288">
        <ele>329.90632323156</ele>
        <time>2018-01-24T09:24:55Z</time>
      </trkpt>
      <trkpt lat="43.49028" lon="5.45294">
        <ele>330.1444409408</ele>
        <time>2018-01-24T09:25:04Z</time>
      </trkpt>
      <trkpt lat="43.49021" lon="5.45302">
        <ele>330.35168836835</ele>
        <time>2018-01-24T09:25:12Z</time>
      </trkpt>
      <trkpt lat="43.49014" lon="5.45308">
        <ele>330.56571927255</ele>
        <time>2018-01-24T09:25:20Z</time>
      </trkpt>
      <trkpt lat="43.49007" lon="5.45314">
        <ele>330.78166882064</ele>
        <time>2018-01-24T09:25:28Z</time>
      </trkpt>
      <trkpt lat="43.49" lon="5.45321">
        <ele>331.04614118248</ele>
        <time>2018-01-24T09:25:38Z</time>
      </trkpt>
      <trkpt lat="43.48993" lon="5.45328">
        <ele>331.25876780486</ele>
        <time>2018-01-24T09:25:46Z</time>
      </trkpt>
      <trkpt lat="43.48986" lon="5.45334">
        <ele>331.47127642869</ele>
        <time>2018-01-24T09:25:54Z</time>
      </trkpt>
      <trkpt lat="43.48979" lon="5.45342">
        <ele>331.74853382522</ele>
        <time>2018-01-24T09:26:05Z</time>
      </trkpt>
      <trkpt lat="43.48973" lon="5.45351">
        <ele>331.93518877666</ele>
        <time>2018-01-24T09:26:13Z</time>
      </trkpt>
      <trkpt lat="43.48968" lon="5.4536">
        <ele>332.08974584737</ele>
        <time>2018-01-24T09:26:20Z</time>
      </trkpt>
      <trkpt lat="43.48962" lon="5.45369">
        <ele>332.23912317042</ele>
        <time>2018-01-24T09:26:27Z</time>
      </trkpt>
      <trkpt lat="43.48958" lon="5.45379">
        <ele>332.41143641622</ele>
        <time>2018-01-24T09:26:36Z</time>
      </trkpt>
      <trkpt lat="43.48952" lon="5.45387">
        <ele>332.50902098097</ele>
        <time>2018-01-24T09:26:42Z</time>
      </trkpt>
      <trkpt lat="43.48946" lon="5.45396">
        <ele>332.62281618112</ele>
        <time>2018-01-24T09:26:50Z</time>
      </trkpt>
      <trkpt lat="43.48941" lon="5.45405">
        <ele>332.73166957708</ele>
        <time>2018-01-24T09:26:58Z</time>
      </trkpt>
      <trkpt lat="43.48934" lon="5.45413">
        <ele>332.85795897045</ele>
        <time>2018-01-24T09:27:07Z</time>
      </trkpt>
      <trkpt lat="43.48927" lon="5.45417">
        <ele>332.95974834208</ele>
        <time>2018-01-24T09:27:14Z</time>
      </trkpt>
      <trkpt lat="43.4892" lon="5.45423">
        <ele>333.0737750326</ele>
        <time>2018-01-24T09:27:21Z</time>
      </trkpt>
      <trkpt lat="43.48912" lon="5.45429">
        <ele>333.22585608097</ele>
        <time>2018-01-24T09:27:29Z</time>
      </trkpt>
      <trkpt lat="43.48906" lon="5.45436">
        <ele>333.35492969243</ele>
        <time>2018-01-24T09:27:35Z</time>
      </trkpt>
      <trkpt lat="43.48899" lon="5.45443">
        <ele>333.51748178906</ele>
        <time>2018-01-24T09:27:42Z</time>
      </trkpt>
      <trkpt lat="43.48892" lon="5.45451">
        <ele>333.67774989222</ele>
        <time>2018-01-24T09:27:49Z</time>
      </trkpt>
      <trkpt lat="43.48886" lon="5.45458">
        <ele>333.85740920238</ele>
        <time>2018-01-24T09:27:57Z</time>
      </trkpt>
      <trkpt lat="43.48878" lon="5.45464">
        <ele>334.02814189714</ele>
        <time>2018-01-24T09:28:05Z</time>
      </trkpt>
      <trkpt lat="43.48871" lon="5.45467">
        <ele>334.19500167903</ele>
        <time>2018-01-24T09:28:13Z</time>
      </trkpt>
      <trkpt lat="43.48863" lon="5.45471">
        <ele>334.34434224848</ele>
        <time>2018-01-24T09:28:20Z</time>
      </trkpt>
      <trkpt lat="43.48855" lon="5.45476">
        <ele>334.50441033974</ele>
        <time>2018-01-24T09:28:27Z</time>
      </trkpt>
      <trkpt lat="43.48847" lon="5.45479">
        <ele>334.67313703416</ele>
        <time>2018-01-24T09:28:34Z</time>
      </trkpt>
      <trkpt lat="43.48839" lon="5.45483">
        <ele>334.86706639203</ele>
        <time>2018-01-24T09:28:42Z</time>
      </trkpt>
      <trkpt lat="43.48831" lon="5.45488">
        <ele>335.03855434969</ele>
        <time>2018-01-24T09:28:49Z</time>
      </trkpt>
      <trkpt lat="43.48823" lon="5.45494">
        <ele>335.18835230158</ele>
        <time>2018-01-24T09:28:55Z</time>
      </trkpt>
      <trkpt lat="43.48815" lon="5.455">
        <ele>335.36595636969</ele>
        <time>2018-01-24T09:29:02Z</time>
      </trkpt>
      <trkpt lat="43.48808" lon="5.45507">
        <ele>335.62135373831</ele>
        <time>2018-01-24T09:29:12Z</time>
      </trkpt>
      <trkpt lat="43.48803" lon="5.45515">
        <ele>335.82216477334</ele>
        <time>2018-01-24T09:29:20Z</time>
      </trkpt>
      <trkpt lat="43.48797" lon="5.45524">
        <ele>335.96986366921</ele>
        <time>2018-01-24T09:29:26Z</time>
      </trkpt>
      <trkpt lat="43.48792" lon="5.45533">
        <ele>336.11448797589</ele>
        <time>2018-01-24T09:29:32Z</time>
      </trkpt>
      <trkpt lat="43.48786" lon="5.45542">
        <ele>336.30129751359</ele>
        <time>2018-01-24T09:29:40Z</time>
      </trkpt>
      <trkpt lat="43.48781" lon="5.45551">
        <ele>336.47863586373</ele>
        <time>2018-01-24T09:29:48Z</time>
      </trkpt>
      <trkpt lat="43.48774" lon="5.45559">
        <ele>336.62425109179</ele>
        <time>2018-01-24T09:29:55Z</time>
      </trkpt>
      <trkpt lat="43.48768" lon="5.45566">
        <ele>336.75810708751</ele>
        <time>2018-01-24T09:30:02Z</time>
      </trkpt>
      <trkpt lat="43.48762" lon="5.45574">
        <ele>336.88380504873</ele>
        <time>2018-01-24T09:30:09Z</time>
      </trkpt>
      <trkpt lat="43.48756" lon="5.45581">
        <ele>337.00845383813</ele>
        <time>2018-01-24T09:30:16Z</time>
      </trkpt>
      <trkpt lat="43.48749" lon="5.45586">
        <ele>337.13401194569</ele>
        <time>2018-01-24T09:30:23Z</time>
      </trkpt>
      <trkpt lat="43.48741" lon="5.4559">
        <ele>337.26472601807</ele>
        <time>2018-01-24T09:30:30Z</time>
      </trkpt>
      <trkpt lat="43.48732" lon="5.45594">
        <ele>337.46068926987</ele>
        <time>2018-01-24T09:30:40Z</time>
      </trkpt>
      <trkpt lat="43.48724" lon="5.45597">
        <ele>337.64646456015</ele>
        <time>2018-01-24T09:30:49Z</time>
      </trkpt>
      <trkpt lat="43.48716" lon="5.45596">
        <ele>337.81137797932</ele>
        <time>2018-01-24T09:30:56Z</time>
      </trkpt>
      <trkpt lat="43.48708" lon="5.45592">
        <ele>337.97241272485</ele>
        <time>2018-01-24T09:31:02Z</time>
      </trkpt>
      <trkpt lat="43.48701" lon="5.45586">
        <ele>338.17459805025</ele>
        <time>2018-01-24T09:31:09Z</time>
      </trkpt>
      <trkpt lat="43.48694" lon="5.45578">
        <ele>338.37885461917</ele>
        <time>2018-01-24T09:31:16Z</time>
      </trkpt>
      <trkpt lat="43.4869" lon="5.45567">
        <ele>338.62312916263</ele>
        <time>2018-01-24T09:31:24Z</time>
      </trkpt>
      <trkpt lat="43.48685" lon="5.45558">
        <ele>338.868908967</ele>
        <time>2018-01-24T09:31:32Z</time>
      </trkpt>
      <trkpt lat="43.4868" lon="5.45548">
        <ele>339.11239862795</ele>
        <time>2018-01-24T09:31:40Z</time>
      </trkpt>
      <trkpt lat="43.48674" lon="5.4554">
        <ele>339.52442338661</ele>
        <time>2018-01-24T09:32:04Z</time>
      </trkpt>
      <trkpt lat="43.48672" lon="5.45529">
        <ele>339.98633861128</ele>
        <time>2018-01-24T09:32:17Z</time>
      </trkpt>
      <trkpt lat="43.48676" lon="5.4552">
        <ele>340.50225010743</ele>
        <time>2018-01-24T09:32:33Z</time>
      </trkpt>
      <trkpt lat="43.48683" lon="5.45513">
        <ele>340.78480052775</ele>
        <time>2018-01-24T09:32:42Z</time>
      </trkpt>
      <trkpt lat="43.48688" lon="5.45504">
        <ele>341.15526639226</ele>
        <time>2018-01-24T09:32:54Z</time>
      </trkpt>
      <trkpt lat="43.48694" lon="5.45494">
        <ele>341.50625375416</ele>
        <time>2018-01-24T09:33:06Z</time>
      </trkpt>
      <trkpt lat="43.48698" lon="5.45484">
        <ele>341.78415259813</ele>
        <time>2018-01-24T09:33:17Z</time>
      </trkpt>
      <trkpt lat="43.48704" lon="5.45476">
        <ele>342.03033478914</ele>
        <time>2018-01-24T09:33:28Z</time>
      </trkpt>
      <trkpt lat="43.4871" lon="5.45468">
        <ele>342.22490983371</ele>
        <time>2018-01-24T09:33:38Z</time>
      </trkpt>
      <trkpt lat="43.48716" lon="5.4546">
        <ele>342.34488799271</ele>
        <time>2018-01-24T09:33:46Z</time>
      </trkpt>
      <trkpt lat="43.48724" lon="5.45454">
        <ele>342.43107137723</ele>
        <time>2018-01-24T09:33:54Z</time>
      </trkpt>
      <trkpt lat="43.48731" lon="5.45448">
        <ele>342.49181313009</ele>
        <time>2018-01-24T09:34:02Z</time>
      </trkpt>
      <trkpt lat="43.48737" lon="5.45441">
        <ele>342.53042816516</ele>
        <time>2018-01-24T09:34:10Z</time>
      </trkpt>
      <trkpt lat="43.48742" lon="5.45431">
        <ele>342.53783903832</ele>
        <time>2018-01-24T09:34:20Z</time>
      </trkpt>
      <trkpt lat="43.48748" lon="5.45422">
        <ele>342.48903555526</ele>
        <time>2018-01-24T09:34:30Z</time>
      </trkpt>
      <trkpt lat="43.48754" lon="5.45413">
        <ele>342.40293507677</ele>
        <time>2018-01-24T09:34:40Z</time>
      </trkpt>
      <trkpt lat="43.48758" lon="5.45405">
        <ele>342.32712635283</ele>
        <time>2018-01-24T09:34:48Z</time>
      </trkpt>
      <trkpt lat="43.48763" lon="5.45395">
        <ele>342.22755375198</ele>
        <time>2018-01-24T09:34:56Z</time>
      </trkpt>
      <trkpt lat="43.48767" lon="5.45384">
        <ele>342.10191685729</ele>
        <time>2018-01-24T09:35:04Z</time>
      </trkpt>
      <trkpt lat="43.48771" lon="5.45375">
        <ele>341.96800362901</ele>
        <time>2018-01-24T09:35:11Z</time>
      </trkpt>
      <trkpt lat="43.48775" lon="5.45364">
        <ele>341.82361988622</ele>
        <time>2018-01-24T09:35:18Z</time>
      </trkpt>
      <trkpt lat="43.48775" lon="5.45352">
        <ele>341.64940911655</ele>
        <time>2018-01-24T09:35:26Z</time>
      </trkpt>
      <trkpt lat="43.48776" lon="5.45341">
        <ele>341.44028430782</ele>
        <time>2018-01-24T09:35:35Z</time>
      </trkpt>
      <trkpt lat="43.48777" lon="5.45329">
        <ele>341.19855335839</ele>
        <time>2018-01-24T09:35:45Z</time>
      </trkpt>
      <trkpt lat="43.48779" lon="5.45317">
        <ele>340.97323343843</ele>
        <time>2018-01-24T09:35:54Z</time>
      </trkpt>
      <trkpt lat="43.4878" lon="5.45305">
        <ele>340.78094691205</ele>
        <time>2018-01-24T09:36:02Z</time>
      </trkpt>
      <trkpt lat="43.4878" lon="5.45295">
        <ele>340.61313388413</ele>
        <time>2018-01-24T09:36:09Z</time>
      </trkpt>
      <trkpt lat="43.48779" lon="5.45284">
        <ele>340.43735200165</ele>
        <time>2018-01-24T09:36:16Z</time>
      </trkpt>
      <trkpt lat="43.48782" lon="5.45272">
        <ele>340.25740414856</ele>
        <time>2018-01-24T09:36:23Z</time>
      </trkpt>
      <trkpt lat="43.48786" lon="5.45262">
        <ele>340.07302621497</ele>
        <time>2018-01-24T09:36:30Z</time>
      </trkpt>
      <trkpt lat="43.48793" lon="5.45255">
        <ele>339.91421096235</ele>
        <time>2018-01-24T09:36:36Z</time>
      </trkpt>
      <trkpt lat="43.488" lon="5.45249">
        <ele>339.71833701127</ele>
        <time>2018-01-24T09:36:43Z</time>
      </trkpt>
      <trkpt lat="43.48803" lon="5.45238">
        <ele>339.47600513254</ele>
        <time>2018-01-24T09:36:51Z</time>
      </trkpt>
      <trkpt lat="43.48806" lon="5.45226">
        <ele>339.19385779435</ele>
        <time>2018-01-24T09:37:00Z</time>
      </trkpt>
      <trkpt lat="43.48809" lon="5.45215">
        <ele>338.94680121983</ele>
        <time>2018-01-24T09:37:08Z</time>
      </trkpt>
      <trkpt lat="43.48815" lon="5.45207">
        <ele>338.65166408915</ele>
        <time>2018-01-24T09:37:17Z</time>
      </trkpt>
      <trkpt lat="43.4882" lon="5.45198">
        <ele>338.35939024963</ele>
        <time>2018-01-24T09:37:25Z</time>
      </trkpt>
      <trkpt lat="43.48826" lon="5.45189">
        <ele>337.9979772593</ele>
        <time>2018-01-24T09:37:34Z</time>
      </trkpt>
      <trkpt lat="43.48832" lon="5.45181">
        <ele>337.65538695874</ele>
        <time>2018-01-24T09:37:42Z</time>
      </trkpt>
      <trkpt lat="43.48837" lon="5.45173">
        <ele>337.39409642277</ele>
        <time>2018-01-24T09:37:48Z</time>
      </trkpt>
      <trkpt lat="43.48843" lon="5.45166">
        <ele>337.03287073588</ele>
        <time>2018-01-24T09:37:56Z</time>
      </trkpt>
      <trkpt lat="43.48848" lon="5.45157">
        <ele>336.71064989412</ele>
        <time>2018-01-24T09:38:03Z</time>
      </trkpt>
      <trkpt lat="43.48852" lon="5.45147">
        <ele>336.33134489313</ele>
        <time>2018-01-24T09:38:11Z</time>
      </trkpt>
      <trkpt lat="43.48857" lon="5.45138">
        <ele>335.97756978629</ele>
        <time>2018-01-24T09:38:18Z</time>
      </trkpt>
      <trkpt lat="43.48862" lon="5.45127">
        <ele>335.54755578169</ele>
        <time>2018-01-24T09:38:26Z</time>
      </trkpt>
      <trkpt lat="43.48864" lon="5.45116">
        <ele>335.10308712513</ele>
        <time>2018-01-24T09:38:34Z</time>
      </trkpt>
      <trkpt lat="43.48866" lon="5.45105">
        <ele>334.77458155393</ele>
        <time>2018-01-24T09:38:40Z</time>
      </trkpt>
      <trkpt lat="43.48871" lon="5.45095">
        <ele>334.46419964028</ele>
        <time>2018-01-24T09:38:46Z</time>
      </trkpt>
      <trkpt lat="43.48875" lon="5.45085">
        <ele>334.07401571243</ele>
        <time>2018-01-24T09:38:54Z</time>
      </trkpt>
      <trkpt lat="43.48881" lon="5.45076">
        <ele>333.58965333926</ele>
        <time>2018-01-24T09:39:04Z</time>
      </trkpt>
      <trkpt lat="43.48887" lon="5.45068">
        <ele>333.19527119059</ele>
        <time>2018-01-24T09:39:12Z</time>
      </trkpt>
      <trkpt lat="43.48893" lon="5.4506">
        <ele>332.81641199372</ele>
        <time>2018-01-24T09:39:19Z</time>
      </trkpt>
      <trkpt lat="43.489" lon="5.45053">
        <ele>332.42974601474</ele>
        <time>2018-01-24T09:39:26Z</time>
      </trkpt>
      <trkpt lat="43.48907" lon="5.45046">
        <ele>332.05346859915</ele>
        <time>2018-01-24T09:39:33Z</time>
      </trkpt>
      <trkpt lat="43.48913" lon="5.45039">
        <ele>331.72717953283</ele>
        <time>2018-01-24T09:39:39Z</time>
      </trkpt>
      <trkpt lat="43.48919" lon="5.45031">
        <ele>331.33968347793</ele>
        <time>2018-01-24T09:39:46Z</time>
      </trkpt>
      <trkpt lat="43.48923" lon="5.4502">
        <ele>330.89326781544</ele>
        <time>2018-01-24T09:39:54Z</time>
      </trkpt>
      <trkpt lat="43.48928" lon="5.45011">
        <ele>330.38642866312</ele>
        <time>2018-01-24T09:40:03Z</time>
      </trkpt>
      <trkpt lat="43.48934" lon="5.45004">
        <ele>329.97705722039</ele>
        <time>2018-01-24T09:40:10Z</time>
      </trkpt>
      <trkpt lat="43.48938" lon="5.44994">
        <ele>329.55033245285</ele>
        <time>2018-01-24T09:40:17Z</time>
      </trkpt>
      <trkpt lat="43.48943" lon="5.44984">
        <ele>328.9665008818</ele>
        <time>2018-01-24T09:40:26Z</time>
      </trkpt>
      <trkpt lat="43.48949" lon="5.44975">
        <ele>328.41201462989</ele>
        <time>2018-01-24T09:40:34Z</time>
      </trkpt>
      <trkpt lat="43.48955" lon="5.44967">
        <ele>327.92722975721</ele>
        <time>2018-01-24T09:40:41Z</time>
      </trkpt>
      <trkpt lat="43.4896" lon="5.44959">
        <ele>327.43363946766</ele>
        <time>2018-01-24T09:40:48Z</time>
      </trkpt>
      <trkpt lat="43.48966" lon="5.44949">
        <ele>326.85933879752</ele>
        <time>2018-01-24T09:40:56Z</time>
      </trkpt>
      <trkpt lat="43.48971" lon="5.44941">
        <ele>326.29396416101</ele>
        <time>2018-01-24T09:41:04Z</time>
      </trkpt>
      <trkpt lat="43.48974" lon="5.44929">
        <ele>325.72531290589</ele>
        <time>2018-01-24T09:41:12Z</time>
      </trkpt>
      <trkpt lat="43.48978" lon="5.44919">
        <ele>325.22593859542</ele>
        <time>2018-01-24T09:41:19Z</time>
      </trkpt>
      <trkpt lat="43.48981" lon="5.44909">
        <ele>324.73775435933</ele>
        <time>2018-01-24T09:41:26Z</time>
      </trkpt>
      <trkpt lat="43.48981" lon="5.44897">
        <ele>324.2599779819</ele>
        <time>2018-01-24T09:41:33Z</time>
      </trkpt>
      <trkpt lat="43.48981" lon="5.44885">
        <ele>323.86937905218</ele>
        <time>2018-01-24T09:41:39Z</time>
      </trkpt>
      <trkpt lat="43.48982" lon="5.44874">
        <ele>323.50219393144</ele>
        <time>2018-01-24T09:41:45Z</time>
      </trkpt>
      <trkpt lat="43.48983" lon="5.44863">
        <ele>323.09725291183</ele>
        <time>2018-01-24T09:41:52Z</time>
      </trkpt>
      <trkpt lat="43.48985" lon="5.44851">
        <ele>322.6838646184</ele>
        <time>2018-01-24T09:42:00Z</time>
      </trkpt>
      <trkpt lat="43.4899" lon="5.44842">
        <ele>322.35862180494</ele>
        <time>2018-01-24T09:42:07Z</time>
      </trkpt>
      <trkpt lat="43.48995" lon="5.44833">
        <ele>322.06045022776</ele>
        <time>2018-01-24T09:42:14Z</time>
      </trkpt>
      <trkpt lat="43.49002" lon="5.44825">
        <ele>321.78530548582</ele>
        <time>2018-01-24T09:42:21Z</time>
      </trkpt>
      <trkpt lat="43.49008" lon="5.44817">
        <ele>321.53050419489</ele>
        <time>2018-01-24T09:42:28Z</time>
      </trkpt>
      <trkpt lat="43.49015" lon="5.44809">
        <ele>321.25811679433</ele>
        <time>2018-01-24T09:42:36Z</time>
      </trkpt>
      <trkpt lat="43.49021" lon="5.44801">
        <ele>321.0068214391</ele>
        <time>2018-01-24T09:42:44Z</time>
      </trkpt>
      <trkpt lat="43.49026" lon="5.44791">
        <ele>320.77192295895</ele>
        <time>2018-01-24T09:42:52Z</time>
      </trkpt>
      <trkpt lat="43.49029" lon="5.44781">
        <ele>320.5029760463</ele>
        <time>2018-01-24T09:43:00Z</time>
      </trkpt>
      <trkpt lat="43.49031" lon="5.44771">
        <ele>320.22700464058</ele>
        <time>2018-01-24T09:43:06Z</time>
      </trkpt>
      <trkpt lat="43.49033" lon="5.4476">
        <ele>319.92555893718</ele>
        <time>2018-01-24T09:43:12Z</time>
      </trkpt>
      <trkpt lat="43.49038" lon="5.44751">
        <ele>319.59309180827</ele>
        <time>2018-01-24T09:43:19Z</time>
      </trkpt>
      <trkpt lat="43.49044" lon="5.44742">
        <ele>319.16646629667</ele>
        <time>2018-01-24T09:43:29Z</time>
      </trkpt>
      <trkpt lat="43.49049" lon="5.44732">
        <ele>318.81509523391</ele>
        <time>2018-01-24T09:43:38Z</time>
      </trkpt>
      <trkpt lat="43.49055" lon="5.44723">
        <ele>318.59632013931</ele>
        <time>2018-01-24T09:43:44Z</time>
      </trkpt>
      <trkpt lat="43.49059" lon="5.44714">
        <ele>318.35552186988</ele>
        <time>2018-01-24T09:43:51Z</time>
      </trkpt>
      <trkpt lat="43.49059" lon="5.44702">
        <ele>317.94115942325</ele>
        <time>2018-01-24T09:44:06Z</time>
      </trkpt>
      <trkpt lat="43.4905" lon="5.44698">
        <ele>317.55648004432</ele>
        <time>2018-01-24T09:44:21Z</time>
      </trkpt>
      <trkpt lat="43.49045" lon="5.44706">
        <ele>317.34626076529</ele>
        <time>2018-01-24T09:44:28Z</time>
      </trkpt>
      <trkpt lat="43.49039" lon="5.44715">
        <ele>317.0783056385</ele>
        <time>2018-01-24T09:44:37Z</time>
      </trkpt>
      <trkpt lat="43.49031" lon="5.44721">
        <ele>316.50191502753</ele>
        <time>2018-01-24T09:45:21Z</time>
      </trkpt>
      <trkpt lat="43.49023" lon="5.44722">
        <ele>315.8847547927</ele>
        <time>2018-01-24T09:46:00Z</time>
      </trkpt>
      <trkpt lat="43.49014" lon="5.44722">
        <ele>315.34548918914</ele>
        <time>2018-01-24T09:46:11Z</time>
      </trkpt>
      <trkpt lat="43.49006" lon="5.44719">
        <ele>314.94777751719</ele>
        <time>2018-01-24T09:46:20Z</time>
      </trkpt>
      <trkpt lat="43.48997" lon="5.44719">
        <ele>314.60931960052</ele>
        <time>2018-01-24T09:46:28Z</time>
      </trkpt>
      <trkpt lat="43.48989" lon="5.44718">
        <ele>314.24532764237</ele>
        <time>2018-01-24T09:46:37Z</time>
      </trkpt>
      <trkpt lat="43.48981" lon="5.44715">
        <ele>313.83341233053</ele>
        <time>2018-01-24T09:46:48Z</time>
      </trkpt>
      <trkpt lat="43.48973" lon="5.44714">
        <ele>313.6191408126</ele>
        <time>2018-01-24T09:46:54Z</time>
      </trkpt>
      <trkpt lat="43.48965" lon="5.44712">
        <ele>313.22079545641</ele>
        <time>2018-01-24T09:47:05Z</time>
      </trkpt>
      <trkpt lat="43.48957" lon="5.44713">
        <ele>312.95504197877</ele>
        <time>2018-01-24T09:47:12Z</time>
      </trkpt>
      <trkpt lat="43.48948" lon="5.44716">
        <ele>312.58359203799</ele>
        <time>2018-01-24T09:47:19Z</time>
      </trkpt>
      <trkpt lat="43.4894" lon="5.44713">
        <ele>312.0195349224</ele>
        <time>2018-01-24T09:47:29Z</time>
      </trkpt>
      <trkpt lat="43.48931" lon="5.44713">
        <ele>311.6231300787</ele>
        <time>2018-01-24T09:47:34Z</time>
      </trkpt>
      <trkpt lat="43.48923" lon="5.44709">
        <ele>311.2736113551</ele>
        <time>2018-01-24T09:47:42Z</time>
      </trkpt>
      <trkpt lat="43.48915" lon="5.44705">
        <ele>310.88972800564</ele>
        <time>2018-01-24T09:47:52Z</time>
      </trkpt>
      <trkpt lat="43.48907" lon="5.44705">
        <ele>310.55336746499</ele>
        <time>2018-01-24T09:48:02Z</time>
      </trkpt>
      <trkpt lat="43.48899" lon="5.44709">
        <ele>310.28853299237</ele>
        <time>2018-01-24T09:48:11Z</time>
      </trkpt>
      <trkpt lat="43.48891" lon="5.44711">
        <ele>310.03327103428</ele>
        <time>2018-01-24T09:48:21Z</time>
      </trkpt>
      <trkpt lat="43.48883" lon="5.4471">
        <ele>309.85608402378</ele>
        <time>2018-01-24T09:48:29Z</time>
      </trkpt>
      <trkpt lat="43.48874" lon="5.44709">
        <ele>309.7007525273</ele>
        <time>2018-01-24T09:48:37Z</time>
      </trkpt>
      <trkpt lat="43.48867" lon="5.44713">
        <ele>309.50618110138</ele>
        <time>2018-01-24T09:48:48Z</time>
      </trkpt>
      <trkpt lat="43.48861" lon="5.44721">
        <ele>309.34105781376</ele>
        <time>2018-01-24T09:48:58Z</time>
      </trkpt>
      <trkpt lat="43.48854" lon="5.44729">
        <ele>309.18722777783</ele>
        <time>2018-01-24T09:49:08Z</time>
      </trkpt>
      <trkpt lat="43.48849" lon="5.44738">
        <ele>309.06730969343</ele>
        <time>2018-01-24T09:49:17Z</time>
      </trkpt>
      <trkpt lat="43.48843" lon="5.44746">
        <ele>308.91218016307</ele>
        <time>2018-01-24T09:49:26Z</time>
      </trkpt>
      <trkpt lat="43.48838" lon="5.44755">
        <ele>308.78589116889</ele>
        <time>2018-01-24T09:49:32Z</time>
      </trkpt>
      <trkpt lat="43.48833" lon="5.44764">
        <ele>308.62004898251</ele>
        <time>2018-01-24T09:49:39Z</time>
      </trkpt>
      <trkpt lat="43.48827" lon="5.44772">
        <ele>308.44176281237</ele>
        <time>2018-01-24T09:49:45Z</time>
      </trkpt>
      <trkpt lat="43.48823" lon="5.44782">
        <ele>308.13373334084</ele>
        <time>2018-01-24T09:49:54Z</time>
      </trkpt>
      <trkpt lat="43.48818" lon="5.44791">
        <ele>307.91523345352</ele>
        <time>2018-01-24T09:50:00Z</time>
      </trkpt>
      <trkpt lat="43.48815" lon="5.44803">
        <ele>307.65078092215</ele>
        <time>2018-01-24T09:50:07Z</time>
      </trkpt>
      <trkpt lat="43.48813" lon="5.44815">
        <ele>307.25051168343</ele>
        <time>2018-01-24T09:50:17Z</time>
      </trkpt>
      <trkpt lat="43.48809" lon="5.44824">
        <ele>306.64825639261</ele>
        <time>2018-01-24T09:50:30Z</time>
      </trkpt>
      <trkpt lat="43.48803" lon="5.44832">
        <ele>306.23586851432</ele>
        <time>2018-01-24T09:50:39Z</time>
      </trkpt>
      <trkpt lat="43.48795" lon="5.44837">
        <ele>305.71768638015</ele>
        <time>2018-01-24T09:50:51Z</time>
      </trkpt>
      <trkpt lat="43.48786" lon="5.44841">
        <ele>305.35571258272</ele>
        <time>2018-01-24T09:51:00Z</time>
      </trkpt>
      <trkpt lat="43.48779" lon="5.44849">
        <ele>305.03008965526</ele>
        <time>2018-01-24T09:51:10Z</time>
      </trkpt>
      <trkpt lat="43.48773" lon="5.44858">
        <ele>304.69167635962</ele>
        <time>2018-01-24T09:51:20Z</time>
      </trkpt>
      <trkpt lat="43.48766" lon="5.44852">
        <ele>298.40657390368</ele>
        <time>2018-01-24T09:56:45Z</time>
      </trkpt>
      <trkpt lat="43.48758" lon="5.44849">
        <ele>297.88133564748</ele>
        <time>2018-01-24T09:57:01Z</time>
      </trkpt>
      <trkpt lat="43.4875" lon="5.44844">
        <ele>297.52556393371</ele>
        <time>2018-01-24T09:57:14Z</time>
      </trkpt>
      <trkpt lat="43.48741" lon="5.44842">
        <ele>297.29951382041</ele>
        <time>2018-01-24T09:57:24Z</time>
      </trkpt>
      <trkpt lat="43.48733" lon="5.44842">
        <ele>297.12617445355</ele>
        <time>2018-01-24T09:57:34Z</time>
      </trkpt>
      <trkpt lat="43.48726" lon="5.44836">
        <ele>297.00632182934</ele>
        <time>2018-01-24T09:57:43Z</time>
      </trkpt>
      <trkpt lat="43.48719" lon="5.4483">
        <ele>296.89912661717</ele>
        <time>2018-01-24T09:57:54Z</time>
      </trkpt>
      <trkpt lat="43.48712" lon="5.44823">
        <ele>296.81190283205</ele>
        <time>2018-01-24T09:58:05Z</time>
      </trkpt>
      <trkpt lat="43.48705" lon="5.44816">
        <ele>296.76016510192</ele>
        <time>2018-01-24T09:58:20Z</time>
      </trkpt>
      <trkpt lat="43.48697" lon="5.44812">
        <ele>296.75643302216</ele>
        <time>2018-01-24T09:58:33Z</time>
      </trkpt>
      <trkpt lat="43.48689" lon="5.44807">
        <ele>296.79144553109</ele>
        <time>2018-01-24T09:58:43Z</time>
      </trkpt>
      <trkpt lat="43.48681" lon="5.44802">
        <ele>296.8489745613</ele>
        <time>2018-01-24T09:58:54Z</time>
      </trkpt>
      <trkpt lat="43.48674" lon="5.44793">
        <ele>296.91227673372</ele>
        <time>2018-01-24T09:59:04Z</time>
      </trkpt>
      <trkpt lat="43.48668" lon="5.44785">
        <ele>296.99773172817</ele>
        <time>2018-01-24T09:59:16Z</time>
      </trkpt>
      <trkpt lat="43.48661" lon="5.44779">
        <ele>297.06496242114</ele>
        <time>2018-01-24T09:59:26Z</time>
      </trkpt>
      <trkpt lat="43.48653" lon="5.44773">
        <ele>297.12516381002</ele>
        <time>2018-01-24T09:59:35Z</time>
      </trkpt>
      <trkpt lat="43.48646" lon="5.44768">
        <ele>297.19158202994</ele>
        <time>2018-01-24T09:59:45Z</time>
      </trkpt>
      <trkpt lat="43.48638" lon="5.44762">
        <ele>297.30560374406</ele>
        <time>2018-01-24T09:59:59Z</time>
      </trkpt>
      <trkpt lat="43.4863" lon="5.44761">
        <ele>297.37103972401</ele>
        <time>2018-01-24T10:00:07Z</time>
      </trkpt>
      <trkpt lat="43.48621" lon="5.44761">
        <ele>297.43251046395</ele>
        <time>2018-01-24T10:00:15Z</time>
      </trkpt>
      <trkpt lat="43.48613" lon="5.44759">
        <ele>297.51781572506</ele>
        <time>2018-01-24T10:00:26Z</time>
      </trkpt>
      <trkpt lat="43.48604" lon="5.44759">
        <ele>297.7130965201</ele>
        <time>2018-01-24T10:00:41Z</time>
      </trkpt>
      <trkpt lat="43.48597" lon="5.44764">
        <ele>298.04044311313</ele>
        <time>2018-01-24T10:00:55Z</time>
      </trkpt>
      <trkpt lat="43.48589" lon="5.44769">
        <ele>298.26486482</ele>
        <time>2018-01-24T10:01:03Z</time>
      </trkpt>
      <trkpt lat="43.48582" lon="5.44775">
        <ele>298.5596656934</ele>
        <time>2018-01-24T10:01:12Z</time>
      </trkpt>
      <trkpt lat="43.48574" lon="5.44777">
        <ele>298.83400425567</ele>
        <time>2018-01-24T10:01:20Z</time>
      </trkpt>
      <trkpt lat="43.48565" lon="5.44779">
        <ele>299.29320422646</ele>
        <time>2018-01-24T10:01:32Z</time>
      </trkpt>
      <trkpt lat="43.48556" lon="5.44779">
        <ele>299.84880856527</ele>
        <time>2018-01-24T10:01:45Z</time>
      </trkpt>
      <trkpt lat="43.48554" lon="5.44768">
        <ele>300.25841103191</ele>
        <time>2018-01-24T10:01:54Z</time>
      </trkpt>
      <trkpt lat="43.48554" lon="5.44757">
        <ele>300.75412460732</ele>
        <time>2018-01-24T10:02:04Z</time>
      </trkpt>
      <trkpt lat="43.48551" lon="5.44746">
        <ele>301.16259224904</ele>
        <time>2018-01-24T10:02:12Z</time>
      </trkpt>
      <trkpt lat="43.48545" lon="5.44739">
        <ele>301.73308003367</ele>
        <time>2018-01-24T10:02:23Z</time>
      </trkpt>
      <trkpt lat="43.48536" lon="5.44736">
        <ele>302.29324588667</ele>
        <time>2018-01-24T10:02:34Z</time>
      </trkpt>
      <trkpt lat="43.48527" lon="5.44735">
        <ele>302.98801554794</ele>
        <time>2018-01-24T10:02:48Z</time>
      </trkpt>
      <trkpt lat="43.4852" lon="5.44731">
        <ele>303.4847568118</ele>
        <time>2018-01-24T10:02:59Z</time>
      </trkpt>
      <trkpt lat="43.48516" lon="5.4472">
        <ele>303.93099968738</ele>
        <time>2018-01-24T10:03:10Z</time>
      </trkpt>
      <trkpt lat="43.48513" lon="5.44709">
        <ele>304.31535629839</ele>
        <time>2018-01-24T10:03:23Z</time>
      </trkpt>
      <trkpt lat="43.48507" lon="5.447">
        <ele>304.68883354672</ele>
        <time>2018-01-24T10:03:33Z</time>
      </trkpt>
      <trkpt lat="43.48501" lon="5.44692">
        <ele>305.12386036146</ele>
        <time>2018-01-24T10:03:45Z</time>
      </trkpt>
      <trkpt lat="43.48493" lon="5.44686">
        <ele>305.46877613734</ele>
        <time>2018-01-24T10:03:55Z</time>
      </trkpt>
      <trkpt lat="43.48486" lon="5.44679">
        <ele>305.74840406481</ele>
        <time>2018-01-24T10:04:03Z</time>
      </trkpt>
      <trkpt lat="43.48478" lon="5.44675">
        <ele>306.22594593303</ele>
        <time>2018-01-24T10:04:15Z</time>
      </trkpt>
      <trkpt lat="43.4847" lon="5.44669">
        <ele>306.66419041591</ele>
        <time>2018-01-24T10:04:26Z</time>
      </trkpt>
      <trkpt lat="43.48464" lon="5.44661">
        <ele>307.07026844271</ele>
        <time>2018-01-24T10:04:36Z</time>
      </trkpt>
      <trkpt lat="43.48457" lon="5.44656">
        <ele>307.42866329996</ele>
        <time>2018-01-24T10:04:45Z</time>
      </trkpt>
      <trkpt lat="43.48449" lon="5.44651">
        <ele>307.97068005537</ele>
        <time>2018-01-24T10:04:58Z</time>
      </trkpt>
      <trkpt lat="43.48441" lon="5.44646">
        <ele>308.27956788469</ele>
        <time>2018-01-24T10:05:05Z</time>
      </trkpt>
      <trkpt lat="43.48434" lon="5.44648">
        <ele>308.65450492682</ele>
        <time>2018-01-24T10:05:13Z</time>
      </trkpt>
      <trkpt lat="43.48425" lon="5.44646">
        <ele>308.91578728696</ele>
        <time>2018-01-24T10:05:19Z</time>
      </trkpt>
      <trkpt lat="43.48416" lon="5.44649">
        <ele>309.23710244001</ele>
        <time>2018-01-24T10:05:27Z</time>
      </trkpt>
      <trkpt lat="43.48408" lon="5.44652">
        <ele>309.56417268333</ele>
        <time>2018-01-24T10:05:36Z</time>
      </trkpt>
      <trkpt lat="43.48399" lon="5.44654">
        <ele>310.87836669616</ele>
        <time>2018-01-24T10:07:44Z</time>
      </trkpt>
      <trkpt lat="43.48391" lon="5.4466">
        <ele>312.23741193068</ele>
        <time>2018-01-24T10:09:35Z</time>
      </trkpt>
      <trkpt lat="43.48387" lon="5.4467">
        <ele>312.75769630162</ele>
        <time>2018-01-24T10:09:47Z</time>
      </trkpt>
      <trkpt lat="43.48381" lon="5.44678">
        <ele>313.10600133261</ele>
        <time>2018-01-24T10:09:56Z</time>
      </trkpt>
      <trkpt lat="43.48376" lon="5.44687">
        <ele>313.49317812809</ele>
        <time>2018-01-24T10:10:07Z</time>
      </trkpt>
      <trkpt lat="43.4837" lon="5.44695">
        <ele>313.78706573961</ele>
        <time>2018-01-24T10:10:16Z</time>
      </trkpt>
      <trkpt lat="43.48362" lon="5.447">
        <ele>314.03638392668</ele>
        <time>2018-01-24T10:10:24Z</time>
      </trkpt>
      <trkpt lat="43.48356" lon="5.44709">
        <ele>314.59566505001</ele>
        <time>2018-01-24T10:10:37Z</time>
      </trkpt>
      <trkpt lat="43.48351" lon="5.44718">
        <ele>315.51461292893</ele>
        <time>2018-01-24T10:10:56Z</time>
      </trkpt>
      <trkpt lat="43.48346" lon="5.44726">
        <ele>316.00131369267</ele>
        <time>2018-01-24T10:11:04Z</time>
      </trkpt>
      <trkpt lat="43.4834" lon="5.44735">
        <ele>316.57492148546</ele>
        <time>2018-01-24T10:11:13Z</time>
      </trkpt>
      <trkpt lat="43.48336" lon="5.44746">
        <ele>317.42258474947</ele>
        <time>2018-01-24T10:11:26Z</time>
      </trkpt>
      <trkpt lat="43.48329" lon="5.44753">
        <ele>318.15419522474</ele>
        <time>2018-01-24T10:11:37Z</time>
      </trkpt>
      <trkpt lat="43.48322" lon="5.44759">
        <ele>318.87602423362</ele>
        <time>2018-01-24T10:11:47Z</time>
      </trkpt>
      <trkpt lat="43.48316" lon="5.44768">
        <ele>319.7871136222</ele>
        <time>2018-01-24T10:11:59Z</time>
      </trkpt>
      <trkpt lat="43.48311" lon="5.44776">
        <ele>320.41341428272</ele>
        <time>2018-01-24T10:12:07Z</time>
      </trkpt>
      <trkpt lat="43.48305" lon="5.44786">
        <ele>320.89032316474</ele>
        <time>2018-01-24T10:12:13Z</time>
      </trkpt>
      <trkpt lat="43.48299" lon="5.44794">
        <ele>321.67271760552</ele>
        <time>2018-01-24T10:12:23Z</time>
      </trkpt>
      <trkpt lat="43.48293" lon="5.44801">
        <ele>322.28011425955</ele>
        <time>2018-01-24T10:12:31Z</time>
      </trkpt>
      <trkpt lat="43.48289" lon="5.44809">
        <ele>322.7918560879</ele>
        <time>2018-01-24T10:12:38Z</time>
      </trkpt>
      <trkpt lat="43.48285" lon="5.44819">
        <ele>323.13915259826</ele>
        <time>2018-01-24T10:12:43Z</time>
      </trkpt>
      <trkpt lat="43.4828" lon="5.44829">
        <ele>323.59095410448</ele>
        <time>2018-01-24T10:12:50Z</time>
      </trkpt>
      <trkpt lat="43.48273" lon="5.44837">
        <ele>324.11156325423</ele>
        <time>2018-01-24T10:12:59Z</time>
      </trkpt>
      <trkpt lat="43.48266" lon="5.44841">
        <ele>324.6650712693</ele>
        <time>2018-01-24T10:13:09Z</time>
      </trkpt>
      <trkpt lat="43.48258" lon="5.44844">
        <ele>325.35041415618</ele>
        <time>2018-01-24T10:13:20Z</time>
      </trkpt>
      <trkpt lat="43.4825" lon="5.4485">
        <ele>326.23667776151</ele>
        <time>2018-01-24T10:13:33Z</time>
      </trkpt>
      <trkpt lat="43.48254" lon="5.4486">
        <ele>326.8566298639</ele>
        <time>2018-01-24T10:13:42Z</time>
      </trkpt>
      <trkpt lat="43.48254" lon="5.44872">
        <ele>327.17790099593</ele>
        <time>2018-01-24T10:13:47Z</time>
      </trkpt>
      <trkpt lat="43.48253" lon="5.44883">
        <ele>327.48573697786</ele>
        <time>2018-01-24T10:13:52Z</time>
      </trkpt>
      <trkpt lat="43.48252" lon="5.44894">
        <ele>327.94217336151</ele>
        <time>2018-01-24T10:14:00Z</time>
      </trkpt>
      <trkpt lat="43.48255" lon="5.44906">
        <ele>328.55606163366</ele>
        <time>2018-01-24T10:14:12Z</time>
      </trkpt>
      <trkpt lat="43.48255" lon="5.44917">
        <ele>329.00530129449</ele>
        <time>2018-01-24T10:14:22Z</time>
      </trkpt>
      <trkpt lat="43.48257" lon="5.44929">
        <ele>329.50781355042</ele>
        <time>2018-01-24T10:14:35Z</time>
      </trkpt>
      <trkpt lat="43.48259" lon="5.4494">
        <ele>329.81283127897</ele>
        <time>2018-01-24T10:14:44Z</time>
      </trkpt>
      <trkpt lat="43.4826" lon="5.4495">
        <ele>330.0315065666</ele>
        <time>2018-01-24T10:14:51Z</time>
      </trkpt>
      <trkpt lat="43.4826" lon="5.44962">
        <ele>330.26675751244</ele>
        <time>2018-01-24T10:14:59Z</time>
      </trkpt>
      <trkpt lat="43.48258" lon="5.44973">
        <ele>330.48428758765</ele>
        <time>2018-01-24T10:15:07Z</time>
      </trkpt>
      <trkpt lat="43.48256" lon="5.44984">
        <ele>330.66452781328</ele>
        <time>2018-01-24T10:15:14Z</time>
      </trkpt>
      <trkpt lat="43.48254" lon="5.44995">
        <ele>330.8579431081</ele>
        <time>2018-01-24T10:15:22Z</time>
      </trkpt>
      <trkpt lat="43.48251" lon="5.45005">
        <ele>331.11561753015</ele>
        <time>2018-01-24T10:15:33Z</time>
      </trkpt>
      <trkpt lat="43.48249" lon="5.45017">
        <ele>331.3300335561</ele>
        <time>2018-01-24T10:15:42Z</time>
      </trkpt>
      <trkpt lat="43.48248" lon="5.45028">
        <ele>331.47396938331</ele>
        <time>2018-01-24T10:15:48Z</time>
      </trkpt>
      <trkpt lat="43.48245" lon="5.45039">
        <ele>331.64229616866</ele>
        <time>2018-01-24T10:15:55Z</time>
      </trkpt>
      <trkpt lat="43.48243" lon="5.45049">
        <ele>331.81482441209</ele>
        <time>2018-01-24T10:16:02Z</time>
      </trkpt>
      <trkpt lat="43.48241" lon="5.4506">
        <ele>332.0156089715</ele>
        <time>2018-01-24T10:16:10Z</time>
      </trkpt>
      <trkpt lat="43.48239" lon="5.45071">
        <ele>332.24036559756</ele>
        <time>2018-01-24T10:16:19Z</time>
      </trkpt>
      <trkpt lat="43.48237" lon="5.45083">
        <ele>332.43230393365</ele>
        <time>2018-01-24T10:16:27Z</time>
      </trkpt>
      <trkpt lat="43.48237" lon="5.45095">
        <ele>332.67766379343</ele>
        <time>2018-01-24T10:16:37Z</time>
      </trkpt>
      <trkpt lat="43.48235" lon="5.45107">
        <ele>332.87602998304</ele>
        <time>2018-01-24T10:16:45Z</time>
      </trkpt>
      <trkpt lat="43.48232" lon="5.45116">
        <ele>332.99964329108</ele>
        <time>2018-01-24T10:16:50Z</time>
      </trkpt>
      <trkpt lat="43.48229" lon="5.45128">
        <ele>333.194346416</ele>
        <time>2018-01-24T10:16:58Z</time>
      </trkpt>
      <trkpt lat="43.48228" lon="5.45138">
        <ele>333.38855109962</ele>
        <time>2018-01-24T10:17:06Z</time>
      </trkpt>
      <trkpt lat="43.48226" lon="5.4515">
        <ele>333.5539168283</ele>
        <time>2018-01-24T10:17:13Z</time>
      </trkpt>
      <trkpt lat="43.48225" lon="5.45159">
        <ele>333.71995968134</ele>
        <time>2018-01-24T10:17:20Z</time>
      </trkpt>
      <trkpt lat="43.48223" lon="5.45171">
        <ele>333.83666124777</ele>
        <time>2018-01-24T10:17:25Z</time>
      </trkpt>
      <trkpt lat="43.48223" lon="5.45183">
        <ele>333.96926785472</ele>
        <time>2018-01-24T10:17:31Z</time>
      </trkpt>
      <trkpt lat="43.48221" lon="5.45194">
        <ele>334.21306814977</ele>
        <time>2018-01-24T10:17:43Z</time>
      </trkpt>
      <trkpt lat="43.48218" lon="5.45204">
        <ele>334.32049606643</ele>
        <time>2018-01-24T10:17:48Z</time>
      </trkpt>
      <trkpt lat="43.48214" lon="5.45214">
        <ele>334.46268555525</ele>
        <time>2018-01-24T10:17:55Z</time>
      </trkpt>
      <trkpt lat="43.4821" lon="5.45225">
        <ele>334.68128080922</ele>
        <time>2018-01-24T10:18:06Z</time>
      </trkpt>
      <trkpt lat="43.48205" lon="5.45235">
        <ele>334.84948265346</ele>
        <time>2018-01-24T10:18:14Z</time>
      </trkpt>
      <trkpt lat="43.48198" lon="5.45242">
        <ele>335.04041973041</ele>
        <time>2018-01-24T10:18:22Z</time>
      </trkpt>
      <trkpt lat="43.48193" lon="5.45251">
        <ele>335.18389488396</ele>
        <time>2018-01-24T10:18:28Z</time>
      </trkpt>
      <trkpt lat="43.48186" lon="5.45259">
        <ele>335.38659328167</ele>
        <time>2018-01-24T10:18:37Z</time>
      </trkpt>
      <trkpt lat="43.48178" lon="5.45265">
        <ele>335.5417637096</ele>
        <time>2018-01-24T10:18:43Z</time>
      </trkpt>
      <trkpt lat="43.48171" lon="5.4527">
        <ele>335.86957493669</ele>
        <time>2018-01-24T10:18:54Z</time>
      </trkpt>
      <trkpt lat="43.48165" lon="5.45279">
        <ele>336.1201127598</ele>
        <time>2018-01-24T10:19:02Z</time>
      </trkpt>
      <trkpt lat="43.48158" lon="5.45286">
        <ele>336.31094029502</ele>
        <time>2018-01-24T10:19:08Z</time>
      </trkpt>
      <trkpt lat="43.4815" lon="5.45293">
        <ele>336.63713571422</ele>
        <time>2018-01-24T10:19:18Z</time>
      </trkpt>
      <trkpt lat="43.48143" lon="5.453">
        <ele>336.91652509107</ele>
        <time>2018-01-24T10:19:26Z</time>
      </trkpt>
      <trkpt lat="43.48135" lon="5.45304">
        <ele>337.2138358762</ele>
        <time>2018-01-24T10:19:35Z</time>
      </trkpt>
      <trkpt lat="43.48127" lon="5.45305">
        <ele>337.61589727142</ele>
        <time>2018-01-24T10:19:48Z</time>
      </trkpt>
      <trkpt lat="43.48119" lon="5.45307">
        <ele>337.82334349169</ele>
        <time>2018-01-24T10:19:54Z</time>
      </trkpt>
      <trkpt lat="43.4811" lon="5.45308">
        <ele>338.08516310356</ele>
        <time>2018-01-24T10:20:02Z</time>
      </trkpt>
      <trkpt lat="43.48102" lon="5.45305">
        <ele>338.38525531899</ele>
        <time>2018-01-24T10:20:12Z</time>
      </trkpt>
      <trkpt lat="43.48094" lon="5.453">
        <ele>339.01051853769</ele>
        <time>2018-01-24T10:21:13Z</time>
      </trkpt>
      <trkpt lat="43.48085" lon="5.45298">
        <ele>340.42808111748</ele>
        <time>2018-01-24T10:24:21Z</time>
      </trkpt>
      <trkpt lat="43.48077" lon="5.45296">
        <ele>340.78166343348</ele>
        <time>2018-01-24T10:24:33Z</time>
      </trkpt>
      <trkpt lat="43.48069" lon="5.45292">
        <ele>340.98414389833</ele>
        <time>2018-01-24T10:24:41Z</time>
      </trkpt>
      <trkpt lat="43.48061" lon="5.45286">
        <ele>341.16369334354</ele>
        <time>2018-01-24T10:24:49Z</time>
      </trkpt>
      <trkpt lat="43.48052" lon="5.45284">
        <ele>341.34249395439</ele>
        <time>2018-01-24T10:24:58Z</time>
      </trkpt>
      <trkpt lat="43.48044" lon="5.45281">
        <ele>341.49170771201</ele>
        <time>2018-01-24T10:25:07Z</time>
      </trkpt>
      <trkpt lat="43.48036" lon="5.45277">
        <ele>341.59929699174</ele>
        <time>2018-01-24T10:25:15Z</time>
      </trkpt>
      <trkpt lat="43.48028" lon="5.45273">
        <ele>341.70827794582</ele>
        <time>2018-01-24T10:25:24Z</time>
      </trkpt>
      <trkpt lat="43.48021" lon="5.45267">
        <ele>341.79399032028</ele>
        <time>2018-01-24T10:25:32Z</time>
      </trkpt>
      <trkpt lat="43.48014" lon="5.4526">
        <ele>341.91608025973</ele>
        <time>2018-01-24T10:25:43Z</time>
      </trkpt>
      <trkpt lat="43.48007" lon="5.45255">
        <ele>341.99878186081</ele>
        <time>2018-01-24T10:25:51Z</time>
      </trkpt>
      <trkpt lat="43.48001" lon="5.45247">
        <ele>342.06909930826</ele>
        <time>2018-01-24T10:25:59Z</time>
      </trkpt>
      <trkpt lat="43.47994" lon="5.45238">
        <ele>342.13482945357</ele>
        <time>2018-01-24T10:26:07Z</time>
      </trkpt>
      <trkpt lat="43.47988" lon="5.45231">
        <ele>342.19873817643</ele>
        <time>2018-01-24T10:26:13Z</time>
      </trkpt>
      <trkpt lat="43.47981" lon="5.45226">
        <ele>342.30472111892</ele>
        <time>2018-01-24T10:26:20Z</time>
      </trkpt>
      <trkpt lat="43.47973" lon="5.45221">
        <ele>342.48239394936</ele>
        <time>2018-01-24T10:26:28Z</time>
      </trkpt>
      <trkpt lat="43.47966" lon="5.45213">
        <ele>342.61926305178</ele>
        <time>2018-01-24T10:26:34Z</time>
      </trkpt>
      <trkpt lat="43.4796" lon="5.45205">
        <ele>342.80740702349</ele>
        <time>2018-01-24T10:26:44Z</time>
      </trkpt>
      <trkpt lat="43.47953" lon="5.45198">
        <ele>342.95615625526</ele>
        <time>2018-01-24T10:26:53Z</time>
      </trkpt>
      <trkpt lat="43.47948" lon="5.45188">
        <ele>343.09174022806</ele>
        <time>2018-01-24T10:27:02Z</time>
      </trkpt>
      <trkpt lat="43.47942" lon="5.4518">
        <ele>343.24461108705</ele>
        <time>2018-01-24T10:27:10Z</time>
      </trkpt>
      <trkpt lat="43.47935" lon="5.45175">
        <ele>343.41187454853</ele>
        <time>2018-01-24T10:27:18Z</time>
      </trkpt>
      <trkpt lat="43.47928" lon="5.4517">
        <ele>343.63058923572</ele>
        <time>2018-01-24T10:27:29Z</time>
      </trkpt>
      <trkpt lat="43.47922" lon="5.45162">
        <ele>343.70799807854</ele>
        <time>2018-01-24T10:27:33Z</time>
      </trkpt>
      <trkpt lat="43.47915" lon="5.45155">
        <ele>343.89402703698</ele>
        <time>2018-01-24T10:27:42Z</time>
      </trkpt>
      <trkpt lat="43.47909" lon="5.45146">
        <ele>344.11862465372</ele>
        <time>2018-01-24T10:27:52Z</time>
      </trkpt>
      <trkpt lat="43.47902" lon="5.45139">
        <ele>344.42752994443</ele>
        <time>2018-01-24T10:28:04Z</time>
      </trkpt>
      <trkpt lat="43.47897" lon="5.45132">
        <ele>344.60660525219</ele>
        <time>2018-01-24T10:28:12Z</time>
      </trkpt>
      <trkpt lat="43.4789" lon="5.45124">
        <ele>344.72983176746</ele>
        <time>2018-01-24T10:28:18Z</time>
      </trkpt>
      <trkpt lat="43.47883" lon="5.45119">
        <ele>344.89059763123</ele>
        <time>2018-01-24T10:28:26Z</time>
      </trkpt>
      <trkpt lat="43.47878" lon="5.45109">
        <ele>345.00839591292</ele>
        <time>2018-01-24T10:28:33Z</time>
      </trkpt>
      <trkpt lat="43.47871" lon="5.45102">
        <ele>345.11588934598</ele>
        <time>2018-01-24T10:28:42Z</time>
      </trkpt>
      <trkpt lat="43.47864" lon="5.45096">
        <ele>345.20824043767</ele>
        <time>2018-01-24T10:28:50Z</time>
      </trkpt>
      <trkpt lat="43.47858" lon="5.45088">
        <ele>345.29386748176</ele>
        <time>2018-01-24T10:28:59Z</time>
      </trkpt>
      <trkpt lat="43.47851" lon="5.45081">
        <ele>345.35200694853</ele>
        <time>2018-01-24T10:29:07Z</time>
      </trkpt>
      <trkpt lat="43.47844" lon="5.45075">
        <ele>345.41187038239</ele>
        <time>2018-01-24T10:29:16Z</time>
      </trkpt>
      <trkpt lat="43.47838" lon="5.45067">
        <ele>345.45191074162</ele>
        <time>2018-01-24T10:29:24Z</time>
      </trkpt>
      <trkpt lat="43.47839" lon="5.45055">
        <ele>345.44380643577</ele>
        <time>2018-01-24T10:29:37Z</time>
      </trkpt>
      <trkpt lat="43.47833" lon="5.45046">
        <ele>345.38973471253</ele>
        <time>2018-01-24T10:29:49Z</time>
      </trkpt>
      <trkpt lat="43.47829" lon="5.45036">
        <ele>345.35509364713</ele>
        <time>2018-01-24T10:29:59Z</time>
      </trkpt>
      <trkpt lat="43.47824" lon="5.45026">
        <ele>345.32809173007</ele>
        <time>2018-01-24T10:30:08Z</time>
      </trkpt>
      <trkpt lat="43.47816" lon="5.4502">
        <ele>345.2989028038</ele>
        <time>2018-01-24T10:30:20Z</time>
      </trkpt>
      <trkpt lat="43.4781" lon="5.45013">
        <ele>345.27503829081</ele>
        <time>2018-01-24T10:30:28Z</time>
      </trkpt>
      <trkpt lat="43.47802" lon="5.4501">
        <ele>345.24298110366</ele>
        <time>2018-01-24T10:30:37Z</time>
      </trkpt>
      <trkpt lat="43.47801" lon="5.45019">
        <ele>345.13024779166</ele>
        <time>2018-01-24T10:30:48Z</time>
      </trkpt>
      <trkpt lat="43.47801" lon="5.45031">
        <ele>344.98461537351</ele>
        <time>2018-01-24T10:30:54Z</time>
      </trkpt>
      <trkpt lat="43.47793" lon="5.45034">
        <ele>344.59030273551</ele>
        <time>2018-01-24T10:31:13Z</time>
      </trkpt>
      <trkpt lat="43.47784" lon="5.45031">
        <ele>344.28988841003</ele>
        <time>2018-01-24T10:31:24Z</time>
      </trkpt>
      <trkpt lat="43.47776" lon="5.45035">
        <ele>344.04215596763</ele>
        <time>2018-01-24T10:31:34Z</time>
      </trkpt>
      <trkpt lat="43.47768" lon="5.45041">
        <ele>343.80814446719</ele>
        <time>2018-01-24T10:31:44Z</time>
      </trkpt>
      <trkpt lat="43.4776" lon="5.45046">
        <ele>343.61930439649</ele>
        <time>2018-01-24T10:31:53Z</time>
      </trkpt>
      <trkpt lat="43.47754" lon="5.45053">
        <ele>343.47390987139</ele>
        <time>2018-01-24T10:31:59Z</time>
      </trkpt>
      <trkpt lat="43.47748" lon="5.45062">
        <ele>343.18062910428</ele>
        <time>2018-01-24T10:32:09Z</time>
      </trkpt>
      <trkpt lat="43.47744" lon="5.45071">
        <ele>342.89217695293</ele>
        <time>2018-01-24T10:32:17Z</time>
      </trkpt>
      <trkpt lat="43.47739" lon="5.45079">
        <ele>342.53811710841</ele>
        <time>2018-01-24T10:32:27Z</time>
      </trkpt>
      <trkpt lat="43.47736" lon="5.4509">
        <ele>342.37500501669</ele>
        <time>2018-01-24T10:32:31Z</time>
      </trkpt>
      <trkpt lat="43.47728" lon="5.45094">
        <ele>342.11728562373</ele>
        <time>2018-01-24T10:32:37Z</time>
      </trkpt>
      <trkpt lat="43.47725" lon="5.45104">
        <ele>341.61372440041</ele>
        <time>2018-01-24T10:32:50Z</time>
      </trkpt>
      <trkpt lat="43.47719" lon="5.45113">
        <ele>341.21555642041</ele>
        <time>2018-01-24T10:33:00Z</time>
      </trkpt>
      <trkpt lat="43.47713" lon="5.4512">
        <ele>340.9454238998</ele>
        <time>2018-01-24T10:33:07Z</time>
      </trkpt>
      <trkpt lat="43.47705" lon="5.45126">
        <ele>340.67843483645</ele>
        <time>2018-01-24T10:33:14Z</time>
      </trkpt>
      <trkpt lat="43.477" lon="5.45135">
        <ele>340.40852043977</ele>
        <time>2018-01-24T10:33:21Z</time>
      </trkpt>
      <trkpt lat="43.47696" lon="5.45145">
        <ele>340.17853507339</ele>
        <time>2018-01-24T10:33:27Z</time>
      </trkpt>
      <trkpt lat="43.47689" lon="5.45152">
        <ele>339.88414658569</ele>
        <time>2018-01-24T10:33:35Z</time>
      </trkpt>
      <trkpt lat="43.47683" lon="5.4516">
        <ele>339.59062934762</ele>
        <time>2018-01-24T10:33:43Z</time>
      </trkpt>
      <trkpt lat="43.47677" lon="5.45169">
        <ele>339.13646057199</ele>
        <time>2018-01-24T10:33:56Z</time>
      </trkpt>
      <trkpt lat="43.47671" lon="5.45175">
        <ele>338.90216096302</ele>
        <time>2018-01-24T10:34:03Z</time>
      </trkpt>
      <trkpt lat="43.47663" lon="5.45181">
        <ele>338.61073757131</ele>
        <time>2018-01-24T10:34:11Z</time>
      </trkpt>
      <trkpt lat="43.47656" lon="5.45186">
        <ele>338.36659850192</ele>
        <time>2018-01-24T10:34:18Z</time>
      </trkpt>
      <trkpt lat="43.47651" lon="5.45195">
        <ele>337.96543104883</ele>
        <time>2018-01-24T10:34:28Z</time>
      </trkpt>
      <trkpt lat="43.47644" lon="5.452">
        <ele>337.52822736951</ele>
        <time>2018-01-24T10:34:38Z</time>
      </trkpt>
      <trkpt lat="43.47636" lon="5.45195">
        <ele>337.16906709595</ele>
        <time>2018-01-24T10:34:46Z</time>
      </trkpt>
      <trkpt lat="43.4763" lon="5.45187">
        <ele>336.79695284883</ele>
        <time>2018-01-24T10:34:55Z</time>
      </trkpt>
      <trkpt lat="43.47627" lon="5.45176">
        <ele>336.46754441937</ele>
        <time>2018-01-24T10:35:04Z</time>
      </trkpt>
      <trkpt lat="43.47621" lon="5.45166">
        <ele>336.14160081105</ele>
        <time>2018-01-24T10:35:14Z</time>
      </trkpt>
      <trkpt lat="43.47616" lon="5.45158">
        <ele>335.85353490026</ele>
        <time>2018-01-24T10:35:23Z</time>
      </trkpt>
      <trkpt lat="43.47612" lon="5.45148">
        <ele>335.54644681947</ele>
        <time>2018-01-24T10:35:33Z</time>
      </trkpt>
      <trkpt lat="43.47603" lon="5.45149">
        <ele>334.91467598492</ele>
        <time>2018-01-24T10:35:57Z</time>
      </trkpt>
      <trkpt lat="43.47598" lon="5.45155">
        <ele>334.82189315406</ele>
        <time>2018-01-24T10:36:01Z</time>
      </trkpt>
      <trkpt lat="43.4759" lon="5.4516">
        <ele>334.73296515264</ele>
        <time>2018-01-24T10:36:05Z</time>
      </trkpt>
      <trkpt lat="43.47581" lon="5.4516">
        <ele>334.50501554495</ele>
        <time>2018-01-24T10:36:16Z</time>
      </trkpt>
      <trkpt lat="43.47574" lon="5.45154">
        <ele>334.32326412202</ele>
        <time>2018-01-24T10:36:26Z</time>
      </trkpt>
      <trkpt lat="43.47569" lon="5.45144">
        <ele>334.10370966813</ele>
        <time>2018-01-24T10:36:44Z</time>
      </trkpt>
      <trkpt lat="43.47567" lon="5.45133">
        <ele>333.95820663841</ele>
        <time>2018-01-24T10:36:53Z</time>
      </trkpt>
      <trkpt lat="43.47562" lon="5.45123">
        <ele>333.73864158879</ele>
        <time>2018-01-24T10:37:07Z</time>
      </trkpt>
      <trkpt lat="43.4756" lon="5.45112">
        <ele>333.60646954309</ele>
        <time>2018-01-24T10:37:22Z</time>
      </trkpt>
      <trkpt lat="43.47556" lon="5.45101">
        <ele>333.55646237559</ele>
        <time>2018-01-24T10:37:27Z</time>
      </trkpt>
      <trkpt lat="43.47555" lon="5.45089">
        <ele>333.32353512606</ele>
        <time>2018-01-24T10:38:37Z</time>
      </trkpt>
      <trkpt lat="43.47553" lon="5.45077">
        <ele>333.14082118538</ele>
        <time>2018-01-24T10:39:07Z</time>
      </trkpt>
      <trkpt lat="43.47559" lon="5.45068">
        <ele>332.97350437363</ele>
        <time>2018-01-24T10:39:42Z</time>
      </trkpt>
      <trkpt lat="43.47568" lon="5.4507">
        <ele>332.92695388112</ele>
        <time>2018-01-24T10:39:48Z</time>
      </trkpt>
      <trkpt lat="43.47576" lon="5.45068">
        <ele>332.82507030383</ele>
        <time>2018-01-24T10:39:58Z</time>
      </trkpt>
      <trkpt lat="43.47584" lon="5.4507">
        <ele>332.76393866314</ele>
        <time>2018-01-24T10:40:05Z</time>
      </trkpt>
      <trkpt lat="43.47593" lon="5.45072">
        <ele>332.69696660804</ele>
        <time>2018-01-24T10:40:12Z</time>
      </trkpt>
      <trkpt lat="43.47596" lon="5.45061">
        <ele>332.58700081994</ele>
        <time>2018-01-24T10:40:23Z</time>
      </trkpt>
      <trkpt lat="43.47593" lon="5.45049">
        <ele>332.47695536514</ele>
        <time>2018-01-24T10:40:34Z</time>
      </trkpt>
      <trkpt lat="43.47592" lon="5.45038">
        <ele>332.42932181329</ele>
        <time>2018-01-24T10:40:39Z</time>
      </trkpt>
      <trkpt lat="43.47593" lon="5.45027">
        <ele>332.36306145181</ele>
        <time>2018-01-24T10:40:46Z</time>
      </trkpt>
      <trkpt lat="43.47591" lon="5.45015">
        <ele>332.30890178233</ele>
        <time>2018-01-24T10:40:52Z</time>
      </trkpt>
      <trkpt lat="43.47589" lon="5.45004">
        <ele>332.24788867272</ele>
        <time>2018-01-24T10:40:59Z</time>
      </trkpt>
      <trkpt lat="43.47585" lon="5.44993">
        <ele>332.15307449142</ele>
        <time>2018-01-24T10:41:11Z</time>
      </trkpt>
      <trkpt lat="43.47584" lon="5.44982">
        <ele>332.07158307202</ele>
        <time>2018-01-24T10:41:21Z</time>
      </trkpt>
      <trkpt lat="43.47584" lon="5.4497">
        <ele>332.00683361355</ele>
        <time>2018-01-24T10:41:29Z</time>
      </trkpt>
      <trkpt lat="43.47581" lon="5.44958">
        <ele>331.95059228219</ele>
        <time>2018-01-24T10:41:37Z</time>
      </trkpt>
      <trkpt lat="43.47579" lon="5.44947">
        <ele>331.90533266417</ele>
        <time>2018-01-24T10:41:44Z</time>
      </trkpt>
      <trkpt lat="43.47575" lon="5.44936">
        <ele>331.83233721213</ele>
        <time>2018-01-24T10:41:55Z</time>
      </trkpt>
      <trkpt lat="43.47572" lon="5.44924">
        <ele>331.77153193405</ele>
        <time>2018-01-24T10:42:04Z</time>
      </trkpt>
      <trkpt lat="43.4757" lon="5.44913">
        <ele>331.70786873627</ele>
        <time>2018-01-24T10:42:13Z</time>
      </trkpt>
      <trkpt lat="43.47568" lon="5.44902">
        <ele>331.66479591941</ele>
        <time>2018-01-24T10:42:19Z</time>
      </trkpt>
      <trkpt lat="43.47566" lon="5.44891">
        <ele>331.61499713416</ele>
        <time>2018-01-24T10:42:26Z</time>
      </trkpt>
      <trkpt lat="43.47565" lon="5.44879">
        <ele>331.55624628761</ele>
        <time>2018-01-24T10:42:34Z</time>
      </trkpt>
      <trkpt lat="43.47562" lon="5.44868">
        <ele>331.48522757785</ele>
        <time>2018-01-24T10:42:44Z</time>
      </trkpt>
      <trkpt lat="43.47558" lon="5.44858">
        <ele>331.40585876664</ele>
        <time>2018-01-24T10:42:55Z</time>
      </trkpt>
      <trkpt lat="43.47554" lon="5.44849">
        <ele>331.35521243303</ele>
        <time>2018-01-24T10:43:02Z</time>
      </trkpt>
      <trkpt lat="43.47553" lon="5.44837">
        <ele>331.28239413838</ele>
        <time>2018-01-24T10:43:12Z</time>
      </trkpt>
      <trkpt lat="43.47552" lon="5.44827">
        <ele>331.21993836742</ele>
        <time>2018-01-24T10:43:20Z</time>
      </trkpt>
      <trkpt lat="43.47548" lon="5.44816">
        <ele>331.15891834332</ele>
        <time>2018-01-24T10:43:27Z</time>
      </trkpt>
      <trkpt lat="43.47543" lon="5.44806">
        <ele>331.08455356356</ele>
        <time>2018-01-24T10:43:35Z</time>
      </trkpt>
      <trkpt lat="43.47537" lon="5.44798">
        <ele>331.00788150963</ele>
        <time>2018-01-24T10:43:43Z</time>
      </trkpt>
      <trkpt lat="43.47535" lon="5.44787">
        <ele>330.91512908129</ele>
        <time>2018-01-24T10:43:52Z</time>
      </trkpt>
      <trkpt lat="43.47538" lon="5.44776">
        <ele>330.83539518794</ele>
        <time>2018-01-24T10:43:59Z</time>
      </trkpt>
      <trkpt lat="43.4754" lon="5.44765">
        <ele>330.73372183664</ele>
        <time>2018-01-24T10:44:06Z</time>
      </trkpt>
      <trkpt lat="43.47539" lon="5.44754">
        <ele>330.53073261819</ele>
        <time>2018-01-24T10:44:14Z</time>
      </trkpt>
      <trkpt lat="43.47538" lon="5.44743">
        <ele>330.27503931461</ele>
        <time>2018-01-24T10:44:22Z</time>
      </trkpt>
      <trkpt lat="43.47537" lon="5.44732">
        <ele>330.02094591324</ele>
        <time>2018-01-24T10:44:29Z</time>
      </trkpt>
      <trkpt lat="43.47533" lon="5.44721">
        <ele>329.6777034307</ele>
        <time>2018-01-24T10:44:38Z</time>
      </trkpt>
      <trkpt lat="43.47528" lon="5.44711">
        <ele>329.36970137539</ele>
        <time>2018-01-24T10:44:46Z</time>
      </trkpt>
      <trkpt lat="43.47522" lon="5.44703">
        <ele>328.9761697253</ele>
        <time>2018-01-24T10:44:56Z</time>
      </trkpt>
      <trkpt lat="43.47515" lon="5.44697">
        <ele>328.57695609901</ele>
        <time>2018-01-24T10:45:07Z</time>
      </trkpt>
      <trkpt lat="43.47512" lon="5.44686">
        <ele>328.2675198898</ele>
        <time>2018-01-24T10:45:17Z</time>
      </trkpt>
      <trkpt lat="43.4751" lon="5.44674">
        <ele>327.99821324125</ele>
        <time>2018-01-24T10:45:27Z</time>
      </trkpt>
      <trkpt lat="43.47507" lon="5.44664">
        <ele>327.75450380762</ele>
        <time>2018-01-24T10:45:37Z</time>
      </trkpt>
      <trkpt lat="43.47504" lon="5.44653">
        <ele>327.51467712586</ele>
        <time>2018-01-24T10:45:48Z</time>
      </trkpt>
      <trkpt lat="43.47497" lon="5.44646">
        <ele>327.27056160704</ele>
        <time>2018-01-24T10:46:00Z</time>
      </trkpt>
      <trkpt lat="43.47491" lon="5.44639">
        <ele>327.09403943015</ele>
        <time>2018-01-24T10:46:09Z</time>
      </trkpt>
      <trkpt lat="43.47484" lon="5.44631">
        <ele>326.93129912753</ele>
        <time>2018-01-24T10:46:18Z</time>
      </trkpt>
      <trkpt lat="43.47477" lon="5.44626">
        <ele>326.81139713171</ele>
        <time>2018-01-24T10:46:26Z</time>
      </trkpt>
      <trkpt lat="43.4747" lon="5.4462">
        <ele>326.68487625307</ele>
        <time>2018-01-24T10:46:34Z</time>
      </trkpt>
      <trkpt lat="43.47462" lon="5.44619">
        <ele>326.58538212103</ele>
        <time>2018-01-24T10:46:41Z</time>
      </trkpt>
      <trkpt lat="43.47457" lon="5.44628">
        <ele>326.48954535564</ele>
        <time>2018-01-24T10:46:48Z</time>
      </trkpt>
      <trkpt lat="43.47452" lon="5.44638">
        <ele>326.41631284328</ele>
        <time>2018-01-24T10:46:53Z</time>
      </trkpt>
      <trkpt lat="43.47445" lon="5.44645">
        <ele>326.30039754643</ele>
        <time>2018-01-24T10:47:00Z</time>
      </trkpt>
      <trkpt lat="43.47437" lon="5.44648">
        <ele>326.04299782072</ele>
        <time>2018-01-24T10:47:13Z</time>
      </trkpt>
      <trkpt lat="43.47429" lon="5.44643">
        <ele>325.63457891433</ele>
        <time>2018-01-24T10:47:38Z</time>
      </trkpt>
      <trkpt lat="43.47423" lon="5.44635">
        <ele>325.37686208049</ele>
        <time>2018-01-24T10:47:46Z</time>
      </trkpt>
      <trkpt lat="43.47415" lon="5.44628">
        <ele>325.10103775288</ele>
        <time>2018-01-24T10:47:55Z</time>
      </trkpt>
      <trkpt lat="43.47408" lon="5.44621">
        <ele>324.86277990909</ele>
        <time>2018-01-24T10:48:03Z</time>
      </trkpt>
      <trkpt lat="43.474" lon="5.44627">
        <ele>324.30720821183</ele>
        <time>2018-01-24T10:48:38Z</time>
      </trkpt>
      <trkpt lat="43.47393" lon="5.44633">
        <ele>323.13540544231</ele>
        <time>2018-01-24T10:49:34Z</time>
      </trkpt>
      <trkpt lat="43.4739" lon="5.44645">
        <ele>322.94571207241</ele>
        <time>2018-01-24T10:49:40Z</time>
      </trkpt>
      <trkpt lat="43.47391" lon="5.44633">
        <ele>321.73097403963</ele>
        <time>2018-01-24T10:50:28Z</time>
      </trkpt>
      <trkpt lat="43.47383" lon="5.44627">
        <ele>321.03231511111</ele>
        <time>2018-01-24T10:50:45Z</time>
      </trkpt>
      <trkpt lat="43.47377" lon="5.44618">
        <ele>320.63330856462</ele>
        <time>2018-01-24T10:50:53Z</time>
      </trkpt>
      <trkpt lat="43.47376" lon="5.44606">
        <ele>320.06376310853</ele>
        <time>2018-01-24T10:51:06Z</time>
      </trkpt>
      <trkpt lat="43.47373" lon="5.44595">
        <ele>319.63657565418</ele>
        <time>2018-01-24T10:51:17Z</time>
      </trkpt>
      <trkpt lat="43.47366" lon="5.44589">
        <ele>319.22814314254</ele>
        <time>2018-01-24T10:51:33Z</time>
      </trkpt>
      <trkpt lat="43.47365" lon="5.44577">
        <ele>318.85772617629</ele>
        <time>2018-01-24T10:51:44Z</time>
      </trkpt>
      <trkpt lat="43.4736" lon="5.44567">
        <ele>318.56975011183</ele>
        <time>2018-01-24T10:51:54Z</time>
      </trkpt>
      <trkpt lat="43.47354" lon="5.4456">
        <ele>318.17099798194</ele>
        <time>2018-01-24T10:52:08Z</time>
      </trkpt>
      <trkpt lat="43.47348" lon="5.44552">
        <ele>317.88048219917</ele>
        <time>2018-01-24T10:52:18Z</time>
      </trkpt>
      <trkpt lat="43.47342" lon="5.44543">
        <ele>317.41766488806</ele>
        <time>2018-01-24T10:52:35Z</time>
      </trkpt>
      <trkpt lat="43.47337" lon="5.44533">
        <ele>317.03864744252</ele>
        <time>2018-01-24T10:52:52Z</time>
      </trkpt>
      <trkpt lat="43.47339" lon="5.44522">
        <ele>316.6636454942</ele>
        <time>2018-01-24T10:53:04Z</time>
      </trkpt>
      <trkpt lat="43.47339" lon="5.4451">
        <ele>316.19203803005</ele>
        <time>2018-01-24T10:53:19Z</time>
      </trkpt>
      <trkpt lat="43.47336" lon="5.44498">
        <ele>315.87045016423</ele>
        <time>2018-01-24T10:53:28Z</time>
      </trkpt>
      <trkpt lat="43.47332" lon="5.44488">
        <ele>315.61207816378</ele>
        <time>2018-01-24T10:53:35Z</time>
      </trkpt>
      <trkpt lat="43.47326" lon="5.4448">
        <ele>315.25668155372</ele>
        <time>2018-01-24T10:53:44Z</time>
      </trkpt>
      <trkpt lat="43.47321" lon="5.44471">
        <ele>314.89492650813</ele>
        <time>2018-01-24T10:53:53Z</time>
      </trkpt>
      <trkpt lat="43.47316" lon="5.4446">
        <ele>314.23367822653</ele>
        <time>2018-01-24T10:54:13Z</time>
      </trkpt>
      <trkpt lat="43.4731" lon="5.44452">
        <ele>313.69208783209</ele>
        <time>2018-01-24T10:54:31Z</time>
      </trkpt>
      <trkpt lat="43.47305" lon="5.44442">
        <ele>313.19085241949</ele>
        <time>2018-01-24T10:54:41Z</time>
      </trkpt>
      <trkpt lat="43.47298" lon="5.44435">
        <ele>312.64008077375</ele>
        <time>2018-01-24T10:54:51Z</time>
      </trkpt>
      <trkpt lat="43.4729" lon="5.44429">
        <ele>312.05457189058</ele>
        <time>2018-01-24T10:55:01Z</time>
      </trkpt>
      <trkpt lat="43.47284" lon="5.44421">
        <ele>311.23831205304</ele>
        <time>2018-01-24T10:55:15Z</time>
      </trkpt>
      <trkpt lat="43.47276" lon="5.44418">
        <ele>308.27517535543</ele>
        <time>2018-01-24T10:56:16Z</time>
      </trkpt>
      <trkpt lat="43.47272" lon="5.44408">
        <ele>307.64687927439</ele>
        <time>2018-01-24T10:56:24Z</time>
      </trkpt>
      <trkpt lat="43.4727" lon="5.44396">
        <ele>306.41602219619</ele>
        <time>2018-01-24T10:56:59Z</time>
      </trkpt>
      <trkpt lat="43.47268" lon="5.44384">
        <ele>304.54669031422</ele>
        <time>2018-01-24T10:57:41Z</time>
      </trkpt>
      <trkpt lat="43.4727" lon="5.44372">
        <ele>303.62980788153</ele>
        <time>2018-01-24T10:57:51Z</time>
      </trkpt>
      <trkpt lat="43.47273" lon="5.44361">
        <ele>302.06376526683</ele>
        <time>2018-01-24T10:58:08Z</time>
      </trkpt>
      <trkpt lat="43.47278" lon="5.44351">
        <ele>300.79940683453</ele>
        <time>2018-01-24T10:58:23Z</time>
      </trkpt>
      <trkpt lat="43.47281" lon="5.4434">
        <ele>298.97227395075</ele>
        <time>2018-01-24T10:58:42Z</time>
      </trkpt>
      <trkpt lat="43.47289" lon="5.44336">
        <ele>297.84368793565</ele>
        <time>2018-01-24T10:58:55Z</time>
      </trkpt>
      <trkpt lat="43.47298" lon="5.44334">
        <ele>296.70206072274</ele>
        <time>2018-01-24T10:59:09Z</time>
      </trkpt>
      <trkpt lat="43.47303" lon="5.44326">
        <ele>295.68172952751</ele>
        <time>2018-01-24T10:59:19Z</time>
      </trkpt>
      <trkpt lat="43.47308" lon="5.44315">
        <ele>294.3109602709</ele>
        <time>2018-01-24T10:59:33Z</time>
      </trkpt>
      <trkpt lat="43.47313" lon="5.44307">
        <ele>293.31214735052</ele>
        <time>2018-01-24T10:59:44Z</time>
      </trkpt>
      <trkpt lat="43.47321" lon="5.44305">
        <ele>292.70485119733</ele>
        <time>2018-01-24T10:59:51Z</time>
      </trkpt>
      <trkpt lat="43.47328" lon="5.44299">
        <ele>291.74999240624</ele>
        <time>2018-01-24T11:00:02Z</time>
      </trkpt>
      <trkpt lat="43.47335" lon="5.44291">
        <ele>290.82029095104</ele>
        <time>2018-01-24T11:00:12Z</time>
      </trkpt>
      <trkpt lat="43.4734" lon="5.44283">
        <ele>289.80893186261</ele>
        <time>2018-01-24T11:00:22Z</time>
      </trkpt>
      <trkpt lat="43.47347" lon="5.44275">
        <ele>288.95861174828</ele>
        <time>2018-01-24T11:00:30Z</time>
      </trkpt>
      <trkpt lat="43.47342" lon="5.44265">
        <ele>287.64096400341</ele>
        <time>2018-01-24T11:00:43Z</time>
      </trkpt>
      <trkpt lat="43.47335" lon="5.44258">
        <ele>286.66863875215</ele>
        <time>2018-01-24T11:00:52Z</time>
      </trkpt>
      <trkpt lat="43.47326" lon="5.44255">
        <ele>285.51613580004</ele>
        <time>2018-01-24T11:01:04Z</time>
      </trkpt>
      <trkpt lat="43.47318" lon="5.44252">
        <ele>285.00973753169</ele>
        <time>2018-01-24T11:01:09Z</time>
      </trkpt>
      <trkpt lat="43.47312" lon="5.44243">
        <ele>284.02138230846</ele>
        <time>2018-01-24T11:01:19Z</time>
      </trkpt>
      <trkpt lat="43.47305" lon="5.44236">
        <ele>283.00861581104</ele>
        <time>2018-01-24T11:01:30Z</time>
      </trkpt>
      <trkpt lat="43.47302" lon="5.44225">
        <ele>281.9036864389</ele>
        <time>2018-01-24T11:01:43Z</time>
      </trkpt>
      <trkpt lat="43.47303" lon="5.44212">
        <ele>280.78305229257</ele>
        <time>2018-01-24T11:01:58Z</time>
      </trkpt>
      <trkpt lat="43.47312" lon="5.4421">
        <ele>279.11811422615</ele>
        <time>2018-01-24T11:02:25Z</time>
      </trkpt>
      <trkpt lat="43.47319" lon="5.44217">
        <ele>278.09175986645</ele>
        <time>2018-01-24T11:02:44Z</time>
      </trkpt>
      <trkpt lat="43.47327" lon="5.44213">
        <ele>277.15366914793</ele>
        <time>2018-01-24T11:03:01Z</time>
      </trkpt>
      <trkpt lat="43.47336" lon="5.44209">
        <ele>276.50699361144</ele>
        <time>2018-01-24T11:03:14Z</time>
      </trkpt>
      <trkpt lat="43.47339" lon="5.44198">
        <ele>275.67528372183</ele>
        <time>2018-01-24T11:03:32Z</time>
      </trkpt>
      <trkpt lat="43.47342" lon="5.44187">
        <ele>275.18768607849</ele>
        <time>2018-01-24T11:03:43Z</time>
      </trkpt>
      <trkpt lat="43.47347" lon="5.44177">
        <ele>274.89740421963</ele>
        <time>2018-01-24T11:03:50Z</time>
      </trkpt>
      <trkpt lat="43.47352" lon="5.44168">
        <ele>274.46271595025</ele>
        <time>2018-01-24T11:04:02Z</time>
      </trkpt>
      <trkpt lat="43.47361" lon="5.44169">
        <ele>274.03908610746</ele>
        <time>2018-01-24T11:04:16Z</time>
      </trkpt>
      <trkpt lat="43.47369" lon="5.44166">
        <ele>273.44198834929</ele>
        <time>2018-01-24T11:04:34Z</time>
      </trkpt>
      <trkpt lat="43.47377" lon="5.44167">
        <ele>272.90929327422</ele>
        <time>2018-01-24T11:04:51Z</time>
      </trkpt>
      <trkpt lat="43.47385" lon="5.44164">
        <ele>272.51439864116</ele>
        <time>2018-01-24T11:05:03Z</time>
      </trkpt>
      <trkpt lat="43.47393" lon="5.4416">
        <ele>271.98047808347</ele>
        <time>2018-01-24T11:05:19Z</time>
      </trkpt>
      <trkpt lat="43.47401" lon="5.44157">
        <ele>271.70398390667</ele>
        <time>2018-01-24T11:05:27Z</time>
      </trkpt>
      <trkpt lat="43.47409" lon="5.44161">
        <ele>271.31937084393</ele>
        <time>2018-01-24T11:05:39Z</time>
      </trkpt>
      <trkpt lat="43.47418" lon="5.44164">
        <ele>271.08319083091</ele>
        <time>2018-01-24T11:05:47Z</time>
      </trkpt>
      <trkpt lat="43.47425" lon="5.44157">
        <ele>270.74486360919</ele>
        <time>2018-01-24T11:05:58Z</time>
      </trkpt>
      <trkpt lat="43.47428" lon="5.44146">
        <ele>270.35910588225</ele>
        <time>2018-01-24T11:06:13Z</time>
      </trkpt>
      <trkpt lat="43.47422" lon="5.44138">
        <ele>269.95945685615</ele>
        <time>2018-01-24T11:06:32Z</time>
      </trkpt>
      <trkpt lat="43.47414" lon="5.44131">
        <ele>269.60226753881</ele>
        <time>2018-01-24T11:06:45Z</time>
      </trkpt>
      <trkpt lat="43.4741" lon="5.4412">
        <ele>269.33989556497</ele>
        <time>2018-01-24T11:06:54Z</time>
      </trkpt>
      <trkpt lat="43.47409" lon="5.44109">
        <ele>268.99684137058</ele>
        <time>2018-01-24T11:07:07Z</time>
      </trkpt>
      <trkpt lat="43.47412" lon="5.44098">
        <ele>268.72451773191</ele>
        <time>2018-01-24T11:07:18Z</time>
      </trkpt>
      <trkpt lat="43.47418" lon="5.44089">
        <ele>268.50927808653</ele>
        <time>2018-01-24T11:07:26Z</time>
      </trkpt>
      <trkpt lat="43.47423" lon="5.4408">
        <ele>268.28943688757</ele>
        <time>2018-01-24T11:07:34Z</time>
      </trkpt>
      <trkpt lat="43.47429" lon="5.44072">
        <ele>268.04618949781</ele>
        <time>2018-01-24T11:07:43Z</time>
      </trkpt>
      <trkpt lat="43.47436" lon="5.44067">
        <ele>267.7846076797</ele>
        <time>2018-01-24T11:07:53Z</time>
      </trkpt>
      <trkpt lat="43.47443" lon="5.4406">
        <ele>267.47801696324</ele>
        <time>2018-01-24T11:08:03Z</time>
      </trkpt>
      <trkpt lat="43.47449" lon="5.44053">
        <ele>267.16037972441</ele>
        <time>2018-01-24T11:08:14Z</time>
      </trkpt>
      <trkpt lat="43.47455" lon="5.44047">
        <ele>266.88338102783</ele>
        <time>2018-01-24T11:08:24Z</time>
      </trkpt>
      <trkpt lat="43.47461" lon="5.44039">
        <ele>266.71395743772</ele>
        <time>2018-01-24T11:08:30Z</time>
      </trkpt>
      <trkpt lat="43.47462" lon="5.44027">
        <ele>266.33091574648</ele>
        <time>2018-01-24T11:08:42Z</time>
      </trkpt>
      <trkpt lat="43.47464" lon="5.44015">
        <ele>265.66607683085</ele>
        <time>2018-01-24T11:09:06Z</time>
      </trkpt>
      <trkpt lat="43.4747" lon="5.44006">
        <ele>265.04710310092</ele>
        <time>2018-01-24T11:09:31Z</time>
      </trkpt>
      <trkpt lat="43.47473" lon="5.43995">
        <ele>264.61861749339</ele>
        <time>2018-01-24T11:09:45Z</time>
      </trkpt>
      <trkpt lat="43.47477" lon="5.43984">
        <ele>264.01282537093</ele>
        <time>2018-01-24T11:10:07Z</time>
      </trkpt>
      <trkpt lat="43.47481" lon="5.43975">
        <ele>263.75979947267</ele>
        <time>2018-01-24T11:10:16Z</time>
      </trkpt>
      <trkpt lat="43.47484" lon="5.43964">
        <ele>263.54587177243</ele>
        <time>2018-01-24T11:10:24Z</time>
      </trkpt>
      <trkpt lat="43.47489" lon="5.43954">
        <ele>263.24385770201</ele>
        <time>2018-01-24T11:10:36Z</time>
      </trkpt>
      <trkpt lat="43.47497" lon="5.43948">
        <ele>263.05029477772</ele>
        <time>2018-01-24T11:10:44Z</time>
      </trkpt>
      <trkpt lat="43.47501" lon="5.43939">
        <ele>262.82309070513</ele>
        <time>2018-01-24T11:10:54Z</time>
      </trkpt>
      <trkpt lat="43.47503" lon="5.43927">
        <ele>262.58393707763</ele>
        <time>2018-01-24T11:11:04Z</time>
      </trkpt>
      <trkpt lat="43.47499" lon="5.43917">
        <ele>262.3686817823</ele>
        <time>2018-01-24T11:11:14Z</time>
      </trkpt>
      <trkpt lat="43.47496" lon="5.43905">
        <ele>262.20023882301</ele>
        <time>2018-01-24T11:11:23Z</time>
      </trkpt>
      <trkpt lat="43.47495" lon="5.43893">
        <ele>262.07907525563</ele>
        <time>2018-01-24T11:11:31Z</time>
      </trkpt>
      <trkpt lat="43.47494" lon="5.43883">
        <ele>261.94752189709</ele>
        <time>2018-01-24T11:11:40Z</time>
      </trkpt>
      <trkpt lat="43.47489" lon="5.43872">
        <ele>261.84821094652</ele>
        <time>2018-01-24T11:11:47Z</time>
      </trkpt>
      <trkpt lat="43.47484" lon="5.43862">
        <ele>261.76266893912</ele>
        <time>2018-01-24T11:11:54Z</time>
      </trkpt>
      <trkpt lat="43.47481" lon="5.43851">
        <ele>261.64696551395</ele>
        <time>2018-01-24T11:12:04Z</time>
      </trkpt>
      <trkpt lat="43.47478" lon="5.4384">
        <ele>261.49865228644</ele>
        <time>2018-01-24T11:12:15Z</time>
      </trkpt>
      <trkpt lat="43.47479" lon="5.43829">
        <ele>261.36447233124</ele>
        <time>2018-01-24T11:12:23Z</time>
      </trkpt>
      <trkpt lat="43.47481" lon="5.43818">
        <ele>261.25178246751</ele>
        <time>2018-01-24T11:12:30Z</time>
      </trkpt>
      <trkpt lat="43.47478" lon="5.43807">
        <ele>261.09315019744</ele>
        <time>2018-01-24T11:12:40Z</time>
      </trkpt>
      <trkpt lat="43.4747" lon="5.43809">
        <ele>260.79644165673</ele>
        <time>2018-01-24T11:13:00Z</time>
      </trkpt>
      <trkpt lat="43.47472" lon="5.4382">
        <ele>260.67820615186</ele>
        <time>2018-01-24T11:13:06Z</time>
      </trkpt>
      <trkpt lat="43.47473" lon="5.43831">
        <ele>260.37730159831</ele>
        <time>2018-01-24T11:13:20Z</time>
      </trkpt>
      <trkpt lat="43.47466" lon="5.43839">
        <ele>260.23728032808</ele>
        <time>2018-01-24T11:13:27Z</time>
      </trkpt>
      <trkpt lat="43.47457" lon="5.43844">
        <ele>260.10997959685</ele>
        <time>2018-01-24T11:13:32Z</time>
      </trkpt>
      <trkpt lat="43.47452" lon="5.43849">
        <ele>259.89228072546</ele>
        <time>2018-01-24T11:13:40Z</time>
      </trkpt>
      <trkpt lat="43.47447" lon="5.43858">
        <ele>259.61325874787</ele>
        <time>2018-01-24T11:13:51Z</time>
      </trkpt>
      <trkpt lat="43.4744" lon="5.43864">
        <ele>259.28802345046</ele>
        <time>2018-01-24T11:14:03Z</time>
      </trkpt>
      <trkpt lat="43.47438" lon="5.43874">
        <ele>259.17395659584</ele>
        <time>2018-01-24T11:14:11Z</time>
      </trkpt>
      <trkpt lat="43.47436" lon="5.43886">
        <ele>258.95781476797</ele>
        <time>2018-01-24T11:14:19Z</time>
      </trkpt>
      <trkpt lat="43.47428" lon="5.4389">
        <ele>258.72850459781</ele>
        <time>2018-01-24T11:14:25Z</time>
      </trkpt>
      <trkpt lat="43.47419" lon="5.43885">
        <ele>258.53243792929</ele>
        <time>2018-01-24T11:14:30Z</time>
      </trkpt>
      <trkpt lat="43.47411" lon="5.43883">
        <ele>258.26012716289</ele>
        <time>2018-01-24T11:14:37Z</time>
      </trkpt>
      <trkpt lat="43.47404" lon="5.43878">
        <ele>257.94653861463</ele>
        <time>2018-01-24T11:14:47Z</time>
      </trkpt>
      <trkpt lat="43.47396" lon="5.43874">
        <ele>257.58168731729</ele>
        <time>2018-01-24T11:14:54Z</time>
      </trkpt>
      <trkpt lat="43.47388" lon="5.43879">
        <ele>256.33649751278</ele>
        <time>2018-01-24T11:15:44Z</time>
      </trkpt>
      <trkpt lat="43.47381" lon="5.43883">
        <ele>256.18801435236</ele>
        <time>2018-01-24T11:15:49Z</time>
      </trkpt>
      <trkpt lat="43.47372" lon="5.43884">
        <ele>256.03195688877</ele>
        <time>2018-01-24T11:15:54Z</time>
      </trkpt>
      <trkpt lat="43.47364" lon="5.43892">
        <ele>255.89828175821</ele>
        <time>2018-01-24T11:15:58Z</time>
      </trkpt>
      <trkpt lat="43.47358" lon="5.43898">
        <ele>255.71578113398</ele>
        <time>2018-01-24T11:16:03Z</time>
      </trkpt>
      <trkpt lat="43.47351" lon="5.43903">
        <ele>255.51836230505</ele>
        <time>2018-01-24T11:16:08Z</time>
      </trkpt>
      <trkpt lat="43.47343" lon="5.43906">
        <ele>254.9164646442</ele>
        <time>2018-01-24T11:16:22Z</time>
      </trkpt>
      <trkpt lat="43.47338" lon="5.43895">
        <ele>254.44668352452</ele>
        <time>2018-01-24T11:16:33Z</time>
      </trkpt>
      <trkpt lat="43.4733" lon="5.43892">
        <ele>253.44283923133</ele>
        <time>2018-01-24T11:16:56Z</time>
      </trkpt>
      <trkpt lat="43.47327" lon="5.43903">
        <ele>253.05540750524</ele>
        <time>2018-01-24T11:17:04Z</time>
      </trkpt>
      <trkpt lat="43.47323" lon="5.43913">
        <ele>252.57044843404</ele>
        <time>2018-01-24T11:17:14Z</time>
      </trkpt>
      <trkpt lat="43.47315" lon="5.43917">
        <ele>251.85444137999</ele>
        <time>2018-01-24T11:17:29Z</time>
      </trkpt>
      <trkpt lat="43.47308" lon="5.43923">
        <ele>251.47758601152</ele>
        <time>2018-01-24T11:17:36Z</time>
      </trkpt>
      <trkpt lat="43.473" lon="5.43917">
        <ele>250.82561487694</ele>
        <time>2018-01-24T11:17:48Z</time>
      </trkpt>
      <trkpt lat="43.47297" lon="5.43906">
        <ele>250.44580383003</ele>
        <time>2018-01-24T11:17:55Z</time>
      </trkpt>
      <trkpt lat="43.47299" lon="5.43895">
        <ele>250.07084134221</ele>
        <time>2018-01-24T11:18:02Z</time>
      </trkpt>
      <trkpt lat="43.47301" lon="5.43884">
        <ele>249.71307868012</ele>
        <time>2018-01-24T11:18:09Z</time>
      </trkpt>
      <trkpt lat="43.47304" lon="5.43873">
        <ele>249.27918970253</ele>
        <time>2018-01-24T11:18:18Z</time>
      </trkpt>
      <trkpt lat="43.47307" lon="5.43862">
        <ele>249.00061515342</ele>
        <time>2018-01-24T11:18:24Z</time>
      </trkpt>
      <trkpt lat="43.4731" lon="5.43853">
        <ele>248.73045549905</ele>
        <time>2018-01-24T11:18:30Z</time>
      </trkpt>
      <trkpt lat="43.47313" lon="5.43841">
        <ele>248.50495293341</ele>
        <time>2018-01-24T11:18:36Z</time>
      </trkpt>
      <trkpt lat="43.47317" lon="5.4383">
        <ele>248.17274266242</ele>
        <time>2018-01-24T11:18:44Z</time>
      </trkpt>
      <trkpt lat="43.47319" lon="5.43821">
        <ele>247.90086696495</ele>
        <time>2018-01-24T11:18:51Z</time>
      </trkpt>
      <trkpt lat="43.47324" lon="5.43811">
        <ele>247.6373041187</ele>
        <time>2018-01-24T11:18:58Z</time>
      </trkpt>
      <trkpt lat="43.47326" lon="5.438">
        <ele>247.25616612855</ele>
        <time>2018-01-24T11:19:09Z</time>
      </trkpt>
      <trkpt lat="43.47329" lon="5.43789">
        <ele>246.94725927038</ele>
        <time>2018-01-24T11:19:18Z</time>
      </trkpt>
      <trkpt lat="43.47333" lon="5.43779">
        <ele>246.75670562346</ele>
        <time>2018-01-24T11:19:23Z</time>
      </trkpt>
      <trkpt lat="43.47337" lon="5.43769">
        <ele>246.53168408001</ele>
        <time>2018-01-24T11:19:29Z</time>
      </trkpt>
      <trkpt lat="43.4734" lon="5.43759">
        <ele>246.31168549673</ele>
        <time>2018-01-24T11:19:35Z</time>
      </trkpt>
      <trkpt lat="43.47343" lon="5.43749">
        <ele>246.12704132635</ele>
        <time>2018-01-24T11:19:40Z</time>
      </trkpt>
      <trkpt lat="43.47348" lon="5.43739">
        <ele>245.90203527882</ele>
        <time>2018-01-24T11:19:46Z</time>
      </trkpt>
      <trkpt lat="43.47352" lon="5.43729">
        <ele>245.64451765346</ele>
        <time>2018-01-24T11:19:53Z</time>
      </trkpt>
      <trkpt lat="43.47355" lon="5.43718">
        <ele>245.43161506578</ele>
        <time>2018-01-24T11:19:59Z</time>
      </trkpt>
      <trkpt lat="43.47358" lon="5.43708">
        <ele>245.25955052842</ele>
        <time>2018-01-24T11:20:04Z</time>
      </trkpt>
      <trkpt lat="43.47361" lon="5.43697">
        <ele>245.09691556865</ele>
        <time>2018-01-24T11:20:09Z</time>
      </trkpt>
      <trkpt lat="43.47365" lon="5.43687">
        <ele>244.87679170282</ele>
        <time>2018-01-24T11:20:16Z</time>
      </trkpt>
      <trkpt lat="43.47368" lon="5.43677">
        <ele>244.69393665512</ele>
        <time>2018-01-24T11:20:22Z</time>
      </trkpt>
      <trkpt lat="43.47371" lon="5.43665">
        <ele>244.52071372935</ele>
        <time>2018-01-24T11:20:28Z</time>
      </trkpt>
      <trkpt lat="43.47375" lon="5.43655">
        <ele>244.36073475395</ele>
        <time>2018-01-24T11:20:34Z</time>
      </trkpt>
      <trkpt lat="43.47378" lon="5.43646">
        <ele>244.12036378101</ele>
        <time>2018-01-24T11:20:44Z</time>
      </trkpt>
      <trkpt lat="43.47382" lon="5.43636">
        <ele>243.95987430636</ele>
        <time>2018-01-24T11:20:51Z</time>
      </trkpt>
      <trkpt lat="43.47386" lon="5.43624">
        <ele>243.84448735146</ele>
        <time>2018-01-24T11:20:56Z</time>
      </trkpt>
      <trkpt lat="43.47391" lon="5.43615">
        <ele>243.71053850442</ele>
        <time>2018-01-24T11:21:02Z</time>
      </trkpt>
      <trkpt lat="43.47396" lon="5.43605">
        <ele>243.53165639222</ele>
        <time>2018-01-24T11:21:10Z</time>
      </trkpt>
      <trkpt lat="43.474" lon="5.43595">
        <ele>243.37811468763</ele>
        <time>2018-01-24T11:21:17Z</time>
      </trkpt>
      <trkpt lat="43.47406" lon="5.43586">
        <ele>243.2699178911</ele>
        <time>2018-01-24T11:21:22Z</time>
      </trkpt>
      <trkpt lat="43.47411" lon="5.43577">
        <ele>243.118025364</ele>
        <time>2018-01-24T11:21:29Z</time>
      </trkpt>
      <trkpt lat="43.47416" lon="5.43568">
        <ele>242.96577869031</ele>
        <time>2018-01-24T11:21:36Z</time>
      </trkpt>
      <trkpt lat="43.47421" lon="5.43559">
        <ele>242.82757628141</ele>
        <time>2018-01-24T11:21:42Z</time>
      </trkpt>
      <trkpt lat="43.47427" lon="5.4355">
        <ele>242.65676113799</ele>
        <time>2018-01-24T11:21:49Z</time>
      </trkpt>
      <trkpt lat="43.47431" lon="5.43541">
        <ele>242.5043051293</ele>
        <time>2018-01-24T11:21:55Z</time>
      </trkpt>
      <trkpt lat="43.47437" lon="5.43532">
        <ele>242.31959891081</ele>
        <time>2018-01-24T11:22:02Z</time>
      </trkpt>
      <trkpt lat="43.4744" lon="5.43543">
        <ele>241.93660568568</ele>
        <time>2018-01-24T11:22:19Z</time>
      </trkpt>
      <trkpt lat="43.47441" lon="5.43531">
        <ele>239.64158225087</ele>
        <time>2018-01-24T11:24:01Z</time>
      </trkpt>
      <trkpt lat="43.47444" lon="5.43521">
        <ele>239.16814236884</ele>
        <time>2018-01-24T11:24:23Z</time>
      </trkpt>
      <trkpt lat="43.47445" lon="5.43509">
        <ele>238.69708331419</ele>
        <time>2018-01-24T11:24:39Z</time>
      </trkpt>
      <trkpt lat="43.47447" lon="5.43498">
        <ele>238.40830852813</ele>
        <time>2018-01-24T11:24:47Z</time>
      </trkpt>
      <trkpt lat="43.47448" lon="5.43486">
        <ele>238.15202382762</ele>
        <time>2018-01-24T11:24:54Z</time>
      </trkpt>
      <trkpt lat="43.47452" lon="5.43476">
        <ele>237.87277000182</ele>
        <time>2018-01-24T11:25:02Z</time>
      </trkpt>
      <trkpt lat="43.47455" lon="5.43465">
        <ele>237.6067444072</ele>
        <time>2018-01-24T11:25:10Z</time>
      </trkpt>
      <trkpt lat="43.47458" lon="5.43454">
        <ele>237.40563452565</ele>
        <time>2018-01-24T11:25:16Z</time>
      </trkpt>
      <trkpt lat="43.4746" lon="5.43442">
        <ele>237.1810441614</ele>
        <time>2018-01-24T11:25:23Z</time>
      </trkpt>
      <trkpt lat="43.47464" lon="5.43431">
        <ele>236.9201462285</ele>
        <time>2018-01-24T11:25:32Z</time>
      </trkpt>
      <trkpt lat="43.47462" lon="5.43422">
        <ele>236.60213321932</ele>
        <time>2018-01-24T11:25:43Z</time>
      </trkpt>
      <trkpt lat="43.47464" lon="5.4341">
        <ele>236.44972294773</ele>
        <time>2018-01-24T11:25:48Z</time>
      </trkpt>
      <trkpt lat="43.47464" lon="5.43399">
        <ele>235.93045552309</ele>
        <time>2018-01-24T11:26:04Z</time>
      </trkpt>
      <trkpt lat="43.47467" lon="5.43388">
        <ele>235.61260935291</ele>
        <time>2018-01-24T11:26:13Z</time>
      </trkpt>
      <trkpt lat="43.47468" lon="5.43376">
        <ele>235.03746962168</ele>
        <time>2018-01-24T11:26:31Z</time>
      </trkpt>
      <trkpt lat="43.47463" lon="5.43367">
        <ele>234.50328115247</ele>
        <time>2018-01-24T11:26:47Z</time>
      </trkpt>
      <trkpt lat="43.47458" lon="5.43357">
        <ele>234.08311696569</ele>
        <time>2018-01-24T11:27:03Z</time>
      </trkpt>
      <trkpt lat="43.47449" lon="5.43336">
        <ele>233.96179772344</ele>
        <time>2018-01-24T11:27:08Z</time>
      </trkpt>
      <trkpt lat="43.47447" lon="5.43324">
        <ele>233.54654720718</ele>
        <time>2018-01-24T11:27:23Z</time>
      </trkpt>
      <trkpt lat="43.47445" lon="5.43312">
        <ele>233.06664538997</ele>
        <time>2018-01-24T11:27:41Z</time>
      </trkpt>
      <trkpt lat="43.47437" lon="5.43315">
        <ele>232.77387811373</ele>
        <time>2018-01-24T11:27:53Z</time>
      </trkpt>
      <trkpt lat="43.47428" lon="5.43316">
        <ele>232.53384283817</ele>
        <time>2018-01-24T11:28:02Z</time>
      </trkpt>
      <trkpt lat="43.4742" lon="5.43314">
        <ele>232.26833078794</ele>
        <time>2018-01-24T11:28:13Z</time>
      </trkpt>
      <trkpt lat="43.47412" lon="5.43314">
        <ele>231.99597327189</ele>
        <time>2018-01-24T11:28:24Z</time>
      </trkpt>
      <trkpt lat="43.47405" lon="5.43321">
        <ele>231.46185921622</ele>
        <time>2018-01-24T11:28:40Z</time>
      </trkpt>
      <trkpt lat="43.47401" lon="5.43332">
        <ele>230.91739377793</ele>
        <time>2018-01-24T11:28:56Z</time>
      </trkpt>
      <trkpt lat="43.47402" lon="5.43342">
        <ele>230.6003187044</ele>
        <time>2018-01-24T11:29:04Z</time>
      </trkpt>
      <trkpt lat="43.47402" lon="5.43354">
        <ele>230.3560024352</ele>
        <time>2018-01-24T11:29:11Z</time>
      </trkpt>
      <trkpt lat="43.47401" lon="5.43366">
        <ele>230.04068071457</ele>
        <time>2018-01-24T11:29:19Z</time>
      </trkpt>
      <trkpt lat="43.47399" lon="5.43378">
        <ele>229.73057459255</ele>
        <time>2018-01-24T11:29:27Z</time>
      </trkpt>
      <trkpt lat="43.47398" lon="5.4339">
        <ele>229.34632050548</ele>
        <time>2018-01-24T11:29:37Z</time>
      </trkpt>
      <trkpt lat="43.47401" lon="5.434">
        <ele>229.09824958783</ele>
        <time>2018-01-24T11:29:44Z</time>
      </trkpt>
      <trkpt lat="43.47403" lon="5.43412">
        <ele>228.8915919415</ele>
        <time>2018-01-24T11:29:50Z</time>
      </trkpt>
      <trkpt lat="43.47404" lon="5.43424">
        <ele>228.64208827008</ele>
        <time>2018-01-24T11:29:58Z</time>
      </trkpt>
      <trkpt lat="43.474" lon="5.43434">
        <ele>228.24910090555</ele>
        <time>2018-01-24T11:30:14Z</time>
      </trkpt>
      <trkpt lat="43.47396" lon="5.43445">
        <ele>227.91477039719</ele>
        <time>2018-01-24T11:30:29Z</time>
      </trkpt>
      <trkpt lat="43.47395" lon="5.43456">
        <ele>227.75013001385</ele>
        <time>2018-01-24T11:30:37Z</time>
      </trkpt>
      <trkpt lat="43.47393" lon="5.43467">
        <ele>227.50553950479</ele>
        <time>2018-01-24T11:30:47Z</time>
      </trkpt>
      <trkpt lat="43.47393" lon="5.43478">
        <ele>227.38490488692</ele>
        <time>2018-01-24T11:30:52Z</time>
      </trkpt>
      <trkpt lat="43.47391" lon="5.43489">
        <ele>227.20390545684</ele>
        <time>2018-01-24T11:31:00Z</time>
      </trkpt>
      <trkpt lat="43.47388" lon="5.435">
        <ele>227.02440715986</ele>
        <time>2018-01-24T11:31:09Z</time>
      </trkpt>
      <trkpt lat="43.47386" lon="5.43511">
        <ele>226.8804786994</ele>
        <time>2018-01-24T11:31:16Z</time>
      </trkpt>
      <trkpt lat="43.47383" lon="5.43522">
        <ele>226.76637886228</ele>
        <time>2018-01-24T11:31:22Z</time>
      </trkpt>
      <trkpt lat="43.47382" lon="5.43534">
        <ele>226.62477576805</ele>
        <time>2018-01-24T11:31:30Z</time>
      </trkpt>
      <trkpt lat="43.47378" lon="5.43545">
        <ele>226.46807129931</ele>
        <time>2018-01-24T11:31:40Z</time>
      </trkpt>
      <trkpt lat="43.47375" lon="5.43555">
        <ele>226.33421099774</ele>
        <time>2018-01-24T11:31:49Z</time>
      </trkpt>
      <trkpt lat="43.4737" lon="5.43564">
        <ele>226.25501158812</ele>
        <time>2018-01-24T11:31:55Z</time>
      </trkpt>
      <trkpt lat="43.47368" lon="5.43575">
        <ele>226.14302499171</ele>
        <time>2018-01-24T11:32:02Z</time>
      </trkpt>
      <trkpt lat="43.47363" lon="5.43583">
        <ele>226.06017729414</ele>
        <time>2018-01-24T11:32:07Z</time>
      </trkpt>
      <trkpt lat="43.47361" lon="5.43593">
        <ele>225.95771146073</ele>
        <time>2018-01-24T11:32:13Z</time>
      </trkpt>
      <trkpt lat="43.4736" lon="5.43604">
        <ele>225.8482432549</ele>
        <time>2018-01-24T11:32:19Z</time>
      </trkpt>
      <trkpt lat="43.47357" lon="5.43613">
        <ele>225.73496574858</ele>
        <time>2018-01-24T11:32:25Z</time>
      </trkpt>
      <trkpt lat="43.47354" lon="5.43623">
        <ele>225.58539239984</ele>
        <time>2018-01-24T11:32:33Z</time>
      </trkpt>
      <trkpt lat="43.47347" lon="5.43629">
        <ele>225.47783241763</ele>
        <time>2018-01-24T11:32:39Z</time>
      </trkpt>
      <trkpt lat="43.4734" lon="5.43635">
        <ele>225.33801064844</ele>
        <time>2018-01-24T11:32:47Z</time>
      </trkpt>
      <trkpt lat="43.47333" lon="5.43641">
        <ele>225.24254440845</ele>
        <time>2018-01-24T11:32:53Z</time>
      </trkpt>
      <trkpt lat="43.47328" lon="5.43648">
        <ele>225.15898565444</ele>
        <time>2018-01-24T11:32:59Z</time>
      </trkpt>
      <trkpt lat="43.47322" lon="5.43657">
        <ele>225.08583905339</ele>
        <time>2018-01-24T11:33:05Z</time>
      </trkpt>
      <trkpt lat="43.47315" lon="5.4366">
        <ele>225.03220621165</ele>
        <time>2018-01-24T11:33:10Z</time>
      </trkpt>
      <trkpt lat="43.47309" lon="5.43669">
        <ele>224.93671815546</ele>
        <time>2018-01-24T11:33:19Z</time>
      </trkpt>
      <trkpt lat="43.47305" lon="5.43679">
        <ele>224.86173322664</ele>
        <time>2018-01-24T11:33:26Z</time>
      </trkpt>
      <trkpt lat="43.47303" lon="5.4369">
        <ele>224.77499270248</ele>
        <time>2018-01-24T11:33:34Z</time>
      </trkpt>
      <trkpt lat="43.47298" lon="5.43701">
        <ele>224.67394625373</ele>
        <time>2018-01-24T11:33:43Z</time>
      </trkpt>
      <trkpt lat="43.47293" lon="5.43711">
        <ele>224.6050380716</ele>
        <time>2018-01-24T11:33:49Z</time>
      </trkpt>
      <trkpt lat="43.47288" lon="5.43721">
        <ele>224.46376892999</ele>
        <time>2018-01-24T11:33:59Z</time>
      </trkpt>
      <trkpt lat="43.47284" lon="5.43731">
        <ele>224.31386870131</ele>
        <time>2018-01-24T11:34:07Z</time>
      </trkpt>
      <trkpt lat="43.4728" lon="5.43742">
        <ele>224.17469713318</ele>
        <time>2018-01-24T11:34:14Z</time>
      </trkpt>
      <trkpt lat="43.47277" lon="5.43752">
        <ele>224.02883119608</ele>
        <time>2018-01-24T11:34:21Z</time>
      </trkpt>
      <trkpt lat="43.47274" lon="5.43763">
        <ele>223.83777874536</ele>
        <time>2018-01-24T11:34:31Z</time>
      </trkpt>
      <trkpt lat="43.47269" lon="5.43774">
        <ele>223.65912921959</ele>
        <time>2018-01-24T11:34:39Z</time>
      </trkpt>
      <trkpt lat="43.47266" lon="5.43785">
        <ele>223.47056514449</ele>
        <time>2018-01-24T11:34:47Z</time>
      </trkpt>
      <trkpt lat="43.47267" lon="5.43796">
        <ele>223.25815994364</ele>
        <time>2018-01-24T11:34:56Z</time>
      </trkpt>
      <trkpt lat="43.47265" lon="5.43807">
        <ele>223.05151315532</ele>
        <time>2018-01-24T11:35:04Z</time>
      </trkpt>
      <trkpt lat="43.47264" lon="5.43819">
        <ele>222.80056994976</ele>
        <time>2018-01-24T11:35:13Z</time>
      </trkpt>
      <trkpt lat="43.4726" lon="5.4383">
        <ele>222.5590042614</ele>
        <time>2018-01-24T11:35:21Z</time>
      </trkpt>
      <trkpt lat="43.47257" lon="5.43841">
        <ele>222.25904618691</ele>
        <time>2018-01-24T11:35:30Z</time>
      </trkpt>
      <trkpt lat="43.47253" lon="5.43852">
        <ele>222.01253722737</ele>
        <time>2018-01-24T11:35:37Z</time>
      </trkpt>
      <trkpt lat="43.4725" lon="5.43862">
        <ele>221.7275276099</ele>
        <time>2018-01-24T11:35:45Z</time>
      </trkpt>
      <trkpt lat="43.47249" lon="5.43873">
        <ele>221.51509528363</ele>
        <time>2018-01-24T11:35:51Z</time>
      </trkpt>
      <trkpt lat="43.4725" lon="5.43884">
        <ele>221.27694347206</ele>
        <time>2018-01-24T11:35:58Z</time>
      </trkpt>
      <trkpt lat="43.47249" lon="5.43895">
        <ele>220.96933746195</ele>
        <time>2018-01-24T11:36:07Z</time>
      </trkpt>
      <trkpt lat="43.47249" lon="5.43907">
        <ele>220.61166124501</ele>
        <time>2018-01-24T11:36:17Z</time>
      </trkpt>
      <trkpt lat="43.47247" lon="5.43917">
        <ele>220.38900432346</ele>
        <time>2018-01-24T11:36:23Z</time>
      </trkpt>
      <trkpt lat="43.47244" lon="5.43929">
        <ele>220.12662362595</ele>
        <time>2018-01-24T11:36:30Z</time>
      </trkpt>
      <trkpt lat="43.47242" lon="5.4394">
        <ele>219.8691526673</ele>
        <time>2018-01-24T11:36:37Z</time>
      </trkpt>
      <trkpt lat="43.47241" lon="5.43951">
        <ele>219.65701516246</ele>
        <time>2018-01-24T11:36:43Z</time>
      </trkpt>
      <trkpt lat="43.47239" lon="5.43962">
        <ele>219.42379687322</ele>
        <time>2018-01-24T11:36:50Z</time>
      </trkpt>
      <trkpt lat="43.47237" lon="5.43973">
        <ele>219.16659097693</ele>
        <time>2018-01-24T11:36:58Z</time>
      </trkpt>
      <trkpt lat="43.47237" lon="5.43985">
        <ele>218.86058240755</ele>
        <time>2018-01-24T11:37:08Z</time>
      </trkpt>
      <trkpt lat="43.47239" lon="5.43996">
        <ele>218.63460877155</ele>
        <time>2018-01-24T11:37:16Z</time>
      </trkpt>
      <trkpt lat="43.4724" lon="5.44007">
        <ele>218.40420925631</ele>
        <time>2018-01-24T11:37:24Z</time>
      </trkpt>
      <trkpt lat="43.47239" lon="5.44018">
        <ele>218.20534399049</ele>
        <time>2018-01-24T11:37:31Z</time>
      </trkpt>
      <trkpt lat="43.47238" lon="5.4403">
        <ele>217.95963796805</ele>
        <time>2018-01-24T11:37:40Z</time>
      </trkpt>
      <trkpt lat="43.47236" lon="5.44042">
        <ele>217.66415105156</ele>
        <time>2018-01-24T11:37:52Z</time>
      </trkpt>
      <trkpt lat="43.47235" lon="5.44054">
        <ele>217.50593657638</ele>
        <time>2018-01-24T11:37:59Z</time>
      </trkpt>
      <trkpt lat="43.47231" lon="5.44064">
        <ele>217.30595570364</ele>
        <time>2018-01-24T11:38:08Z</time>
      </trkpt>
      <trkpt lat="43.47227" lon="5.44075">
        <ele>217.12819252963</ele>
        <time>2018-01-24T11:38:17Z</time>
      </trkpt>
      <trkpt lat="43.47222" lon="5.44085">
        <ele>216.95331499536</ele>
        <time>2018-01-24T11:38:28Z</time>
      </trkpt>
      <trkpt lat="43.47223" lon="5.44096">
        <ele>216.82531988565</ele>
        <time>2018-01-24T11:38:39Z</time>
      </trkpt>
      <trkpt lat="43.47224" lon="5.44107">
        <ele>216.76055401445</ele>
        <time>2018-01-24T11:38:46Z</time>
      </trkpt>
      <trkpt lat="43.47224" lon="5.44118">
        <ele>216.70060245653</ele>
        <time>2018-01-24T11:38:52Z</time>
      </trkpt>
      <trkpt lat="43.47225" lon="5.44129">
        <ele>216.58942913905</ele>
        <time>2018-01-24T11:39:02Z</time>
      </trkpt>
      <trkpt lat="43.47228" lon="5.44139">
        <ele>216.50935347315</ele>
        <time>2018-01-24T11:39:11Z</time>
      </trkpt>
      <trkpt lat="43.47225" lon="5.44149">
        <ele>216.47041327756</ele>
        <time>2018-01-24T11:39:16Z</time>
      </trkpt>
      <trkpt lat="43.47223" lon="5.44159">
        <ele>216.41659989444</ele>
        <time>2018-01-24T11:39:22Z</time>
      </trkpt>
      <trkpt lat="43.4722" lon="5.44171">
        <ele>216.32114214373</ele>
        <time>2018-01-24T11:39:33Z</time>
      </trkpt>
      <trkpt lat="43.47216" lon="5.44182">
        <ele>216.24425036037</ele>
        <time>2018-01-24T11:39:42Z</time>
      </trkpt>
      <trkpt lat="43.47211" lon="5.44191">
        <ele>216.13681882556</ele>
        <time>2018-01-24T11:39:57Z</time>
      </trkpt>
      <trkpt lat="43.47207" lon="5.44201">
        <ele>216.09637771943</ele>
        <time>2018-01-24T11:40:05Z</time>
      </trkpt>
      <trkpt lat="43.47202" lon="5.4421">
        <ele>216.03636659365</ele>
        <time>2018-01-24T11:40:21Z</time>
      </trkpt>
      <trkpt lat="43.47197" lon="5.4422">
        <ele>215.97160548553</ele>
        <time>2018-01-24T11:40:56Z</time>
      </trkpt>
      <trkpt lat="43.47192" lon="5.44229">
        <ele>215.94780653728</ele>
        <time>2018-01-24T11:41:10Z</time>
      </trkpt>
      <trkpt lat="43.47184" lon="5.44236">
        <ele>215.93361229862</ele>
        <time>2018-01-24T11:41:18Z</time>
      </trkpt>
      <trkpt lat="43.47178" lon="5.44244">
        <ele>215.9174439935</ele>
        <time>2018-01-24T11:41:26Z</time>
      </trkpt>
      <trkpt lat="43.47174" lon="5.44253">
        <ele>215.88931614902</ele>
        <time>2018-01-24T11:41:36Z</time>
      </trkpt>
      <trkpt lat="43.47167" lon="5.44262">
        <ele>215.85977008822</ele>
        <time>2018-01-24T11:41:46Z</time>
      </trkpt>
      <trkpt lat="43.47167" lon="5.44273">
        <ele>215.84322537562</ele>
        <time>2018-01-24T11:42:11Z</time>
      </trkpt>
      <trkpt lat="43.47165" lon="5.44284">
        <ele>215.83362160449</ele>
        <time>2018-01-24T11:42:22Z</time>
      </trkpt>
      <trkpt lat="43.47163" lon="5.44295">
        <ele>215.79659572953</ele>
        <time>2018-01-24T11:42:32Z</time>
      </trkpt>
      <trkpt lat="43.4716" lon="5.44306">
        <ele>215.73260778323</ele>
        <time>2018-01-24T11:42:42Z</time>
      </trkpt>
      <trkpt lat="43.47157" lon="5.44318">
        <ele>215.67175675403</ele>
        <time>2018-01-24T11:42:50Z</time>
      </trkpt>
      <trkpt lat="43.47156" lon="5.4433">
        <ele>215.59940082157</ele>
        <time>2018-01-24T11:43:00Z</time>
      </trkpt>
      <trkpt lat="43.47154" lon="5.44342">
        <ele>215.53070673071</ele>
        <time>2018-01-24T11:43:09Z</time>
      </trkpt>
      <trkpt lat="43.47155" lon="5.44354">
        <ele>215.43622435348</ele>
        <time>2018-01-24T11:43:19Z</time>
      </trkpt>
      <trkpt lat="43.47155" lon="5.44366">
        <ele>215.35233756752</ele>
        <time>2018-01-24T11:43:27Z</time>
      </trkpt>
      <trkpt lat="43.47158" lon="5.44377">
        <ele>215.23120953978</ele>
        <time>2018-01-24T11:43:40Z</time>
      </trkpt>
      <trkpt lat="43.47157" lon="5.44389">
        <ele>215.18357743576</ele>
        <time>2018-01-24T11:43:48Z</time>
      </trkpt>
      <trkpt lat="43.47154" lon="5.44399">
        <ele>215.1334490143</ele>
        <time>2018-01-24T11:44:01Z</time>
      </trkpt>
      <trkpt lat="43.47153" lon="5.44411">
        <ele>215.10840202148</ele>
        <time>2018-01-24T11:44:14Z</time>
      </trkpt>
      <trkpt lat="43.47156" lon="5.44422">
        <ele>215.12000843967</ele>
        <time>2018-01-24T11:44:23Z</time>
      </trkpt>
      <trkpt lat="43.4716" lon="5.44432">
        <ele>215.13910012851</ele>
        <time>2018-01-24T11:44:30Z</time>
      </trkpt>
      <trkpt lat="43.47163" lon="5.44443">
        <ele>215.15537810548</ele>
        <time>2018-01-24T11:44:37Z</time>
      </trkpt>
      <trkpt lat="43.47164" lon="5.44455">
        <ele>215.1940346685</ele>
        <time>2018-01-24T11:44:47Z</time>
      </trkpt>
      <trkpt lat="43.47165" lon="5.44466">
        <ele>215.23839744679</ele>
        <time>2018-01-24T11:44:55Z</time>
      </trkpt>
      <trkpt lat="43.47162" lon="5.44476">
        <ele>215.27259229687</ele>
        <time>2018-01-24T11:45:01Z</time>
      </trkpt>
      <trkpt lat="43.47158" lon="5.44486">
        <ele>215.28114638415</ele>
        <time>2018-01-24T11:45:09Z</time>
      </trkpt>
      <trkpt lat="43.47157" lon="5.44499">
        <ele>215.2915397647</ele>
        <time>2018-01-24T11:45:20Z</time>
      </trkpt>
      <trkpt lat="43.47151" lon="5.44505">
        <ele>215.27645290221</ele>
        <time>2018-01-24T11:45:28Z</time>
      </trkpt>
      <trkpt lat="43.47145" lon="5.44513">
        <ele>215.230289287</ele>
        <time>2018-01-24T11:45:38Z</time>
      </trkpt>
      <trkpt lat="43.47136" lon="5.44515">
        <ele>215.94528725057</ele>
        <time>2018-01-24T11:48:49Z</time>
      </trkpt>
      <trkpt lat="43.4713" lon="5.44525">
        <ele>220.24621703736</ele>
        <time>2018-01-24T11:56:14Z</time>
      </trkpt>
      <trkpt lat="43.47129" lon="5.44513">
        <ele>224.96818844073</ele>
        <time>2018-01-24T12:07:48Z</time>
      </trkpt>
      <trkpt lat="43.47121" lon="5.44518">
        <ele>227.84226373972</ele>
        <time>2018-01-24T12:12:11Z</time>
      </trkpt>
      <trkpt lat="43.4712" lon="5.44516">
        <ele>229.49497072629</ele>
        <time>2018-01-24T12:19:03Z</time>
      </trkpt>
      <trkpt lat="43.47182" lon="5.4453">
        <ele>219.27987862673</ele>
        <time>2018-01-24T12:44:08Z</time>
      </trkpt>
      <trkpt lat="43.47162" lon="5.44551">
        <ele>230.64686157484</ele>
        <time>2018-01-24T12:44:12Z</time>
      </trkpt>
      <trkpt lat="43.47152" lon="5.44546">
        <ele>246.31575372937</ele>
        <time>2018-01-24T12:44:17Z</time>
      </trkpt>
      <trkpt lat="43.47152" lon="5.44538">
        <ele>244.89923329181</ele>
        <time>2018-01-24T12:44:21Z</time>
      </trkpt>
      <trkpt lat="43.47152" lon="5.44524">
        <ele>240.72894913426</ele>
        <time>2018-01-24T12:44:26Z</time>
      </trkpt>
      <trkpt lat="43.47147" lon="5.44515">
        <ele>240.55052366963</ele>
        <time>2018-01-24T12:44:34Z</time>
      </trkpt>
      <trkpt lat="43.47141" lon="5.44509">
        <ele>240.1310184258</ele>
        <time>2018-01-24T12:44:44Z</time>
      </trkpt>
      <trkpt lat="43.47149" lon="5.44509">
        <ele>234.6650583954</ele>
        <time>2018-01-24T12:46:36Z</time>
      </trkpt>
      <trkpt lat="43.47156" lon="5.44515">
        <ele>233.71861245005</ele>
        <time>2018-01-24T12:46:46Z</time>
      </trkpt>
      <trkpt lat="43.47161" lon="5.44524">
        <ele>233.19272046029</ele>
        <time>2018-01-24T12:46:53Z</time>
      </trkpt>
      <trkpt lat="43.47165" lon="5.44534">
        <ele>232.445509739</ele>
        <time>2018-01-24T12:47:05Z</time>
      </trkpt>
      <trkpt lat="43.47171" lon="5.44543">
        <ele>232.0233194256</ele>
        <time>2018-01-24T12:47:13Z</time>
      </trkpt>
      <trkpt lat="43.47177" lon="5.44552">
        <ele>231.64858811485</ele>
        <time>2018-01-24T12:47:22Z</time>
      </trkpt>
      <trkpt lat="43.47183" lon="5.4456">
        <ele>231.39184818172</ele>
        <time>2018-01-24T12:47:30Z</time>
      </trkpt>
      <trkpt lat="43.47188" lon="5.44568">
        <ele>231.27031759908</ele>
        <time>2018-01-24T12:47:35Z</time>
      </trkpt>
      <trkpt lat="43.4719" lon="5.4458">
        <ele>231.15191491308</ele>
        <time>2018-01-24T12:47:41Z</time>
      </trkpt>
      <trkpt lat="43.47191" lon="5.44592">
        <ele>231.04156257982</ele>
        <time>2018-01-24T12:47:46Z</time>
      </trkpt>
      <trkpt lat="43.47192" lon="5.44603">
        <ele>230.80078318728</ele>
        <time>2018-01-24T12:47:53Z</time>
      </trkpt>
      <trkpt lat="43.47189" lon="5.44615">
        <ele>230.5190396429</ele>
        <time>2018-01-24T12:48:01Z</time>
      </trkpt>
      <trkpt lat="43.47188" lon="5.44627">
        <ele>230.2660954787</ele>
        <time>2018-01-24T12:48:09Z</time>
      </trkpt>
      <trkpt lat="43.4719" lon="5.44639">
        <ele>230.02706610224</ele>
        <time>2018-01-24T12:48:18Z</time>
      </trkpt>
      <trkpt lat="43.47185" lon="5.4465">
        <ele>229.87219953649</ele>
        <time>2018-01-24T12:48:25Z</time>
      </trkpt>
      <trkpt lat="43.47182" lon="5.4466">
        <ele>229.7248454943</ele>
        <time>2018-01-24T12:48:32Z</time>
      </trkpt>
      <trkpt lat="43.47179" lon="5.44671">
        <ele>229.53600302694</ele>
        <time>2018-01-24T12:48:40Z</time>
      </trkpt>
      <trkpt lat="43.47174" lon="5.44682">
        <ele>229.34768740687</ele>
        <time>2018-01-24T12:48:47Z</time>
      </trkpt>
      <trkpt lat="43.47173" lon="5.44693">
        <ele>229.10687153151</ele>
        <time>2018-01-24T12:48:55Z</time>
      </trkpt>
      <trkpt lat="43.4717" lon="5.44702">
        <ele>228.93767332162</ele>
        <time>2018-01-24T12:49:01Z</time>
      </trkpt>
      <trkpt lat="43.47168" lon="5.44713">
        <ele>228.76738734727</ele>
        <time>2018-01-24T12:49:07Z</time>
      </trkpt>
      <trkpt lat="43.47171" lon="5.44724">
        <ele>228.59076166596</ele>
        <time>2018-01-24T12:49:13Z</time>
      </trkpt>
      <trkpt lat="43.47175" lon="5.44734">
        <ele>228.42751124623</ele>
        <time>2018-01-24T12:49:19Z</time>
      </trkpt>
      <trkpt lat="43.47179" lon="5.44743">
        <ele>228.29053030996</ele>
        <time>2018-01-24T12:49:25Z</time>
      </trkpt>
      <trkpt lat="43.47182" lon="5.44754">
        <ele>228.16146506813</ele>
        <time>2018-01-24T12:49:32Z</time>
      </trkpt>
      <trkpt lat="43.4718" lon="5.44766">
        <ele>228.02364828082</ele>
        <time>2018-01-24T12:49:41Z</time>
      </trkpt>
      <trkpt lat="43.47178" lon="5.44776">
        <ele>227.91630691456</ele>
        <time>2018-01-24T12:49:49Z</time>
      </trkpt>
      <trkpt lat="43.47176" lon="5.44788">
        <ele>227.8070181329</ele>
        <time>2018-01-24T12:49:57Z</time>
      </trkpt>
      <trkpt lat="43.47175" lon="5.448">
        <ele>227.697423174</ele>
        <time>2018-01-24T12:50:04Z</time>
      </trkpt>
      <trkpt lat="43.47175" lon="5.44811">
        <ele>227.59715921906</ele>
        <time>2018-01-24T12:50:10Z</time>
      </trkpt>
      <trkpt lat="43.47174" lon="5.44823">
        <ele>227.47166949802</ele>
        <time>2018-01-24T12:50:18Z</time>
      </trkpt>
      <trkpt lat="43.47173" lon="5.44834">
        <ele>227.36083989907</ele>
        <time>2018-01-24T12:50:26Z</time>
      </trkpt>
      <trkpt lat="43.47171" lon="5.44846">
        <ele>227.25204564143</ele>
        <time>2018-01-24T12:50:34Z</time>
      </trkpt>
      <trkpt lat="43.47169" lon="5.44856">
        <ele>227.13378238816</ele>
        <time>2018-01-24T12:50:42Z</time>
      </trkpt>
      <trkpt lat="43.47166" lon="5.44867">
        <ele>227.04232821436</ele>
        <time>2018-01-24T12:50:49Z</time>
      </trkpt>
      <trkpt lat="43.47162" lon="5.44877">
        <ele>226.96183902467</ele>
        <time>2018-01-24T12:50:58Z</time>
      </trkpt>
      <trkpt lat="43.47159" lon="5.44889">
        <ele>226.90972476576</ele>
        <time>2018-01-24T12:51:06Z</time>
      </trkpt>
      <trkpt lat="43.47156" lon="5.449">
        <ele>226.85844509877</ele>
        <time>2018-01-24T12:51:14Z</time>
      </trkpt>
      <trkpt lat="43.47151" lon="5.4491">
        <ele>226.80111692049</ele>
        <time>2018-01-24T12:51:23Z</time>
      </trkpt>
      <trkpt lat="43.47146" lon="5.44919">
        <ele>226.75979153115</ele>
        <time>2018-01-24T12:51:30Z</time>
      </trkpt>
      <trkpt lat="43.47143" lon="5.44931">
        <ele>226.71101358429</ele>
        <time>2018-01-24T12:51:37Z</time>
      </trkpt>
      <trkpt lat="43.47139" lon="5.44941">
        <ele>226.6654718859</ele>
        <time>2018-01-24T12:51:44Z</time>
      </trkpt>
      <trkpt lat="43.47135" lon="5.44949">
        <ele>226.63352999888</ele>
        <time>2018-01-24T12:51:50Z</time>
      </trkpt>
      <trkpt lat="43.47131" lon="5.4496">
        <ele>226.58711778171</ele>
        <time>2018-01-24T12:52:00Z</time>
      </trkpt>
      <trkpt lat="43.47127" lon="5.4497">
        <ele>226.56247635464</ele>
        <time>2018-01-24T12:52:06Z</time>
      </trkpt>
      <trkpt lat="43.47122" lon="5.4498">
        <ele>226.53246851329</ele>
        <time>2018-01-24T12:52:14Z</time>
      </trkpt>
      <trkpt lat="43.4712" lon="5.44992">
        <ele>226.45518775645</ele>
        <time>2018-01-24T12:52:28Z</time>
      </trkpt>
      <trkpt lat="43.47114" lon="5.45001">
        <ele>226.38768188293</ele>
        <time>2018-01-24T12:52:36Z</time>
      </trkpt>
      <trkpt lat="43.4711" lon="5.45012">
        <ele>226.30620206489</ele>
        <time>2018-01-24T12:52:45Z</time>
      </trkpt>
      <trkpt lat="43.47105" lon="5.45022">
        <ele>226.23802232595</ele>
        <time>2018-01-24T12:52:54Z</time>
      </trkpt>
      <trkpt lat="43.47101" lon="5.45032">
        <ele>226.19018039586</ele>
        <time>2018-01-24T12:53:02Z</time>
      </trkpt>
      <trkpt lat="43.47096" lon="5.45041">
        <ele>226.13347183606</ele>
        <time>2018-01-24T12:53:12Z</time>
      </trkpt>
      <trkpt lat="43.47096" lon="5.45053">
        <ele>226.08368979014</ele>
        <time>2018-01-24T12:53:24Z</time>
      </trkpt>
      <trkpt lat="43.47094" lon="5.45064">
        <ele>226.0675532743</ele>
        <time>2018-01-24T12:53:34Z</time>
      </trkpt>
      <trkpt lat="43.47096" lon="5.45076">
        <ele>226.04488527915</ele>
        <time>2018-01-24T12:53:46Z</time>
      </trkpt>
      <trkpt lat="43.471" lon="5.45086">
        <ele>225.98389847081</ele>
        <time>2018-01-24T12:54:01Z</time>
      </trkpt>
      <trkpt lat="43.47101" lon="5.45097">
        <ele>225.94998617116</ele>
        <time>2018-01-24T12:54:12Z</time>
      </trkpt>
      <trkpt lat="43.47105" lon="5.45108">
        <ele>225.93329764059</ele>
        <time>2018-01-24T12:54:21Z</time>
      </trkpt>
      <trkpt lat="43.47112" lon="5.45115">
        <ele>225.9255460979</ele>
        <time>2018-01-24T12:54:31Z</time>
      </trkpt>
      <trkpt lat="43.47118" lon="5.45123">
        <ele>225.90131862706</ele>
        <time>2018-01-24T12:54:51Z</time>
      </trkpt>
      <trkpt lat="43.47126" lon="5.45129">
        <ele>225.88242613256</ele>
        <time>2018-01-24T12:55:01Z</time>
      </trkpt>
      <trkpt lat="43.47131" lon="5.45139">
        <ele>225.874214811</ele>
        <time>2018-01-24T12:55:10Z</time>
      </trkpt>
      <trkpt lat="43.47137" lon="5.45147">
        <ele>225.87436732832</ele>
        <time>2018-01-24T12:55:21Z</time>
      </trkpt>
      <trkpt lat="43.47142" lon="5.45157">
        <ele>225.89871105503</ele>
        <time>2018-01-24T12:55:34Z</time>
      </trkpt>
      <trkpt lat="43.47146" lon="5.45167">
        <ele>225.92168295602</ele>
        <time>2018-01-24T12:55:43Z</time>
      </trkpt>
      <trkpt lat="43.47151" lon="5.45177">
        <ele>225.98760611832</ele>
        <time>2018-01-24T12:55:56Z</time>
      </trkpt>
      <trkpt lat="43.47155" lon="5.45188">
        <ele>226.05516835603</ele>
        <time>2018-01-24T12:56:05Z</time>
      </trkpt>
      <trkpt lat="43.47161" lon="5.45197">
        <ele>226.11792853177</ele>
        <time>2018-01-24T12:56:12Z</time>
      </trkpt>
      <trkpt lat="43.47164" lon="5.45207">
        <ele>226.17203765558</ele>
        <time>2018-01-24T12:56:18Z</time>
      </trkpt>
      <trkpt lat="43.47169" lon="5.45216">
        <ele>226.2342988675</ele>
        <time>2018-01-24T12:56:25Z</time>
      </trkpt>
      <trkpt lat="43.47174" lon="5.45226">
        <ele>226.30269386438</ele>
        <time>2018-01-24T12:56:32Z</time>
      </trkpt>
      <trkpt lat="43.47177" lon="5.45236">
        <ele>226.41030703107</ele>
        <time>2018-01-24T12:56:42Z</time>
      </trkpt>
      <trkpt lat="43.47179" lon="5.45246">
        <ele>226.5405666386</ele>
        <time>2018-01-24T12:56:52Z</time>
      </trkpt>
      <trkpt lat="43.47183" lon="5.45257">
        <ele>226.63406602846</ele>
        <time>2018-01-24T12:56:58Z</time>
      </trkpt>
      <trkpt lat="43.47186" lon="5.45267">
        <ele>226.7701622773</ele>
        <time>2018-01-24T12:57:06Z</time>
      </trkpt>
      <trkpt lat="43.47189" lon="5.45278">
        <ele>226.89549064206</ele>
        <time>2018-01-24T12:57:13Z</time>
      </trkpt>
      <trkpt lat="43.47191" lon="5.4529">
        <ele>227.02257082848</ele>
        <time>2018-01-24T12:57:20Z</time>
      </trkpt>
      <trkpt lat="43.47193" lon="5.453">
        <ele>227.15004755028</ele>
        <time>2018-01-24T12:57:27Z</time>
      </trkpt>
      <trkpt lat="43.47197" lon="5.45311">
        <ele>227.31712094205</ele>
        <time>2018-01-24T12:57:36Z</time>
      </trkpt>
      <trkpt lat="43.47201" lon="5.45322">
        <ele>227.48538371745</ele>
        <time>2018-01-24T12:57:44Z</time>
      </trkpt>
      <trkpt lat="43.47205" lon="5.45332">
        <ele>227.74609872969</ele>
        <time>2018-01-24T12:57:55Z</time>
      </trkpt>
      <trkpt lat="43.47212" lon="5.4534">
        <ele>228.16653080701</ele>
        <time>2018-01-24T12:58:14Z</time>
      </trkpt>
      <trkpt lat="43.47221" lon="5.45343">
        <ele>228.31378046357</ele>
        <time>2018-01-24T12:58:21Z</time>
      </trkpt>
      <trkpt lat="43.47228" lon="5.45346">
        <ele>228.71647937871</ele>
        <time>2018-01-24T12:58:40Z</time>
      </trkpt>
      <trkpt lat="43.47237" lon="5.45345">
        <ele>228.91928863211</ele>
        <time>2018-01-24T12:58:47Z</time>
      </trkpt>
      <trkpt lat="43.47243" lon="5.45347">
        <ele>229.04375926834</ele>
        <time>2018-01-24T12:58:51Z</time>
      </trkpt>
      <trkpt lat="43.47251" lon="5.45353">
        <ele>229.23283432175</ele>
        <time>2018-01-24T12:58:57Z</time>
      </trkpt>
      <trkpt lat="43.4726" lon="5.45354">
        <ele>229.59692162796</ele>
        <time>2018-01-24T12:59:07Z</time>
      </trkpt>
      <trkpt lat="43.47268" lon="5.4536">
        <ele>229.86858877344</ele>
        <time>2018-01-24T12:59:13Z</time>
      </trkpt>
      <trkpt lat="43.47272" lon="5.45367">
        <ele>230.16904535832</ele>
        <time>2018-01-24T12:59:19Z</time>
      </trkpt>
      <trkpt lat="43.47279" lon="5.45375">
        <ele>230.37029611169</ele>
        <time>2018-01-24T12:59:23Z</time>
      </trkpt>
      <trkpt lat="43.47287" lon="5.45379">
        <ele>230.93813110134</ele>
        <time>2018-01-24T12:59:33Z</time>
      </trkpt>
      <trkpt lat="43.47293" lon="5.45385">
        <ele>231.45462002822</ele>
        <time>2018-01-24T12:59:41Z</time>
      </trkpt>
      <trkpt lat="43.47299" lon="5.45395">
        <ele>231.78248418712</ele>
        <time>2018-01-24T12:59:46Z</time>
      </trkpt>
      <trkpt lat="43.47302" lon="5.45405">
        <ele>232.11744198252</ele>
        <time>2018-01-24T12:59:51Z</time>
      </trkpt>
      <trkpt lat="43.47306" lon="5.45415">
        <ele>232.67382678108</ele>
        <time>2018-01-24T12:59:59Z</time>
      </trkpt>
      <trkpt lat="43.4731" lon="5.45426">
        <ele>233.43777660491</ele>
        <time>2018-01-24T13:00:14Z</time>
      </trkpt>
      <trkpt lat="43.47312" lon="5.45437">
        <ele>234.01842998159</ele>
        <time>2018-01-24T13:00:25Z</time>
      </trkpt>
      <trkpt lat="43.47318" lon="5.45446">
        <ele>234.46312104934</ele>
        <time>2018-01-24T13:00:30Z</time>
      </trkpt>
      <trkpt lat="43.47323" lon="5.45456">
        <ele>234.92194845814</ele>
        <time>2018-01-24T13:00:38Z</time>
      </trkpt>
      <trkpt lat="43.47327" lon="5.45467">
        <ele>235.71499154333</ele>
        <time>2018-01-24T13:00:49Z</time>
      </trkpt>
      <trkpt lat="43.47331" lon="5.45477">
        <ele>236.14738911256</ele>
        <time>2018-01-24T13:00:58Z</time>
      </trkpt>
      <trkpt lat="43.47336" lon="5.45487">
        <ele>236.48538246824</ele>
        <time>2018-01-24T13:01:03Z</time>
      </trkpt>
      <trkpt lat="43.47341" lon="5.45498">
        <ele>236.91161841094</ele>
        <time>2018-01-24T13:01:10Z</time>
      </trkpt>
      <trkpt lat="43.47346" lon="5.45508">
        <ele>237.35073772348</ele>
        <time>2018-01-24T13:01:18Z</time>
      </trkpt>
      <trkpt lat="43.47349" lon="5.45518">
        <ele>237.82142816331</ele>
        <time>2018-01-24T13:01:28Z</time>
      </trkpt>
      <trkpt lat="43.47358" lon="5.45518">
        <ele>238.07824722506</ele>
        <time>2018-01-24T13:01:34Z</time>
      </trkpt>
      <trkpt lat="43.47365" lon="5.45519">
        <ele>238.292850655</ele>
        <time>2018-01-24T13:01:40Z</time>
      </trkpt>
      <trkpt lat="43.47371" lon="5.45526">
        <ele>238.66852262156</ele>
        <time>2018-01-24T13:01:49Z</time>
      </trkpt>
      <trkpt lat="43.4738" lon="5.45526">
        <ele>238.98247702967</ele>
        <time>2018-01-24T13:01:58Z</time>
      </trkpt>
      <trkpt lat="43.47388" lon="5.45524">
        <ele>239.25343126244</ele>
        <time>2018-01-24T13:02:06Z</time>
      </trkpt>
      <trkpt lat="43.47395" lon="5.45518">
        <ele>239.45073572188</ele>
        <time>2018-01-24T13:02:12Z</time>
      </trkpt>
      <trkpt lat="43.47403" lon="5.45512">
        <ele>239.65937898467</ele>
        <time>2018-01-24T13:02:18Z</time>
      </trkpt>
      <trkpt lat="43.47411" lon="5.45508">
        <ele>239.83941798386</ele>
        <time>2018-01-24T13:02:26Z</time>
      </trkpt>
      <trkpt lat="43.47418" lon="5.455">
        <ele>240.09594604759</ele>
        <time>2018-01-24T13:02:36Z</time>
      </trkpt>
      <trkpt lat="43.47424" lon="5.45493">
        <ele>240.53662923127</ele>
        <time>2018-01-24T13:02:46Z</time>
      </trkpt>
      <trkpt lat="43.47432" lon="5.45488">
        <ele>240.7612740878</ele>
        <time>2018-01-24T13:02:53Z</time>
      </trkpt>
      <trkpt lat="43.47439" lon="5.45481">
        <ele>241.06070596594</ele>
        <time>2018-01-24T13:03:01Z</time>
      </trkpt>
      <trkpt lat="43.47446" lon="5.45473">
        <ele>241.41765143133</ele>
        <time>2018-01-24T13:03:09Z</time>
      </trkpt>
      <trkpt lat="43.4745" lon="5.45464">
        <ele>241.89156238399</ele>
        <time>2018-01-24T13:03:20Z</time>
      </trkpt>
      <trkpt lat="43.47456" lon="5.45455">
        <ele>243.83632529676</ele>
        <time>2018-01-24T13:04:36Z</time>
      </trkpt>
      <trkpt lat="43.47464" lon="5.45451">
        <ele>244.68933881661</ele>
        <time>2018-01-24T13:04:42Z</time>
      </trkpt>
      <trkpt lat="43.47471" lon="5.45444">
        <ele>245.68699978286</ele>
        <time>2018-01-24T13:04:52Z</time>
      </trkpt>
      <trkpt lat="43.47477" lon="5.45436">
        <ele>246.48692385534</ele>
        <time>2018-01-24T13:04:59Z</time>
      </trkpt>
      <trkpt lat="43.47485" lon="5.45431">
        <ele>247.37827418104</ele>
        <time>2018-01-24T13:05:10Z</time>
      </trkpt>
      <trkpt lat="43.47491" lon="5.45422">
        <ele>248.21053958589</ele>
        <time>2018-01-24T13:05:22Z</time>
      </trkpt>
      <trkpt lat="43.47497" lon="5.45413">
        <ele>248.83305474079</ele>
        <time>2018-01-24T13:05:30Z</time>
      </trkpt>
      <trkpt lat="43.47505" lon="5.45408">
        <ele>249.55549231119</ele>
        <time>2018-01-24T13:05:42Z</time>
      </trkpt>
      <trkpt lat="43.47512" lon="5.45404">
        <ele>249.99689199321</ele>
        <time>2018-01-24T13:05:49Z</time>
      </trkpt>
      <trkpt lat="43.47519" lon="5.45398">
        <ele>250.46830181457</ele>
        <time>2018-01-24T13:05:57Z</time>
      </trkpt>
      <trkpt lat="43.47527" lon="5.45396">
        <ele>251.14999489263</ele>
        <time>2018-01-24T13:06:10Z</time>
      </trkpt>
      <trkpt lat="43.47534" lon="5.45393">
        <ele>251.6305671453</ele>
        <time>2018-01-24T13:06:20Z</time>
      </trkpt>
      <trkpt lat="43.47543" lon="5.45388">
        <ele>252.03131140103</ele>
        <time>2018-01-24T13:06:29Z</time>
      </trkpt>
      <trkpt lat="43.4755" lon="5.45386">
        <ele>252.35025828642</ele>
        <time>2018-01-24T13:06:37Z</time>
      </trkpt>
      <trkpt lat="43.47559" lon="5.45386">
        <ele>252.68567376472</ele>
        <time>2018-01-24T13:06:46Z</time>
      </trkpt>
      <trkpt lat="43.47568" lon="5.45387">
        <ele>253.06986796114</ele>
        <time>2018-01-24T13:06:57Z</time>
      </trkpt>
      <trkpt lat="43.47576" lon="5.45384">
        <ele>253.36065520369</ele>
        <time>2018-01-24T13:07:06Z</time>
      </trkpt>
      <trkpt lat="43.4758" lon="5.45373">
        <ele>253.71453320468</ele>
        <time>2018-01-24T13:07:20Z</time>
      </trkpt>
      <trkpt lat="43.47575" lon="5.45365">
        <ele>253.91528731987</ele>
        <time>2018-01-24T13:07:26Z</time>
      </trkpt>
      <trkpt lat="43.47569" lon="5.45357">
        <ele>254.16283991438</ele>
        <time>2018-01-24T13:07:31Z</time>
      </trkpt>
      <trkpt lat="43.47561" lon="5.45351">
        <ele>254.65429258955</ele>
        <time>2018-01-24T13:07:42Z</time>
      </trkpt>
      <trkpt lat="43.47553" lon="5.45345">
        <ele>255.03432236719</ele>
        <time>2018-01-24T13:07:52Z</time>
      </trkpt>
      <trkpt lat="43.47546" lon="5.45338">
        <ele>255.29969274301</ele>
        <time>2018-01-24T13:08:00Z</time>
      </trkpt>
      <trkpt lat="43.47539" lon="5.45332">
        <ele>255.55537483288</ele>
        <time>2018-01-24T13:08:08Z</time>
      </trkpt>
      <trkpt lat="43.47532" lon="5.45325">
        <ele>255.8272767569</ele>
        <time>2018-01-24T13:08:19Z</time>
      </trkpt>
      <trkpt lat="43.47524" lon="5.4532">
        <ele>256.10090736394</ele>
        <time>2018-01-24T13:08:29Z</time>
      </trkpt>
      <trkpt lat="43.47519" lon="5.45309">
        <ele>256.914747442</ele>
        <time>2018-01-24T13:08:55Z</time>
      </trkpt>
      <trkpt lat="43.47525" lon="5.453">
        <ele>257.78975107599</ele>
        <time>2018-01-24T13:09:26Z</time>
      </trkpt>
      <trkpt lat="43.47534" lon="5.453">
        <ele>258.27715214656</ele>
        <time>2018-01-24T13:09:35Z</time>
      </trkpt>
      <trkpt lat="43.47542" lon="5.45305">
        <ele>258.89801616893</ele>
        <time>2018-01-24T13:09:49Z</time>
      </trkpt>
      <trkpt lat="43.47548" lon="5.45311">
        <ele>259.26210597311</ele>
        <time>2018-01-24T13:09:58Z</time>
      </trkpt>
      <trkpt lat="43.47555" lon="5.45315">
        <ele>259.53682991824</ele>
        <time>2018-01-24T13:10:07Z</time>
      </trkpt>
      <trkpt lat="43.47564" lon="5.45312">
        <ele>259.62637947535</ele>
        <time>2018-01-24T13:10:15Z</time>
      </trkpt>
      <trkpt lat="43.47573" lon="5.45312">
        <ele>259.86677642692</ele>
        <time>2018-01-24T13:10:23Z</time>
      </trkpt>
      <trkpt lat="43.47581" lon="5.4531">
        <ele>260.71091589394</ele>
        <time>2018-01-24T13:10:37Z</time>
      </trkpt>
      <trkpt lat="43.47589" lon="5.45309">
        <ele>261.90864844567</ele>
        <time>2018-01-24T13:10:46Z</time>
      </trkpt>
      <trkpt lat="43.47598" lon="5.45307">
        <ele>263.22700731144</ele>
        <time>2018-01-24T13:10:55Z</time>
      </trkpt>
      <trkpt lat="43.47606" lon="5.45306">
        <ele>264.46224496021</ele>
        <time>2018-01-24T13:11:04Z</time>
      </trkpt>
      <trkpt lat="43.47614" lon="5.45302">
        <ele>265.82883904415</ele>
        <time>2018-01-24T13:11:17Z</time>
      </trkpt>
      <trkpt lat="43.47622" lon="5.453">
        <ele>267.63927493991</ele>
        <time>2018-01-24T13:11:31Z</time>
      </trkpt>
      <trkpt lat="43.47631" lon="5.45296">
        <ele>269.59687303681</ele>
        <time>2018-01-24T13:11:45Z</time>
      </trkpt>
      <trkpt lat="43.47639" lon="5.45293">
        <ele>270.5742778037</ele>
        <time>2018-01-24T13:11:53Z</time>
      </trkpt>
      <trkpt lat="43.47647" lon="5.45292">
        <ele>272.204857311</ele>
        <time>2018-01-24T13:12:04Z</time>
      </trkpt>
      <trkpt lat="43.47655" lon="5.4529">
        <ele>273.31656502943</ele>
        <time>2018-01-24T13:12:13Z</time>
      </trkpt>
      <trkpt lat="43.47662" lon="5.45283">
        <ele>275.24169118603</ele>
        <time>2018-01-24T13:12:25Z</time>
      </trkpt>
      <trkpt lat="43.4767" lon="5.45279">
        <ele>276.85492457613</ele>
        <time>2018-01-24T13:12:36Z</time>
      </trkpt>
      <trkpt lat="43.47678" lon="5.45274">
        <ele>278.6335739031</ele>
        <time>2018-01-24T13:12:48Z</time>
      </trkpt>
      <trkpt lat="43.47684" lon="5.45267">
        <ele>279.99995552694</ele>
        <time>2018-01-24T13:12:59Z</time>
      </trkpt>
      <trkpt lat="43.4769" lon="5.45259">
        <ele>281.57978549835</ele>
        <time>2018-01-24T13:13:09Z</time>
      </trkpt>
      <trkpt lat="43.47698" lon="5.45254">
        <ele>283.44987973452</ele>
        <time>2018-01-24T13:13:22Z</time>
      </trkpt>
      <trkpt lat="43.47706" lon="5.4525">
        <ele>285.49523026991</ele>
        <time>2018-01-24T13:13:39Z</time>
      </trkpt>
      <trkpt lat="43.47711" lon="5.45242">
        <ele>286.82716546059</ele>
        <time>2018-01-24T13:13:50Z</time>
      </trkpt>
      <trkpt lat="43.47718" lon="5.45234">
        <ele>287.61459267631</ele>
        <time>2018-01-24T13:13:56Z</time>
      </trkpt>
      <trkpt lat="43.47724" lon="5.45226">
        <ele>289.07303505774</ele>
        <time>2018-01-24T13:14:09Z</time>
      </trkpt>
      <trkpt lat="43.4773" lon="5.45218">
        <ele>290.03529897658</ele>
        <time>2018-01-24T13:14:18Z</time>
      </trkpt>
      <trkpt lat="43.47736" lon="5.45209">
        <ele>291.68251657293</ele>
        <time>2018-01-24T13:14:36Z</time>
      </trkpt>
      <trkpt lat="43.47741" lon="5.452">
        <ele>292.54059230831</ele>
        <time>2018-01-24T13:14:46Z</time>
      </trkpt>
      <trkpt lat="43.47747" lon="5.4519">
        <ele>293.3172560269</ele>
        <time>2018-01-24T13:14:58Z</time>
      </trkpt>
      <trkpt lat="43.47753" lon="5.45181">
        <ele>293.99819885872</ele>
        <time>2018-01-24T13:15:09Z</time>
      </trkpt>
      <trkpt lat="43.47757" lon="5.45173">
        <ele>294.4268202457</ele>
        <time>2018-01-24T13:15:16Z</time>
      </trkpt>
      <trkpt lat="43.47764" lon="5.45166">
        <ele>295.17235907622</ele>
        <time>2018-01-24T13:15:29Z</time>
      </trkpt>
      <trkpt lat="43.4777" lon="5.4516">
        <ele>295.67834345584</ele>
        <time>2018-01-24T13:15:38Z</time>
      </trkpt>
      <trkpt lat="43.47777" lon="5.45152">
        <ele>296.29416037911</ele>
        <time>2018-01-24T13:15:50Z</time>
      </trkpt>
      <trkpt lat="43.47782" lon="5.45143">
        <ele>297.10246750578</ele>
        <time>2018-01-24T13:16:06Z</time>
      </trkpt>
      <trkpt lat="43.47788" lon="5.45136">
        <ele>297.59663514175</ele>
        <time>2018-01-24T13:16:16Z</time>
      </trkpt>
      <trkpt lat="43.47794" lon="5.45131">
        <ele>298.02110981212</ele>
        <time>2018-01-24T13:16:26Z</time>
      </trkpt>
      <trkpt lat="43.47798" lon="5.45121">
        <ele>298.58671074572</ele>
        <time>2018-01-24T13:16:41Z</time>
      </trkpt>
      <trkpt lat="43.47804" lon="5.45114">
        <ele>298.9580027896</ele>
        <time>2018-01-24T13:16:51Z</time>
      </trkpt>
      <trkpt lat="43.47809" lon="5.45103">
        <ele>299.29401287511</ele>
        <time>2018-01-24T13:17:02Z</time>
      </trkpt>
      <trkpt lat="43.4781" lon="5.45093">
        <ele>299.58665064263</ele>
        <time>2018-01-24T13:17:09Z</time>
      </trkpt>
      <trkpt lat="43.47811" lon="5.45082">
        <ele>299.92109562903</ele>
        <time>2018-01-24T13:17:20Z</time>
      </trkpt>
      <trkpt lat="43.47809" lon="5.45071">
        <ele>300.31822397625</ele>
        <time>2018-01-24T13:17:31Z</time>
      </trkpt>
      <trkpt lat="43.47808" lon="5.45059">
        <ele>300.55280445257</ele>
        <time>2018-01-24T13:17:38Z</time>
      </trkpt>
      <trkpt lat="43.47804" lon="5.4505">
        <ele>300.72413447216</ele>
        <time>2018-01-24T13:17:43Z</time>
      </trkpt>
      <trkpt lat="43.47805" lon="5.45038">
        <ele>300.90747741391</ele>
        <time>2018-01-24T13:17:48Z</time>
      </trkpt>
      <trkpt lat="43.47799" lon="5.45031">
        <ele>301.4004564825</ele>
        <time>2018-01-24T13:18:00Z</time>
      </trkpt>
      <trkpt lat="43.47798" lon="5.45019">
        <ele>302.48302609714</ele>
        <time>2018-01-24T13:18:40Z</time>
      </trkpt>
      <trkpt lat="43.47794" lon="5.45008">
        <ele>306.54718432948</ele>
        <time>2018-01-24T13:20:25Z</time>
      </trkpt>
      <trkpt lat="43.47787" lon="5.45009">
        <ele>312.40840215536</ele>
        <time>2018-01-24T13:22:12Z</time>
      </trkpt>
      <trkpt lat="43.47779" lon="5.45014">
        <ele>314.11907744352</ele>
        <time>2018-01-24T13:22:26Z</time>
      </trkpt>
      <trkpt lat="43.4777" lon="5.4501">
        <ele>315.2333063138</ele>
        <time>2018-01-24T13:22:37Z</time>
      </trkpt>
      <trkpt lat="43.47762" lon="5.4501">
        <ele>315.98257289883</ele>
        <time>2018-01-24T13:22:44Z</time>
      </trkpt>
      <trkpt lat="43.47754" lon="5.4501">
        <ele>316.65998353248</ele>
        <time>2018-01-24T13:22:52Z</time>
      </trkpt>
      <trkpt lat="43.47746" lon="5.45009">
        <ele>317.43481794345</ele>
        <time>2018-01-24T13:23:01Z</time>
      </trkpt>
      <trkpt lat="43.47738" lon="5.45009">
        <ele>318.47056256949</ele>
        <time>2018-01-24T13:23:14Z</time>
      </trkpt>
      <trkpt lat="43.47729" lon="5.45008">
        <ele>319.33659376481</ele>
        <time>2018-01-24T13:23:27Z</time>
      </trkpt>
      <trkpt lat="43.47722" lon="5.45004">
        <ele>320.22752540173</ele>
        <time>2018-01-24T13:23:42Z</time>
      </trkpt>
      <trkpt lat="43.47714" lon="5.44998">
        <ele>320.94548840744</ele>
        <time>2018-01-24T13:23:56Z</time>
      </trkpt>
      <trkpt lat="43.47707" lon="5.44997">
        <ele>321.13866765573</ele>
        <time>2018-01-24T13:24:01Z</time>
      </trkpt>
      <trkpt lat="43.47699" lon="5.45">
        <ele>321.43139470498</ele>
        <time>2018-01-24T13:24:07Z</time>
      </trkpt>
      <trkpt lat="43.47692" lon="5.4499">
        <ele>321.66990599968</ele>
        <time>2018-01-24T13:24:12Z</time>
      </trkpt>
      <trkpt lat="43.47686" lon="5.44982">
        <ele>322.05243411652</ele>
        <time>2018-01-24T13:24:20Z</time>
      </trkpt>
      <trkpt lat="43.47681" lon="5.44973">
        <ele>322.38491166901</ele>
        <time>2018-01-24T13:24:27Z</time>
      </trkpt>
      <trkpt lat="43.47677" lon="5.44963">
        <ele>323.09404531655</ele>
        <time>2018-01-24T13:24:43Z</time>
      </trkpt>
      <trkpt lat="43.47674" lon="5.44952">
        <ele>323.36410091916</ele>
        <time>2018-01-24T13:24:49Z</time>
      </trkpt>
      <trkpt lat="43.47672" lon="5.44941">
        <ele>323.58349128519</ele>
        <time>2018-01-24T13:24:56Z</time>
      </trkpt>
      <trkpt lat="43.4767" lon="5.44929">
        <ele>323.83149402328</ele>
        <time>2018-01-24T13:25:02Z</time>
      </trkpt>
      <trkpt lat="43.47668" lon="5.44917">
        <ele>324.16395677072</ele>
        <time>2018-01-24T13:25:13Z</time>
      </trkpt>
      <trkpt lat="43.47669" lon="5.44906">
        <ele>324.49510446137</ele>
        <time>2018-01-24T13:25:23Z</time>
      </trkpt>
      <trkpt lat="43.47667" lon="5.44894">
        <ele>324.83002726878</ele>
        <time>2018-01-24T13:25:33Z</time>
      </trkpt>
      <trkpt lat="43.47663" lon="5.44884">
        <ele>325.03336792014</ele>
        <time>2018-01-24T13:25:41Z</time>
      </trkpt>
      <trkpt lat="43.47659" lon="5.44874">
        <ele>325.1751092384</ele>
        <time>2018-01-24T13:25:46Z</time>
      </trkpt>
      <trkpt lat="43.47656" lon="5.44863">
        <ele>325.39782837499</ele>
        <time>2018-01-24T13:25:54Z</time>
      </trkpt>
      <trkpt lat="43.47656" lon="5.44851">
        <ele>325.69377940362</ele>
        <time>2018-01-24T13:26:05Z</time>
      </trkpt>
      <trkpt lat="43.47656" lon="5.44842">
        <ele>325.90896344749</ele>
        <time>2018-01-24T13:26:15Z</time>
      </trkpt>
      <trkpt lat="43.47655" lon="5.44832">
        <ele>326.04528978209</ele>
        <time>2018-01-24T13:26:21Z</time>
      </trkpt>
      <trkpt lat="43.47655" lon="5.44822">
        <ele>326.18609468572</ele>
        <time>2018-01-24T13:26:30Z</time>
      </trkpt>
      <trkpt lat="43.47655" lon="5.44809">
        <ele>326.37635180954</ele>
        <time>2018-01-24T13:26:40Z</time>
      </trkpt>
      <trkpt lat="43.47657" lon="5.44798">
        <ele>326.57364875144</ele>
        <time>2018-01-24T13:26:50Z</time>
      </trkpt>
      <trkpt lat="43.47658" lon="5.44786">
        <ele>326.75109877873</ele>
        <time>2018-01-24T13:26:57Z</time>
      </trkpt>
      <trkpt lat="43.47658" lon="5.44774">
        <ele>326.93109767444</ele>
        <time>2018-01-24T13:27:06Z</time>
      </trkpt>
      <trkpt lat="43.47661" lon="5.44762">
        <ele>327.2017488713</ele>
        <time>2018-01-24T13:27:18Z</time>
      </trkpt>
      <trkpt lat="43.47659" lon="5.44751">
        <ele>327.36916473475</ele>
        <time>2018-01-24T13:27:26Z</time>
      </trkpt>
      <trkpt lat="43.47657" lon="5.44741">
        <ele>327.50610585621</ele>
        <time>2018-01-24T13:27:32Z</time>
      </trkpt>
      <trkpt lat="43.47656" lon="5.44729">
        <ele>327.66501817435</ele>
        <time>2018-01-24T13:27:41Z</time>
      </trkpt>
      <trkpt lat="43.47654" lon="5.44718">
        <ele>327.81842853799</ele>
        <time>2018-01-24T13:27:48Z</time>
      </trkpt>
      <trkpt lat="43.47657" lon="5.44707">
        <ele>328.02903873996</ele>
        <time>2018-01-24T13:28:00Z</time>
      </trkpt>
      <trkpt lat="43.47661" lon="5.44697">
        <ele>328.24953326796</ele>
        <time>2018-01-24T13:28:10Z</time>
      </trkpt>
      <trkpt lat="43.47663" lon="5.44687">
        <ele>328.44276677521</ele>
        <time>2018-01-24T13:28:21Z</time>
      </trkpt>
      <trkpt lat="43.47666" lon="5.44677">
        <ele>328.57778194201</ele>
        <time>2018-01-24T13:28:28Z</time>
      </trkpt>
      <trkpt lat="43.47669" lon="5.44666">
        <ele>328.76191904116</ele>
        <time>2018-01-24T13:28:38Z</time>
      </trkpt>
      <trkpt lat="43.4767" lon="5.44655">
        <ele>328.87767572037</ele>
        <time>2018-01-24T13:28:44Z</time>
      </trkpt>
      <trkpt lat="43.47673" lon="5.44645">
        <ele>329.05410555901</ele>
        <time>2018-01-24T13:28:53Z</time>
      </trkpt>
      <trkpt lat="43.47675" lon="5.44634">
        <ele>329.18291885038</ele>
        <time>2018-01-24T13:29:00Z</time>
      </trkpt>
      <trkpt lat="43.47679" lon="5.44623">
        <ele>329.32763272937</ele>
        <time>2018-01-24T13:29:08Z</time>
      </trkpt>
      <trkpt lat="43.47683" lon="5.44614">
        <ele>329.45870649534</ele>
        <time>2018-01-24T13:29:16Z</time>
      </trkpt>
      <trkpt lat="43.47687" lon="5.44606">
        <ele>329.53731899391</ele>
        <time>2018-01-24T13:29:20Z</time>
      </trkpt>
      <trkpt lat="43.47691" lon="5.44595">
        <ele>329.65493382348</ele>
        <time>2018-01-24T13:29:28Z</time>
      </trkpt>
      <trkpt lat="43.47695" lon="5.44586">
        <ele>329.76643607259</ele>
        <time>2018-01-24T13:29:34Z</time>
      </trkpt>
      <trkpt lat="43.477" lon="5.44576">
        <ele>329.89948106925</ele>
        <time>2018-01-24T13:29:43Z</time>
      </trkpt>
      <trkpt lat="43.47705" lon="5.44567">
        <ele>329.99108252934</ele>
        <time>2018-01-24T13:29:51Z</time>
      </trkpt>
      <trkpt lat="43.47709" lon="5.44559">
        <ele>330.08237587551</ele>
        <time>2018-01-24T13:29:59Z</time>
      </trkpt>
      <trkpt lat="43.47715" lon="5.44551">
        <ele>330.18135883678</ele>
        <time>2018-01-24T13:30:07Z</time>
      </trkpt>
      <trkpt lat="43.47722" lon="5.44544">
        <ele>330.26627794021</ele>
        <time>2018-01-24T13:30:15Z</time>
      </trkpt>
      <trkpt lat="43.47727" lon="5.44534">
        <ele>330.36672947901</ele>
        <time>2018-01-24T13:30:25Z</time>
      </trkpt>
      <trkpt lat="43.47732" lon="5.44524">
        <ele>330.4198371466</ele>
        <time>2018-01-24T13:30:32Z</time>
      </trkpt>
      <trkpt lat="43.47736" lon="5.44514">
        <ele>330.49694634093</ele>
        <time>2018-01-24T13:30:42Z</time>
      </trkpt>
      <trkpt lat="43.4774" lon="5.44505">
        <ele>330.54783733113</ele>
        <time>2018-01-24T13:30:51Z</time>
      </trkpt>
      <trkpt lat="43.47743" lon="5.44495">
        <ele>330.56942474587</ele>
        <time>2018-01-24T13:30:57Z</time>
      </trkpt>
      <trkpt lat="43.47747" lon="5.44486">
        <ele>330.57967032961</ele>
        <time>2018-01-24T13:31:02Z</time>
      </trkpt>
      <trkpt lat="43.47753" lon="5.44479">
        <ele>330.5797375727</ele>
        <time>2018-01-24T13:31:09Z</time>
      </trkpt>
      <trkpt lat="43.47759" lon="5.44471">
        <ele>330.56686560914</ele>
        <time>2018-01-24T13:31:17Z</time>
      </trkpt>
      <trkpt lat="43.47766" lon="5.44463">
        <ele>330.54771062246</ele>
        <time>2018-01-24T13:31:26Z</time>
      </trkpt>
      <trkpt lat="43.47773" lon="5.44457">
        <ele>330.50148694532</ele>
        <time>2018-01-24T13:31:35Z</time>
      </trkpt>
      <trkpt lat="43.47779" lon="5.44449">
        <ele>330.47364701795</ele>
        <time>2018-01-24T13:31:43Z</time>
      </trkpt>
      <trkpt lat="43.47786" lon="5.44442">
        <ele>330.43970520752</ele>
        <time>2018-01-24T13:31:53Z</time>
      </trkpt>
      <trkpt lat="43.47791" lon="5.44432">
        <ele>330.38395927224</ele>
        <time>2018-01-24T13:32:02Z</time>
      </trkpt>
      <trkpt lat="43.47798" lon="5.44423">
        <ele>330.28766756778</ele>
        <time>2018-01-24T13:32:14Z</time>
      </trkpt>
      <trkpt lat="43.47804" lon="5.44417">
        <ele>330.19260385294</ele>
        <time>2018-01-24T13:32:23Z</time>
      </trkpt>
      <trkpt lat="43.4781" lon="5.44408">
        <ele>330.10535893302</ele>
        <time>2018-01-24T13:32:31Z</time>
      </trkpt>
      <trkpt lat="43.47816" lon="5.44399">
        <ele>330.01525861602</ele>
        <time>2018-01-24T13:32:37Z</time>
      </trkpt>
      <trkpt lat="43.47821" lon="5.44388">
        <ele>329.87999168076</ele>
        <time>2018-01-24T13:32:44Z</time>
      </trkpt>
      <trkpt lat="43.47824" lon="5.44378">
        <ele>329.78079511784</ele>
        <time>2018-01-24T13:32:51Z</time>
      </trkpt>
      <trkpt lat="43.47825" lon="5.44367">
        <ele>329.65912673705</ele>
        <time>2018-01-24T13:32:59Z</time>
      </trkpt>
      <trkpt lat="43.47826" lon="5.44352">
        <ele>329.58821288366</ele>
        <time>2018-01-24T13:33:03Z</time>
      </trkpt>
      <trkpt lat="43.47828" lon="5.44341">
        <ele>329.47440626541</ele>
        <time>2018-01-24T13:33:13Z</time>
      </trkpt>
      <trkpt lat="43.47831" lon="5.4433">
        <ele>329.39301848771</ele>
        <time>2018-01-24T13:33:23Z</time>
      </trkpt>
      <trkpt lat="43.47832" lon="5.44319">
        <ele>329.32464851777</ele>
        <time>2018-01-24T13:33:31Z</time>
      </trkpt>
      <trkpt lat="43.47834" lon="5.44308">
        <ele>329.25681010664</ele>
        <time>2018-01-24T13:33:41Z</time>
      </trkpt>
      <trkpt lat="43.47833" lon="5.44297">
        <ele>329.44316992159</ele>
        <time>2018-01-24T13:34:47Z</time>
      </trkpt>
      <trkpt lat="43.47832" lon="5.44285">
        <ele>329.65849286552</ele>
        <time>2018-01-24T13:35:01Z</time>
      </trkpt>
      <trkpt lat="43.47832" lon="5.44273">
        <ele>329.80316349723</ele>
        <time>2018-01-24T13:35:15Z</time>
      </trkpt>
      <trkpt lat="43.47826" lon="5.44264">
        <ele>329.88000820153</ele>
        <time>2018-01-24T13:35:25Z</time>
      </trkpt>
      <trkpt lat="43.47823" lon="5.44255">
        <ele>330.00042229931</ele>
        <time>2018-01-24T13:35:37Z</time>
      </trkpt>
      <trkpt lat="43.47822" lon="5.44243">
        <ele>330.05342391143</ele>
        <time>2018-01-24T13:35:42Z</time>
      </trkpt>
      <trkpt lat="43.4782" lon="5.44232">
        <ele>330.12447680858</ele>
        <time>2018-01-24T13:35:52Z</time>
      </trkpt>
      <trkpt lat="43.47818" lon="5.4422">
        <ele>330.20496827367</ele>
        <time>2018-01-24T13:36:05Z</time>
      </trkpt>
      <trkpt lat="43.47816" lon="5.44209">
        <ele>330.27152320217</ele>
        <time>2018-01-24T13:36:16Z</time>
      </trkpt>
      <trkpt lat="43.47816" lon="5.44196">
        <ele>330.32144554431</ele>
        <time>2018-01-24T13:36:26Z</time>
      </trkpt>
      <trkpt lat="43.47817" lon="5.44185">
        <ele>330.36937637279</ele>
        <time>2018-01-24T13:36:37Z</time>
      </trkpt>
      <trkpt lat="43.47819" lon="5.44173">
        <ele>330.41556511458</ele>
        <time>2018-01-24T13:36:51Z</time>
      </trkpt>
      <trkpt lat="43.47823" lon="5.44162">
        <ele>330.41803683934</ele>
        <time>2018-01-24T13:37:02Z</time>
      </trkpt>
      <trkpt lat="43.47822" lon="5.44151">
        <ele>330.4153078304</ele>
        <time>2018-01-24T13:37:09Z</time>
      </trkpt>
      <trkpt lat="43.47822" lon="5.4414">
        <ele>330.42233384671</ele>
        <time>2018-01-24T13:37:18Z</time>
      </trkpt>
      <trkpt lat="43.47823" lon="5.44128">
        <ele>330.45229119996</ele>
        <time>2018-01-24T13:37:27Z</time>
      </trkpt>
      <trkpt lat="43.47821" lon="5.44116">
        <ele>330.52134876275</ele>
        <time>2018-01-24T13:37:42Z</time>
      </trkpt>
      <trkpt lat="43.47824" lon="5.44106">
        <ele>330.5816297946</ele>
        <time>2018-01-24T13:37:54Z</time>
      </trkpt>
      <trkpt lat="43.47827" lon="5.44096">
        <ele>330.62076652761</ele>
        <time>2018-01-24T13:38:00Z</time>
      </trkpt>
      <trkpt lat="43.47828" lon="5.44085">
        <ele>330.69221662833</ele>
        <time>2018-01-24T13:38:11Z</time>
      </trkpt>
      <trkpt lat="43.47828" lon="5.44074">
        <ele>330.77680246948</ele>
        <time>2018-01-24T13:38:22Z</time>
      </trkpt>
      <trkpt lat="43.47828" lon="5.44062">
        <ele>330.85947654972</ele>
        <time>2018-01-24T13:38:31Z</time>
      </trkpt>
      <trkpt lat="43.47828" lon="5.44049">
        <ele>330.9359820361</ele>
        <time>2018-01-24T13:38:42Z</time>
      </trkpt>
      <trkpt lat="43.47829" lon="5.4404">
        <ele>330.9894125654</ele>
        <time>2018-01-24T13:38:49Z</time>
      </trkpt>
      <trkpt lat="43.4783" lon="5.44028">
        <ele>331.03740856469</ele>
        <time>2018-01-24T13:38:56Z</time>
      </trkpt>
      <trkpt lat="43.47831" lon="5.44018">
        <ele>331.10613563367</ele>
        <time>2018-01-24T13:39:05Z</time>
      </trkpt>
      <trkpt lat="43.47834" lon="5.44007">
        <ele>331.15965835315</ele>
        <time>2018-01-24T13:39:14Z</time>
      </trkpt>
      <trkpt lat="43.47839" lon="5.43997">
        <ele>331.20858143149</ele>
        <time>2018-01-24T13:39:22Z</time>
      </trkpt>
      <trkpt lat="43.47839" lon="5.43985">
        <ele>331.24676159089</ele>
        <time>2018-01-24T13:39:31Z</time>
      </trkpt>
      <trkpt lat="43.47843" lon="5.43975">
        <ele>331.27583683796</ele>
        <time>2018-01-24T13:39:40Z</time>
      </trkpt>
      <trkpt lat="43.47845" lon="5.43963">
        <ele>331.31117014706</ele>
        <time>2018-01-24T13:39:50Z</time>
      </trkpt>
      <trkpt lat="43.47844" lon="5.43951">
        <ele>331.33401272455</ele>
        <time>2018-01-24T13:39:59Z</time>
      </trkpt>
      <trkpt lat="43.47846" lon="5.4394">
        <ele>331.33158732871</ele>
        <time>2018-01-24T13:40:08Z</time>
      </trkpt>
      <trkpt lat="43.47848" lon="5.43929">
        <ele>331.32258560223</ele>
        <time>2018-01-24T13:40:18Z</time>
      </trkpt>
      <trkpt lat="43.47846" lon="5.43919">
        <ele>331.31739196063</ele>
        <time>2018-01-24T13:40:24Z</time>
      </trkpt>
      <trkpt lat="43.47846" lon="5.43907">
        <ele>331.31442123406</ele>
        <time>2018-01-24T13:40:31Z</time>
      </trkpt>
      <trkpt lat="43.47848" lon="5.43897">
        <ele>331.32341502211</ele>
        <time>2018-01-24T13:40:40Z</time>
      </trkpt>
      <trkpt lat="43.47847" lon="5.43886">
        <ele>331.33951543592</ele>
        <time>2018-01-24T13:40:46Z</time>
      </trkpt>
      <trkpt lat="43.47847" lon="5.43875">
        <ele>331.35925527094</ele>
        <time>2018-01-24T13:40:51Z</time>
      </trkpt>
      <trkpt lat="43.47847" lon="5.43863">
        <ele>331.38763767739</ele>
        <time>2018-01-24T13:40:57Z</time>
      </trkpt>
      <trkpt lat="43.4785" lon="5.43852">
        <ele>331.42960244982</ele>
        <time>2018-01-24T13:41:05Z</time>
      </trkpt>
      <trkpt lat="43.47851" lon="5.43841">
        <ele>331.47787809166</ele>
        <time>2018-01-24T13:41:14Z</time>
      </trkpt>
      <trkpt lat="43.47852" lon="5.4383">
        <ele>331.51081881041</ele>
        <time>2018-01-24T13:41:21Z</time>
      </trkpt>
      <trkpt lat="43.47849" lon="5.43818">
        <ele>331.5708495783</ele>
        <time>2018-01-24T13:41:30Z</time>
      </trkpt>
      <trkpt lat="43.4785" lon="5.43807">
        <ele>331.61520284402</ele>
        <time>2018-01-24T13:41:38Z</time>
      </trkpt>
      <trkpt lat="43.47845" lon="5.43797">
        <ele>331.7175319322</ele>
        <time>2018-01-24T13:42:00Z</time>
      </trkpt>
      <trkpt lat="43.47838" lon="5.4379">
        <ele>331.82281126276</ele>
        <time>2018-01-24T13:42:11Z</time>
      </trkpt>
      <trkpt lat="43.47831" lon="5.43782">
        <ele>331.94568127043</ele>
        <time>2018-01-24T13:42:21Z</time>
      </trkpt>
      <trkpt lat="43.47824" lon="5.43775">
        <ele>332.02911515396</ele>
        <time>2018-01-24T13:42:30Z</time>
      </trkpt>
      <trkpt lat="43.47817" lon="5.43773">
        <ele>332.12384196558</ele>
        <time>2018-01-24T13:42:39Z</time>
      </trkpt>
      <trkpt lat="43.47809" lon="5.43767">
        <ele>332.21105936477</ele>
        <time>2018-01-24T13:42:47Z</time>
      </trkpt>
      <trkpt lat="43.47801" lon="5.43761">
        <ele>332.30480940198</ele>
        <time>2018-01-24T13:42:55Z</time>
      </trkpt>
      <trkpt lat="43.47793" lon="5.43756">
        <ele>332.3858753059</ele>
        <time>2018-01-24T13:43:04Z</time>
      </trkpt>
      <trkpt lat="43.47787" lon="5.43749">
        <ele>332.47112019288</ele>
        <time>2018-01-24T13:43:15Z</time>
      </trkpt>
      <trkpt lat="43.47779" lon="5.43744">
        <ele>332.56256293902</ele>
        <time>2018-01-24T13:43:24Z</time>
      </trkpt>
      <trkpt lat="43.47772" lon="5.43737">
        <ele>332.67419462918</ele>
        <time>2018-01-24T13:43:36Z</time>
      </trkpt>
      <trkpt lat="43.47764" lon="5.43733">
        <ele>332.76366670127</ele>
        <time>2018-01-24T13:43:44Z</time>
      </trkpt>
      <trkpt lat="43.47756" lon="5.43728">
        <ele>332.85284396053</ele>
        <time>2018-01-24T13:43:55Z</time>
      </trkpt>
      <trkpt lat="43.47749" lon="5.43722">
        <ele>332.94044908491</ele>
        <time>2018-01-24T13:44:03Z</time>
      </trkpt>
      <trkpt lat="43.47752" lon="5.43711">
        <ele>333.09065032228</ele>
        <time>2018-01-24T13:44:22Z</time>
      </trkpt>
      <trkpt lat="43.47751" lon="5.437">
        <ele>333.13020734646</ele>
        <time>2018-01-24T13:44:30Z</time>
      </trkpt>
      <trkpt lat="43.47752" lon="5.43687">
        <ele>333.18720963319</ele>
        <time>2018-01-24T13:44:44Z</time>
      </trkpt>
      <trkpt lat="43.47751" lon="5.43676">
        <ele>333.20727925685</ele>
        <time>2018-01-24T13:44:52Z</time>
      </trkpt>
      <trkpt lat="43.47752" lon="5.43664">
        <ele>333.20973048056</ele>
        <time>2018-01-24T13:45:06Z</time>
      </trkpt>
      <trkpt lat="43.47755" lon="5.43652">
        <ele>333.13505882327</ele>
        <time>2018-01-24T13:45:22Z</time>
      </trkpt>
      <trkpt lat="43.47756" lon="5.43641">
        <ele>333.01450904358</ele>
        <time>2018-01-24T13:45:38Z</time>
      </trkpt>
      <trkpt lat="43.47754" lon="5.4363">
        <ele>332.96660300972</ele>
        <time>2018-01-24T13:45:42Z</time>
      </trkpt>
      <trkpt lat="43.47755" lon="5.43619">
        <ele>332.89558622686</ele>
        <time>2018-01-24T13:45:50Z</time>
      </trkpt>
      <trkpt lat="43.47754" lon="5.43607">
        <ele>332.84347380938</ele>
        <time>2018-01-24T13:45:55Z</time>
      </trkpt>
      <trkpt lat="43.47755" lon="5.43595">
        <ele>332.61486719767</ele>
        <time>2018-01-24T13:46:18Z</time>
      </trkpt>
      <trkpt lat="43.47752" lon="5.43583">
        <ele>332.54303195484</ele>
        <time>2018-01-24T13:46:26Z</time>
      </trkpt>
      <trkpt lat="43.47752" lon="5.43572">
        <ele>332.31043728802</ele>
        <time>2018-01-24T13:46:46Z</time>
      </trkpt>
      <trkpt lat="43.47758" lon="5.43563">
        <ele>332.05078632648</ele>
        <time>2018-01-24T13:47:09Z</time>
      </trkpt>
      <trkpt lat="43.47759" lon="5.43551">
        <ele>331.45444990895</ele>
        <time>2018-01-24T13:47:48Z</time>
      </trkpt>
      <trkpt lat="43.47762" lon="5.43541">
        <ele>331.1078670165</ele>
        <time>2018-01-24T13:48:06Z</time>
      </trkpt>
      <trkpt lat="43.4776" lon="5.4353">
        <ele>330.99657504321</ele>
        <time>2018-01-24T13:48:10Z</time>
      </trkpt>
      <trkpt lat="43.4776" lon="5.43518">
        <ele>330.66768573145</ele>
        <time>2018-01-24T13:48:23Z</time>
      </trkpt>
      <trkpt lat="43.47758" lon="5.43506">
        <ele>330.40981376602</ele>
        <time>2018-01-24T13:48:34Z</time>
      </trkpt>
      <trkpt lat="43.47758" lon="5.43495">
        <ele>330.29520189237</ele>
        <time>2018-01-24T13:48:39Z</time>
      </trkpt>
      <trkpt lat="43.47761" lon="5.43483">
        <ele>329.98257226503</ele>
        <time>2018-01-24T13:48:54Z</time>
      </trkpt>
      <trkpt lat="43.47761" lon="5.43471">
        <ele>329.52340964929</ele>
        <time>2018-01-24T13:49:10Z</time>
      </trkpt>
      <trkpt lat="43.4776" lon="5.43459">
        <ele>328.97849095477</ele>
        <time>2018-01-24T13:49:34Z</time>
      </trkpt>
      <trkpt lat="43.47759" lon="5.43448">
        <ele>328.70780436401</ele>
        <time>2018-01-24T13:49:42Z</time>
      </trkpt>
      <trkpt lat="43.47759" lon="5.43436">
        <ele>328.13297992778</ele>
        <time>2018-01-24T13:50:02Z</time>
      </trkpt>
      <trkpt lat="43.47756" lon="5.43425">
        <ele>327.58141756161</ele>
        <time>2018-01-24T13:50:20Z</time>
      </trkpt>
      <trkpt lat="43.47754" lon="5.43413">
        <ele>325.83768921065</ele>
        <time>2018-01-24T13:51:30Z</time>
      </trkpt>
      <trkpt lat="43.47755" lon="5.43401">
        <ele>324.34462529708</ele>
        <time>2018-01-24T13:51:49Z</time>
      </trkpt>
      <trkpt lat="43.47751" lon="5.43392">
        <ele>323.20981882787</ele>
        <time>2018-01-24T13:52:05Z</time>
      </trkpt>
      <trkpt lat="43.4775" lon="5.43382">
        <ele>322.6546681434</ele>
        <time>2018-01-24T13:52:13Z</time>
      </trkpt>
      <trkpt lat="43.47747" lon="5.43371">
        <ele>321.66226907433</ele>
        <time>2018-01-24T13:52:28Z</time>
      </trkpt>
      <trkpt lat="43.47743" lon="5.4336">
        <ele>319.98076073448</ele>
        <time>2018-01-24T13:53:01Z</time>
      </trkpt>
      <trkpt lat="43.47743" lon="5.43348">
        <ele>317.5784351881</ele>
        <time>2018-01-24T13:53:37Z</time>
      </trkpt>
      <trkpt lat="43.47743" lon="5.43338">
        <ele>314.75733736036</ele>
        <time>2018-01-24T13:54:31Z</time>
      </trkpt>
      <trkpt lat="43.47743" lon="5.43326">
        <ele>313.96373015407</ele>
        <time>2018-01-24T13:54:43Z</time>
      </trkpt>
      <trkpt lat="43.47737" lon="5.43316">
        <ele>311.65934827568</ele>
        <time>2018-01-24T13:55:43Z</time>
      </trkpt>
      <trkpt lat="43.47744" lon="5.43312">
        <ele>310.21488393492</ele>
        <time>2018-01-24T13:56:09Z</time>
      </trkpt>
      <trkpt lat="43.47751" lon="5.43303">
        <ele>309.54138675475</ele>
        <time>2018-01-24T13:56:19Z</time>
      </trkpt>
      <trkpt lat="43.47757" lon="5.43295">
        <ele>308.83389707226</ele>
        <time>2018-01-24T13:56:28Z</time>
      </trkpt>
      <trkpt lat="43.47755" lon="5.43283">
        <ele>306.5236711168</ele>
        <time>2018-01-24T13:56:57Z</time>
      </trkpt>
      <trkpt lat="43.47756" lon="5.43271">
        <ele>305.22843516827</ele>
        <time>2018-01-24T13:57:17Z</time>
      </trkpt>
      <trkpt lat="43.47756" lon="5.43261">
        <ele>304.50671724844</ele>
        <time>2018-01-24T13:57:23Z</time>
      </trkpt>
      <trkpt lat="43.47765" lon="5.43259">
        <ele>302.69082562551</ele>
        <time>2018-01-24T13:57:42Z</time>
      </trkpt>
      <trkpt lat="43.47772" lon="5.4326">
        <ele>301.65498207932</ele>
        <time>2018-01-24T13:57:53Z</time>
      </trkpt>
      <trkpt lat="43.4778" lon="5.43262">
        <ele>301.06062716559</ele>
        <time>2018-01-24T13:58:01Z</time>
      </trkpt>
      <trkpt lat="43.47781" lon="5.43274">
        <ele>300.50478650466</ele>
        <time>2018-01-24T13:58:05Z</time>
      </trkpt>
      <trkpt lat="43.47784" lon="5.43286">
        <ele>299.08708869272</ele>
        <time>2018-01-24T13:58:19Z</time>
      </trkpt>
      <trkpt lat="43.47787" lon="5.43294">
        <ele>298.29286364037</ele>
        <time>2018-01-24T13:58:27Z</time>
      </trkpt>
      <trkpt lat="43.47794" lon="5.43298">
        <ele>297.48777577729</ele>
        <time>2018-01-24T13:58:35Z</time>
      </trkpt>
      <trkpt lat="43.47802" lon="5.43298">
        <ele>297.08744351753</ele>
        <time>2018-01-24T13:58:41Z</time>
      </trkpt>
      <trkpt lat="43.4781" lon="5.43305">
        <ele>296.72149326164</ele>
        <time>2018-01-24T13:58:45Z</time>
      </trkpt>
      <trkpt lat="43.47819" lon="5.43305">
        <ele>295.2311768263</ele>
        <time>2018-01-24T13:59:03Z</time>
      </trkpt>
      <trkpt lat="43.47827" lon="5.4331">
        <ele>293.75237185947</ele>
        <time>2018-01-24T13:59:20Z</time>
      </trkpt>
      <trkpt lat="43.47835" lon="5.43315">
        <ele>292.52225537084</ele>
        <time>2018-01-24T13:59:32Z</time>
      </trkpt>
      <trkpt lat="43.47843" lon="5.43316">
        <ele>291.47215459815</ele>
        <time>2018-01-24T13:59:42Z</time>
      </trkpt>
      <trkpt lat="43.47851" lon="5.43313">
        <ele>290.40421099843</ele>
        <time>2018-01-24T13:59:51Z</time>
      </trkpt>
      <trkpt lat="43.47859" lon="5.43319">
        <ele>288.69621742595</ele>
        <time>2018-01-24T14:00:16Z</time>
      </trkpt>
      <trkpt lat="43.47867" lon="5.43323">
        <ele>288.14897149607</ele>
        <time>2018-01-24T14:00:27Z</time>
      </trkpt>
      <trkpt lat="43.47875" lon="5.43324">
        <ele>287.60908323816</ele>
        <time>2018-01-24T14:00:34Z</time>
      </trkpt>
      <trkpt lat="43.47883" lon="5.43327">
        <ele>287.09080919747</ele>
        <time>2018-01-24T14:00:44Z</time>
      </trkpt>
      <trkpt lat="43.47892" lon="5.43328">
        <ele>286.26667359468</ele>
        <time>2018-01-24T14:00:58Z</time>
      </trkpt>
      <trkpt lat="43.479" lon="5.43328">
        <ele>285.84548419287</ele>
        <time>2018-01-24T14:01:06Z</time>
      </trkpt>
      <trkpt lat="43.47907" lon="5.43321">
        <ele>285.30229728362</ele>
        <time>2018-01-24T14:01:19Z</time>
      </trkpt>
      <trkpt lat="43.47915" lon="5.4332">
        <ele>284.77507407264</ele>
        <time>2018-01-24T14:01:33Z</time>
      </trkpt>
      <trkpt lat="43.47923" lon="5.4332">
        <ele>284.40507411683</ele>
        <time>2018-01-24T14:01:43Z</time>
      </trkpt>
      <trkpt lat="43.47932" lon="5.43321">
        <ele>283.93003597704</ele>
        <time>2018-01-24T14:02:00Z</time>
      </trkpt>
      <trkpt lat="43.47941" lon="5.43322">
        <ele>283.61186977908</ele>
        <time>2018-01-24T14:02:12Z</time>
      </trkpt>
      <trkpt lat="43.4795" lon="5.43322">
        <ele>283.40246634021</ele>
        <time>2018-01-24T14:02:28Z</time>
      </trkpt>
      <trkpt lat="43.47957" lon="5.4332">
        <ele>283.03757278908</ele>
        <time>2018-01-24T14:02:46Z</time>
      </trkpt>
      <trkpt lat="43.47965" lon="5.4332">
        <ele>282.85650574892</ele>
        <time>2018-01-24T14:02:56Z</time>
      </trkpt>
      <trkpt lat="43.47974" lon="5.4332">
        <ele>282.45100335234</ele>
        <time>2018-01-24T14:03:09Z</time>
      </trkpt>
      <trkpt lat="43.47982" lon="5.43325">
        <ele>282.0888372239</ele>
        <time>2018-01-24T14:03:28Z</time>
      </trkpt>
      <trkpt lat="43.47991" lon="5.43325">
        <ele>281.88535477412</ele>
        <time>2018-01-24T14:03:41Z</time>
      </trkpt>
      <trkpt lat="43.47998" lon="5.43329">
        <ele>281.70877464884</ele>
        <time>2018-01-24T14:03:52Z</time>
      </trkpt>
      <trkpt lat="43.48006" lon="5.43335">
        <ele>281.57058158112</ele>
        <time>2018-01-24T14:04:03Z</time>
      </trkpt>
      <trkpt lat="43.48013" lon="5.43341">
        <ele>281.50315949094</ele>
        <time>2018-01-24T14:04:10Z</time>
      </trkpt>
      <trkpt lat="43.48021" lon="5.43341">
        <ele>281.40418443814</ele>
        <time>2018-01-24T14:04:24Z</time>
      </trkpt>
      <trkpt lat="43.48029" lon="5.43344">
        <ele>281.29538064241</ele>
        <time>2018-01-24T14:04:37Z</time>
      </trkpt>
      <trkpt lat="43.48038" lon="5.43344">
        <ele>281.13150971149</ele>
        <time>2018-01-24T14:05:03Z</time>
      </trkpt>
      <trkpt lat="43.48046" lon="5.43345">
        <ele>281.10639875185</ele>
        <time>2018-01-24T14:05:11Z</time>
      </trkpt>
      <trkpt lat="43.48054" lon="5.43347">
        <ele>281.09611945899</ele>
        <time>2018-01-24T14:05:19Z</time>
      </trkpt>
      <trkpt lat="43.48062" lon="5.4335">
        <ele>281.08917470217</ele>
        <time>2018-01-24T14:05:27Z</time>
      </trkpt>
      <trkpt lat="43.4807" lon="5.43353">
        <ele>281.10015823435</ele>
        <time>2018-01-24T14:05:41Z</time>
      </trkpt>
      <trkpt lat="43.48078" lon="5.43347">
        <ele>282.37090320627</ele>
        <time>2018-01-24T14:07:15Z</time>
      </trkpt>
      <trkpt lat="43.48085" lon="5.43355">
        <ele>288.6150969546</ele>
        <time>2018-01-24T14:12:52Z</time>
      </trkpt>
      <trkpt lat="43.48092" lon="5.43361">
        <ele>289.35629233638</ele>
        <time>2018-01-24T14:13:08Z</time>
      </trkpt>
      <trkpt lat="43.481" lon="5.43367">
        <ele>289.83466261527</ele>
        <time>2018-01-24T14:13:21Z</time>
      </trkpt>
      <trkpt lat="43.48106" lon="5.43375">
        <ele>290.27839858064</ele>
        <time>2018-01-24T14:13:37Z</time>
      </trkpt>
      <trkpt lat="43.48114" lon="5.43381">
        <ele>290.59707616897</ele>
        <time>2018-01-24T14:13:50Z</time>
      </trkpt>
      <trkpt lat="43.48122" lon="5.43385">
        <ele>290.80790313999</ele>
        <time>2018-01-24T14:14:00Z</time>
      </trkpt>
      <trkpt lat="43.4813" lon="5.43391">
        <ele>290.99367935875</ele>
        <time>2018-01-24T14:14:11Z</time>
      </trkpt>
      <trkpt lat="43.48137" lon="5.43395">
        <ele>291.12734952426</ele>
        <time>2018-01-24T14:14:21Z</time>
      </trkpt>
      <trkpt lat="43.48145" lon="5.434">
        <ele>291.24882664669</ele>
        <time>2018-01-24T14:14:32Z</time>
      </trkpt>
      <trkpt lat="43.48152" lon="5.43405">
        <ele>291.37015801844</ele>
        <time>2018-01-24T14:14:43Z</time>
      </trkpt>
      <trkpt lat="43.48161" lon="5.43408">
        <ele>291.44230348333</ele>
        <time>2018-01-24T14:14:51Z</time>
      </trkpt>
      <trkpt lat="43.48168" lon="5.43412">
        <ele>291.50746358443</ele>
        <time>2018-01-24T14:14:59Z</time>
      </trkpt>
      <trkpt lat="43.48177" lon="5.43417">
        <ele>291.57975373453</ele>
        <time>2018-01-24T14:15:10Z</time>
      </trkpt>
      <trkpt lat="43.48185" lon="5.43419">
        <ele>291.61008027721</ele>
        <time>2018-01-24T14:15:16Z</time>
      </trkpt>
      <trkpt lat="43.48193" lon="5.43422">
        <ele>291.6419957444</ele>
        <time>2018-01-24T14:15:24Z</time>
      </trkpt>
      <trkpt lat="43.48202" lon="5.43427">
        <ele>291.67488003883</ele>
        <time>2018-01-24T14:15:37Z</time>
      </trkpt>
      <trkpt lat="43.48209" lon="5.4343">
        <ele>291.69286909751</ele>
        <time>2018-01-24T14:15:46Z</time>
      </trkpt>
      <trkpt lat="43.48217" lon="5.43433">
        <ele>291.70439995053</ele>
        <time>2018-01-24T14:15:52Z</time>
      </trkpt>
      <trkpt lat="43.48226" lon="5.43435">
        <ele>291.70734089735</ele>
        <time>2018-01-24T14:16:02Z</time>
      </trkpt>
      <trkpt lat="43.48234" lon="5.43436">
        <ele>291.680652459</ele>
        <time>2018-01-24T14:16:14Z</time>
      </trkpt>
      <trkpt lat="43.48242" lon="5.4344">
        <ele>291.63749445097</ele>
        <time>2018-01-24T14:16:28Z</time>
      </trkpt>
      <trkpt lat="43.48251" lon="5.4344">
        <ele>291.57891342299</ele>
        <time>2018-01-24T14:16:37Z</time>
      </trkpt>
      <trkpt lat="43.48259" lon="5.43442">
        <ele>291.3359067567</ele>
        <time>2018-01-24T14:16:48Z</time>
      </trkpt>
      <trkpt lat="43.48265" lon="5.4345">
        <ele>291.19504734014</ele>
        <time>2018-01-24T14:16:55Z</time>
      </trkpt>
      <trkpt lat="43.48273" lon="5.43455">
        <ele>291.02515167863</ele>
        <time>2018-01-24T14:17:03Z</time>
      </trkpt>
      <trkpt lat="43.48281" lon="5.4346">
        <ele>290.80666113709</ele>
        <time>2018-01-24T14:17:14Z</time>
      </trkpt>
      <trkpt lat="43.48289" lon="5.43463">
        <ele>290.68024643952</ele>
        <time>2018-01-24T14:17:22Z</time>
      </trkpt>
      <trkpt lat="43.48296" lon="5.43458">
        <ele>290.59765664692</ele>
        <time>2018-01-24T14:17:27Z</time>
      </trkpt>
      <trkpt lat="43.48306" lon="5.43448">
        <ele>290.5009409554</ele>
        <time>2018-01-24T14:17:32Z</time>
      </trkpt>
      <trkpt lat="43.48313" lon="5.43443">
        <ele>290.30175563117</ele>
        <time>2018-01-24T14:17:40Z</time>
      </trkpt>
      <trkpt lat="43.48321" lon="5.43437">
        <ele>290.09015027559</ele>
        <time>2018-01-24T14:17:47Z</time>
      </trkpt>
      <trkpt lat="43.48328" lon="5.43432">
        <ele>289.85931084109</ele>
        <time>2018-01-24T14:17:55Z</time>
      </trkpt>
      <trkpt lat="43.48335" lon="5.43433">
        <ele>289.70617115591</ele>
        <time>2018-01-24T14:18:00Z</time>
      </trkpt>
      <trkpt lat="43.48343" lon="5.43434">
        <ele>289.54125158081</ele>
        <time>2018-01-24T14:18:06Z</time>
      </trkpt>
      <trkpt lat="43.48351" lon="5.43434">
        <ele>289.29311157531</ele>
        <time>2018-01-24T14:18:17Z</time>
      </trkpt>
      <trkpt lat="43.4836" lon="5.43432">
        <ele>289.14152487272</ele>
        <time>2018-01-24T14:18:24Z</time>
      </trkpt>
      <trkpt lat="43.48368" lon="5.4343">
        <ele>288.96020802517</ele>
        <time>2018-01-24T14:18:32Z</time>
      </trkpt>
      <trkpt lat="43.48376" lon="5.43426">
        <ele>288.78810040459</ele>
        <time>2018-01-24T14:18:39Z</time>
      </trkpt>
      <trkpt lat="43.48384" lon="5.43424">
        <ele>288.54352122279</ele>
        <time>2018-01-24T14:18:46Z</time>
      </trkpt>
      <trkpt lat="43.4839" lon="5.43422">
        <ele>288.33603365976</ele>
        <time>2018-01-24T14:18:51Z</time>
      </trkpt>
      <trkpt lat="43.48398" lon="5.43417">
        <ele>288.01974045164</ele>
        <time>2018-01-24T14:18:58Z</time>
      </trkpt>
      <trkpt lat="43.48405" lon="5.43412">
        <ele>287.73324397479</ele>
        <time>2018-01-24T14:19:04Z</time>
      </trkpt>
      <trkpt lat="43.48413" lon="5.43408">
        <ele>287.34220527825</ele>
        <time>2018-01-24T14:19:12Z</time>
      </trkpt>
      <trkpt lat="43.48422" lon="5.43407">
        <ele>287.10469957734</ele>
        <time>2018-01-24T14:19:18Z</time>
      </trkpt>
      <trkpt lat="43.4843" lon="5.43407">
        <ele>286.80287958676</ele>
        <time>2018-01-24T14:19:27Z</time>
      </trkpt>
      <trkpt lat="43.48438" lon="5.43405">
        <ele>286.50618890895</ele>
        <time>2018-01-24T14:19:38Z</time>
      </trkpt>
      <trkpt lat="43.48445" lon="5.43398">
        <ele>286.08737795533</ele>
        <time>2018-01-24T14:19:54Z</time>
      </trkpt>
      <trkpt lat="43.48453" lon="5.43392">
        <ele>285.9532024283</ele>
        <time>2018-01-24T14:19:59Z</time>
      </trkpt>
      <trkpt lat="43.48462" lon="5.43391">
        <ele>285.85539877445</ele>
        <time>2018-01-24T14:20:03Z</time>
      </trkpt>
      <trkpt lat="43.48469" lon="5.43386">
        <ele>285.76463012067</ele>
        <time>2018-01-24T14:20:09Z</time>
      </trkpt>
      <trkpt lat="43.48476" lon="5.43383">
        <ele>285.66734731585</ele>
        <time>2018-01-24T14:20:16Z</time>
      </trkpt>
      <trkpt lat="43.48482" lon="5.43379">
        <ele>285.60936231242</ele>
        <time>2018-01-24T14:20:21Z</time>
      </trkpt>
      <trkpt lat="43.48491" lon="5.43375">
        <ele>285.53929697209</ele>
        <time>2018-01-24T14:20:33Z</time>
      </trkpt>
      <trkpt lat="43.48498" lon="5.43371">
        <ele>285.49886191207</ele>
        <time>2018-01-24T14:20:41Z</time>
      </trkpt>
      <trkpt lat="43.48507" lon="5.43367">
        <ele>285.46197578575</ele>
        <time>2018-01-24T14:20:48Z</time>
      </trkpt>
      <trkpt lat="43.48515" lon="5.43372">
        <ele>285.37072814165</ele>
        <time>2018-01-24T14:21:03Z</time>
      </trkpt>
      <trkpt lat="43.48523" lon="5.43367">
        <ele>285.28406436073</ele>
        <time>2018-01-24T14:21:15Z</time>
      </trkpt>
      <trkpt lat="43.48532" lon="5.43368">
        <ele>285.23981768599</ele>
        <time>2018-01-24T14:21:20Z</time>
      </trkpt>
      <trkpt lat="43.48541" lon="5.43366">
        <ele>285.20462062659</ele>
        <time>2018-01-24T14:21:24Z</time>
      </trkpt>
      <trkpt lat="43.48553" lon="5.43362">
        <ele>285.16793396446</ele>
        <time>2018-01-24T14:21:29Z</time>
      </trkpt>
      <trkpt lat="43.48565" lon="5.43358">
        <ele>285.11690359302</ele>
        <time>2018-01-24T14:21:34Z</time>
      </trkpt>
      <trkpt lat="43.48572" lon="5.43359">
        <ele>285.04519656303</ele>
        <time>2018-01-24T14:21:40Z</time>
      </trkpt>
      <trkpt lat="43.48581" lon="5.4336">
        <ele>284.96005634859</ele>
        <time>2018-01-24T14:21:49Z</time>
      </trkpt>
      <trkpt lat="43.48589" lon="5.43358">
        <ele>284.89776808803</ele>
        <time>2018-01-24T14:21:56Z</time>
      </trkpt>
      <trkpt lat="43.48597" lon="5.43356">
        <ele>284.78415338139</ele>
        <time>2018-01-24T14:22:18Z</time>
      </trkpt>
      <trkpt lat="43.48604" lon="5.43361">
        <ele>284.70622753625</ele>
        <time>2018-01-24T14:22:26Z</time>
      </trkpt>
      <trkpt lat="43.48613" lon="5.43364">
        <ele>284.63437324532</ele>
        <time>2018-01-24T14:22:36Z</time>
      </trkpt>
      <trkpt lat="43.48621" lon="5.43366">
        <ele>284.6191622754</ele>
        <time>2018-01-24T14:22:41Z</time>
      </trkpt>
      <trkpt lat="43.48629" lon="5.43371">
        <ele>284.58411679479</ele>
        <time>2018-01-24T14:22:49Z</time>
      </trkpt>
      <trkpt lat="43.48636" lon="5.43373">
        <ele>284.56754295664</ele>
        <time>2018-01-24T14:22:56Z</time>
      </trkpt>
      <trkpt lat="43.48644" lon="5.43379">
        <ele>284.57675726991</ele>
        <time>2018-01-24T14:23:01Z</time>
      </trkpt>
      <trkpt lat="43.48652" lon="5.4338">
        <ele>284.60899447708</ele>
        <time>2018-01-24T14:23:13Z</time>
      </trkpt>
      <trkpt lat="43.4866" lon="5.43385">
        <ele>284.63408042323</ele>
        <time>2018-01-24T14:23:21Z</time>
      </trkpt>
      <trkpt lat="43.4867" lon="5.43389">
        <ele>284.65923468367</ele>
        <time>2018-01-24T14:23:26Z</time>
      </trkpt>
      <trkpt lat="43.48678" lon="5.4339">
        <ele>284.71825790417</ele>
        <time>2018-01-24T14:23:36Z</time>
      </trkpt>
      <trkpt lat="43.48688" lon="5.43395">
        <ele>284.75180438702</ele>
        <time>2018-01-24T14:23:41Z</time>
      </trkpt>
      <trkpt lat="43.48695" lon="5.434">
        <ele>284.79476876592</ele>
        <time>2018-01-24T14:23:48Z</time>
      </trkpt>
      <trkpt lat="43.48702" lon="5.43408">
        <ele>284.86196622247</ele>
        <time>2018-01-24T14:23:59Z</time>
      </trkpt>
      <trkpt lat="43.48709" lon="5.43414">
        <ele>284.92901511176</ele>
        <time>2018-01-24T14:24:07Z</time>
      </trkpt>
      <trkpt lat="43.48717" lon="5.43417">
        <ele>284.96199230011</ele>
        <time>2018-01-24T14:24:14Z</time>
      </trkpt>
      <trkpt lat="43.48723" lon="5.43421">
        <ele>284.98167002242</ele>
        <time>2018-01-24T14:24:19Z</time>
      </trkpt>
      <trkpt lat="43.48736" lon="5.43425">
        <ele>285.00150336302</ele>
        <time>2018-01-24T14:24:23Z</time>
      </trkpt>
      <trkpt lat="43.48742" lon="5.4343">
        <ele>285.01433069051</ele>
        <time>2018-01-24T14:24:27Z</time>
      </trkpt>
      <trkpt lat="43.4875" lon="5.43435">
        <ele>285.05442574318</ele>
        <time>2018-01-24T14:24:37Z</time>
      </trkpt>
      <trkpt lat="43.48755" lon="5.43445">
        <ele>285.06397819157</ele>
        <time>2018-01-24T14:24:47Z</time>
      </trkpt>
      <trkpt lat="43.48757" lon="5.43456">
        <ele>285.04420864753</ele>
        <time>2018-01-24T14:24:55Z</time>
      </trkpt>
      <trkpt lat="43.4876" lon="5.43467">
        <ele>285.01359536894</ele>
        <time>2018-01-24T14:25:05Z</time>
      </trkpt>
      <trkpt lat="43.48766" lon="5.43473">
        <ele>284.98615224673</ele>
        <time>2018-01-24T14:25:14Z</time>
      </trkpt>
      <trkpt lat="43.48773" lon="5.43481">
        <ele>284.95925229297</ele>
        <time>2018-01-24T14:25:23Z</time>
      </trkpt>
      <trkpt lat="43.48778" lon="5.43486">
        <ele>284.9266898244</ele>
        <time>2018-01-24T14:25:29Z</time>
      </trkpt>
      <trkpt lat="43.48785" lon="5.43494">
        <ele>284.89076011579</ele>
        <time>2018-01-24T14:25:34Z</time>
      </trkpt>
      <trkpt lat="43.48792" lon="5.435">
        <ele>284.8181877058</ele>
        <time>2018-01-24T14:25:43Z</time>
      </trkpt>
      <trkpt lat="43.48794" lon="5.43511">
        <ele>284.7508732837</ele>
        <time>2018-01-24T14:25:52Z</time>
      </trkpt>
      <trkpt lat="43.48799" lon="5.4352">
        <ele>284.70986761566</ele>
        <time>2018-01-24T14:26:00Z</time>
      </trkpt>
      <trkpt lat="43.48804" lon="5.43528">
        <ele>284.66554983993</ele>
        <time>2018-01-24T14:26:09Z</time>
      </trkpt>
      <trkpt lat="43.48811" lon="5.43535">
        <ele>284.62585663135</ele>
        <time>2018-01-24T14:26:19Z</time>
      </trkpt>
      <trkpt lat="43.48814" lon="5.43547">
        <ele>284.5659622834</ele>
        <time>2018-01-24T14:26:35Z</time>
      </trkpt>
      <trkpt lat="43.48819" lon="5.43556">
        <ele>284.58718137809</ele>
        <time>2018-01-24T14:26:45Z</time>
      </trkpt>
      <trkpt lat="43.48828" lon="5.43556">
        <ele>284.57275503812</ele>
        <time>2018-01-24T14:27:18Z</time>
      </trkpt>
      <trkpt lat="43.48835" lon="5.43561">
        <ele>284.38886100638</ele>
        <time>2018-01-24T14:27:30Z</time>
      </trkpt>
      <trkpt lat="43.48843" lon="5.43567">
        <ele>284.23800094666</ele>
        <time>2018-01-24T14:27:45Z</time>
      </trkpt>
      <trkpt lat="43.48849" lon="5.43576">
        <ele>284.0800283654</ele>
        <time>2018-01-24T14:27:59Z</time>
      </trkpt>
      <trkpt lat="43.48856" lon="5.43582">
        <ele>283.9416209877</ele>
        <time>2018-01-24T14:28:07Z</time>
      </trkpt>
      <trkpt lat="43.48865" lon="5.4358">
        <ele>283.82595655626</ele>
        <time>2018-01-24T14:28:14Z</time>
      </trkpt>
      <trkpt lat="43.48873" lon="5.4358">
        <ele>283.75405074492</ele>
        <time>2018-01-24T14:28:19Z</time>
      </trkpt>
      <trkpt lat="43.48882" lon="5.43581">
        <ele>283.64125804385</ele>
        <time>2018-01-24T14:28:27Z</time>
      </trkpt>
      <trkpt lat="43.48891" lon="5.43583">
        <ele>283.45125718757</ele>
        <time>2018-01-24T14:28:37Z</time>
      </trkpt>
      <trkpt lat="43.48899" lon="5.43585">
        <ele>283.31600777553</ele>
        <time>2018-01-24T14:28:44Z</time>
      </trkpt>
      <trkpt lat="43.48907" lon="5.4359">
        <ele>283.02248770717</ele>
        <time>2018-01-24T14:28:58Z</time>
      </trkpt>
      <trkpt lat="43.48914" lon="5.43597">
        <ele>282.77724228745</ele>
        <time>2018-01-24T14:29:11Z</time>
      </trkpt>
      <trkpt lat="43.48922" lon="5.43601">
        <ele>282.54485698072</ele>
        <time>2018-01-24T14:29:22Z</time>
      </trkpt>
      <trkpt lat="43.4893" lon="5.43605">
        <ele>282.28986414944</ele>
        <time>2018-01-24T14:29:34Z</time>
      </trkpt>
      <trkpt lat="43.48936" lon="5.43612">
        <ele>282.08132887036</ele>
        <time>2018-01-24T14:29:44Z</time>
      </trkpt>
      <trkpt lat="43.48944" lon="5.43614">
        <ele>281.91738082447</ele>
        <time>2018-01-24T14:29:52Z</time>
      </trkpt>
      <trkpt lat="43.48952" lon="5.43619">
        <ele>281.71576882531</ele>
        <time>2018-01-24T14:30:02Z</time>
      </trkpt>
      <trkpt lat="43.48959" lon="5.43623">
        <ele>281.52107577017</ele>
        <time>2018-01-24T14:30:11Z</time>
      </trkpt>
      <trkpt lat="43.48966" lon="5.43627">
        <ele>281.3736383776</ele>
        <time>2018-01-24T14:30:18Z</time>
      </trkpt>
      <trkpt lat="43.48975" lon="5.4363">
        <ele>281.24860713361</ele>
        <time>2018-01-24T14:30:24Z</time>
      </trkpt>
      <trkpt lat="43.48983" lon="5.43635">
        <ele>281.02722286189</ele>
        <time>2018-01-24T14:30:34Z</time>
      </trkpt>
      <trkpt lat="43.4899" lon="5.4364">
        <ele>280.88361369937</ele>
        <time>2018-01-24T14:30:41Z</time>
      </trkpt>
      <trkpt lat="43.48999" lon="5.43644">
        <ele>280.67775241794</ele>
        <time>2018-01-24T14:30:51Z</time>
      </trkpt>
      <trkpt lat="43.49006" lon="5.43648">
        <ele>280.51629373722</ele>
        <time>2018-01-24T14:31:00Z</time>
      </trkpt>
      <trkpt lat="43.49013" lon="5.43653">
        <ele>280.35918325206</ele>
        <time>2018-01-24T14:31:09Z</time>
      </trkpt>
      <trkpt lat="43.49019" lon="5.43661">
        <ele>280.17606880174</ele>
        <time>2018-01-24T14:31:19Z</time>
      </trkpt>
      <trkpt lat="43.49025" lon="5.43668">
        <ele>279.92632463689</ele>
        <time>2018-01-24T14:31:31Z</time>
      </trkpt>
      <trkpt lat="43.49032" lon="5.43676">
        <ele>279.69788233816</ele>
        <time>2018-01-24T14:31:41Z</time>
      </trkpt>
      <trkpt lat="43.4904" lon="5.4368">
        <ele>279.55854683194</ele>
        <time>2018-01-24T14:31:47Z</time>
      </trkpt>
      <trkpt lat="43.49047" lon="5.43683">
        <ele>279.44519757111</ele>
        <time>2018-01-24T14:31:52Z</time>
      </trkpt>
      <trkpt lat="43.49055" lon="5.43687">
        <ele>279.29932476413</ele>
        <time>2018-01-24T14:31:59Z</time>
      </trkpt>
      <trkpt lat="43.49063" lon="5.43691">
        <ele>279.19326336701</ele>
        <time>2018-01-24T14:32:04Z</time>
      </trkpt>
      <trkpt lat="43.49071" lon="5.43695">
        <ele>279.08321726491</ele>
        <time>2018-01-24T14:32:09Z</time>
      </trkpt>
      <trkpt lat="43.49079" lon="5.43701">
        <ele>278.95224972775</ele>
        <time>2018-01-24T14:32:15Z</time>
      </trkpt>
      <trkpt lat="43.49087" lon="5.43704">
        <ele>278.7831444725</ele>
        <time>2018-01-24T14:32:23Z</time>
      </trkpt>
      <trkpt lat="43.49095" lon="5.43709">
        <ele>278.6007020022</ele>
        <time>2018-01-24T14:32:32Z</time>
      </trkpt>
      <trkpt lat="43.49103" lon="5.43713">
        <ele>278.40521328487</ele>
        <time>2018-01-24T14:32:41Z</time>
      </trkpt>
      <trkpt lat="43.49109" lon="5.43719">
        <ele>278.26808987849</ele>
        <time>2018-01-24T14:32:47Z</time>
      </trkpt>
      <trkpt lat="43.49115" lon="5.43728">
        <ele>278.11751836063</ele>
        <time>2018-01-24T14:32:54Z</time>
      </trkpt>
      <trkpt lat="43.49122" lon="5.43736">
        <ele>277.98306504581</ele>
        <time>2018-01-24T14:33:00Z</time>
      </trkpt>
      <trkpt lat="43.49129" lon="5.43741">
        <ele>277.77423193733</ele>
        <time>2018-01-24T14:33:09Z</time>
      </trkpt>
      <trkpt lat="43.49137" lon="5.43746">
        <ele>277.58381176929</ele>
        <time>2018-01-24T14:33:17Z</time>
      </trkpt>
      <trkpt lat="43.49145" lon="5.43751">
        <ele>277.42188804332</ele>
        <time>2018-01-24T14:33:24Z</time>
      </trkpt>
      <trkpt lat="43.49151" lon="5.43758">
        <ele>277.20652249503</ele>
        <time>2018-01-24T14:33:34Z</time>
      </trkpt>
      <trkpt lat="43.4916" lon="5.43759">
        <ele>277.03305973835</ele>
        <time>2018-01-24T14:33:43Z</time>
      </trkpt>
      <trkpt lat="43.49167" lon="5.43763">
        <ele>276.8795131058</ele>
        <time>2018-01-24T14:33:52Z</time>
      </trkpt>
      <trkpt lat="43.49174" lon="5.43764">
        <ele>276.80665737457</ele>
        <time>2018-01-24T14:33:57Z</time>
      </trkpt>
      <trkpt lat="43.49182" lon="5.43768">
        <ele>276.69163356274</ele>
        <time>2018-01-24T14:34:05Z</time>
      </trkpt>
      <trkpt lat="43.49189" lon="5.43773">
        <ele>276.57878687308</ele>
        <time>2018-01-24T14:34:13Z</time>
      </trkpt>
      <trkpt lat="43.49196" lon="5.43778">
        <ele>276.46127299793</ele>
        <time>2018-01-24T14:34:21Z</time>
      </trkpt>
      <trkpt lat="43.49201" lon="5.43786">
        <ele>276.37900262685</ele>
        <time>2018-01-24T14:34:26Z</time>
      </trkpt>
      <trkpt lat="43.49207" lon="5.43793">
        <ele>276.24442600143</ele>
        <time>2018-01-24T14:34:34Z</time>
      </trkpt>
      <trkpt lat="43.49212" lon="5.43802">
        <ele>276.12589453663</ele>
        <time>2018-01-24T14:34:43Z</time>
      </trkpt>
      <trkpt lat="43.49217" lon="5.43812">
        <ele>275.98080035563</ele>
        <time>2018-01-24T14:34:54Z</time>
      </trkpt>
      <trkpt lat="43.49223" lon="5.43821">
        <ele>275.89284022708</ele>
        <time>2018-01-24T14:35:01Z</time>
      </trkpt>
      <trkpt lat="43.49231" lon="5.43826">
        <ele>275.81403940979</ele>
        <time>2018-01-24T14:35:11Z</time>
      </trkpt>
      <trkpt lat="43.49239" lon="5.43831">
        <ele>275.7553315462</ele>
        <time>2018-01-24T14:35:20Z</time>
      </trkpt>
      <trkpt lat="43.49245" lon="5.43835">
        <ele>275.71181384292</ele>
        <time>2018-01-24T14:35:28Z</time>
      </trkpt>
      <trkpt lat="43.49252" lon="5.43842">
        <ele>275.66920682712</ele>
        <time>2018-01-24T14:35:36Z</time>
      </trkpt>
      <trkpt lat="43.49259" lon="5.43847">
        <ele>275.62795064564</ele>
        <time>2018-01-24T14:35:43Z</time>
      </trkpt>
      <trkpt lat="43.49267" lon="5.4385">
        <ele>275.57894637295</ele>
        <time>2018-01-24T14:35:52Z</time>
      </trkpt>
      <trkpt lat="43.49276" lon="5.43849">
        <ele>275.51082530308</ele>
        <time>2018-01-24T14:36:01Z</time>
      </trkpt>
      <trkpt lat="43.49283" lon="5.43856">
        <ele>275.4437126153</ele>
        <time>2018-01-24T14:36:07Z</time>
      </trkpt>
      <trkpt lat="43.49287" lon="5.43864">
        <ele>275.33210555479</ele>
        <time>2018-01-24T14:36:15Z</time>
      </trkpt>
      <trkpt lat="43.49294" lon="5.43873">
        <ele>275.18673984319</ele>
        <time>2018-01-24T14:36:26Z</time>
      </trkpt>
      <trkpt lat="43.49301" lon="5.43879">
        <ele>275.07845053397</ele>
        <time>2018-01-24T14:36:34Z</time>
      </trkpt>
      <trkpt lat="43.49308" lon="5.43886">
        <ele>274.99223851711</ele>
        <time>2018-01-24T14:36:40Z</time>
      </trkpt>
      <trkpt lat="43.49315" lon="5.43893">
        <ele>274.86999166751</ele>
        <time>2018-01-24T14:36:50Z</time>
      </trkpt>
      <trkpt lat="43.49323" lon="5.43897">
        <ele>274.74942114128</ele>
        <time>2018-01-24T14:36:58Z</time>
      </trkpt>
      <trkpt lat="43.49329" lon="5.43906">
        <ele>274.64244966549</ele>
        <time>2018-01-24T14:37:06Z</time>
      </trkpt>
      <trkpt lat="43.49333" lon="5.43917">
        <ele>274.54669315992</ele>
        <time>2018-01-24T14:37:15Z</time>
      </trkpt>
      <trkpt lat="43.49337" lon="5.43926">
        <ele>274.43302759557</ele>
        <time>2018-01-24T14:37:24Z</time>
      </trkpt>
      <trkpt lat="43.49342" lon="5.43935">
        <ele>274.29289254617</ele>
        <time>2018-01-24T14:37:34Z</time>
      </trkpt>
      <trkpt lat="43.4935" lon="5.4394">
        <ele>274.07044995349</ele>
        <time>2018-01-24T14:37:49Z</time>
      </trkpt>
      <trkpt lat="43.49358" lon="5.43944">
        <ele>273.80104912939</ele>
        <time>2018-01-24T14:38:03Z</time>
      </trkpt>
      <trkpt lat="43.49366" lon="5.43947">
        <ele>273.56884981113</ele>
        <time>2018-01-24T14:38:14Z</time>
      </trkpt>
      <trkpt lat="43.49374" lon="5.43946">
        <ele>273.43567620174</ele>
        <time>2018-01-24T14:38:21Z</time>
      </trkpt>
      <trkpt lat="43.49384" lon="5.43941">
        <ele>273.34081809823</ele>
        <time>2018-01-24T14:38:26Z</time>
      </trkpt>
      <trkpt lat="43.49392" lon="5.43941">
        <ele>273.19630309416</ele>
        <time>2018-01-24T14:38:33Z</time>
      </trkpt>
      <trkpt lat="43.49402" lon="5.43942">
        <ele>273.08111916173</ele>
        <time>2018-01-24T14:38:38Z</time>
      </trkpt>
      <trkpt lat="43.49411" lon="5.43943">
        <ele>272.69957052326</ele>
        <time>2018-01-24T14:38:55Z</time>
      </trkpt>
      <trkpt lat="43.49418" lon="5.43942">
        <ele>272.49335512294</ele>
        <time>2018-01-24T14:39:06Z</time>
      </trkpt>
      <trkpt lat="43.49425" lon="5.43947">
        <ele>272.3598914355</ele>
        <time>2018-01-24T14:39:12Z</time>
      </trkpt>
      <trkpt lat="43.49433" lon="5.43951">
        <ele>272.17517623043</ele>
        <time>2018-01-24T14:39:19Z</time>
      </trkpt>
      <trkpt lat="43.49439" lon="5.43959">
        <ele>271.8510197964</ele>
        <time>2018-01-24T14:39:31Z</time>
      </trkpt>
      <trkpt lat="43.49447" lon="5.4396">
        <ele>271.60768299205</ele>
        <time>2018-01-24T14:39:41Z</time>
      </trkpt>
      <trkpt lat="43.49455" lon="5.43965">
        <ele>271.33328203817</ele>
        <time>2018-01-24T14:39:53Z</time>
      </trkpt>
      <trkpt lat="43.49463" lon="5.43967">
        <ele>271.0658154183</ele>
        <time>2018-01-24T14:40:06Z</time>
      </trkpt>
      <trkpt lat="43.49471" lon="5.43973">
        <ele>270.85265974808</ele>
        <time>2018-01-24T14:40:17Z</time>
      </trkpt>
      <trkpt lat="43.49478" lon="5.43981">
        <ele>270.69267570412</ele>
        <time>2018-01-24T14:40:26Z</time>
      </trkpt>
      <trkpt lat="43.49486" lon="5.43982">
        <ele>270.60503265739</ele>
        <time>2018-01-24T14:40:31Z</time>
      </trkpt>
      <trkpt lat="43.49494" lon="5.43986">
        <ele>270.45956835655</ele>
        <time>2018-01-24T14:40:39Z</time>
      </trkpt>
      <trkpt lat="43.49503" lon="5.43987">
        <ele>270.2652163584</ele>
        <time>2018-01-24T14:40:49Z</time>
      </trkpt>
      <trkpt lat="43.49511" lon="5.43988">
        <ele>270.13595092608</ele>
        <time>2018-01-24T14:40:55Z</time>
      </trkpt>
      <trkpt lat="43.49519" lon="5.43987">
        <ele>270.04685468562</ele>
        <time>2018-01-24T14:40:59Z</time>
      </trkpt>
      <trkpt lat="43.49527" lon="5.4399">
        <ele>269.91868625846</ele>
        <time>2018-01-24T14:41:05Z</time>
      </trkpt>
      <trkpt lat="43.49536" lon="5.43993">
        <ele>269.71359092231</ele>
        <time>2018-01-24T14:41:14Z</time>
      </trkpt>
      <trkpt lat="43.49545" lon="5.43993">
        <ele>269.53786537137</ele>
        <time>2018-01-24T14:41:21Z</time>
      </trkpt>
      <trkpt lat="43.49552" lon="5.43996">
        <ele>269.38788518935</ele>
        <time>2018-01-24T14:41:27Z</time>
      </trkpt>
      <trkpt lat="43.4956" lon="5.43998">
        <ele>269.18592571932</ele>
        <time>2018-01-24T14:41:36Z</time>
      </trkpt>
      <trkpt lat="43.49569" lon="5.44002">
        <ele>268.90216934005</ele>
        <time>2018-01-24T14:41:49Z</time>
      </trkpt>
      <trkpt lat="43.49577" lon="5.44003">
        <ele>268.77554338312</ele>
        <time>2018-01-24T14:41:55Z</time>
      </trkpt>
      <trkpt lat="43.49583" lon="5.44006">
        <ele>268.59744216417</ele>
        <time>2018-01-24T14:42:03Z</time>
      </trkpt>
      <trkpt lat="43.4959" lon="5.44009">
        <ele>268.46968456371</ele>
        <time>2018-01-24T14:42:09Z</time>
      </trkpt>
      <trkpt lat="43.49598" lon="5.44012">
        <ele>268.30196318755</ele>
        <time>2018-01-24T14:42:17Z</time>
      </trkpt>
      <trkpt lat="43.49606" lon="5.44014">
        <ele>268.09636235468</ele>
        <time>2018-01-24T14:42:27Z</time>
      </trkpt>
      <trkpt lat="43.49615" lon="5.44015">
        <ele>267.94924995074</ele>
        <time>2018-01-24T14:42:35Z</time>
      </trkpt>
      <trkpt lat="43.49623" lon="5.44021">
        <ele>267.86100810275</ele>
        <time>2018-01-24T14:42:40Z</time>
      </trkpt>
      <trkpt lat="43.4963" lon="5.44029">
        <ele>267.58584397559</ele>
        <time>2018-01-24T14:42:53Z</time>
      </trkpt>
      <trkpt lat="43.49637" lon="5.44036">
        <ele>267.34343315081</ele>
        <time>2018-01-24T14:43:04Z</time>
      </trkpt>
      <trkpt lat="43.49646" lon="5.4404">
        <ele>267.15202658384</ele>
        <time>2018-01-24T14:43:13Z</time>
      </trkpt>
      <trkpt lat="43.49652" lon="5.44048">
        <ele>266.95296462555</ele>
        <time>2018-01-24T14:43:22Z</time>
      </trkpt>
      <trkpt lat="43.49658" lon="5.44055">
        <ele>266.55431655565</ele>
        <time>2018-01-24T14:43:40Z</time>
      </trkpt>
      <trkpt lat="43.49666" lon="5.44056">
        <ele>266.33482457472</ele>
        <time>2018-01-24T14:43:48Z</time>
      </trkpt>
      <trkpt lat="43.49674" lon="5.4406">
        <ele>266.22076567682</ele>
        <time>2018-01-24T14:43:52Z</time>
      </trkpt>
      <trkpt lat="43.49683" lon="5.44062">
        <ele>265.92794224417</ele>
        <time>2018-01-24T14:44:03Z</time>
      </trkpt>
      <trkpt lat="43.49691" lon="5.44063">
        <ele>265.78593938895</ele>
        <time>2018-01-24T14:44:09Z</time>
      </trkpt>
      <trkpt lat="43.49698" lon="5.44062">
        <ele>265.70407226048</ele>
        <time>2018-01-24T14:44:13Z</time>
      </trkpt>
      <trkpt lat="43.49707" lon="5.44061">
        <ele>265.58452614564</ele>
        <time>2018-01-24T14:44:19Z</time>
      </trkpt>
      <trkpt lat="43.49717" lon="5.44059">
        <ele>265.50763139437</ele>
        <time>2018-01-24T14:44:23Z</time>
      </trkpt>
      <trkpt lat="43.49725" lon="5.44058">
        <ele>265.36078201277</ele>
        <time>2018-01-24T14:44:30Z</time>
      </trkpt>
      <trkpt lat="43.49733" lon="5.44061">
        <ele>265.12755259804</ele>
        <time>2018-01-24T14:44:41Z</time>
      </trkpt>
      <trkpt lat="43.49741" lon="5.44064">
        <ele>264.96629843653</ele>
        <time>2018-01-24T14:44:49Z</time>
      </trkpt>
      <trkpt lat="43.49749" lon="5.4407">
        <ele>264.73407975613</ele>
        <time>2018-01-24T14:45:12Z</time>
      </trkpt>
      <trkpt lat="43.49755" lon="5.44077">
        <ele>262.74071116777</ele>
        <time>2018-01-24T14:47:48Z</time>
      </trkpt>
      <trkpt lat="43.49761" lon="5.44085">
        <ele>262.13808723268</ele>
        <time>2018-01-24T14:48:00Z</time>
      </trkpt>
      <trkpt lat="43.49768" lon="5.44093">
        <ele>261.83740743245</ele>
        <time>2018-01-24T14:48:07Z</time>
      </trkpt>
      <trkpt lat="43.49775" lon="5.44097">
        <ele>261.52381045219</ele>
        <time>2018-01-24T14:48:15Z</time>
      </trkpt>
      <trkpt lat="43.49783" lon="5.44101">
        <ele>261.27299222641</ele>
        <time>2018-01-24T14:48:22Z</time>
      </trkpt>
      <trkpt lat="43.49791" lon="5.44106">
        <ele>261.04741101556</ele>
        <time>2018-01-24T14:48:29Z</time>
      </trkpt>
      <trkpt lat="43.49798" lon="5.4411">
        <ele>260.83919998864</ele>
        <time>2018-01-24T14:48:36Z</time>
      </trkpt>
      <trkpt lat="43.49805" lon="5.44117">
        <ele>260.57175677655</ele>
        <time>2018-01-24T14:48:45Z</time>
      </trkpt>
      <trkpt lat="43.49811" lon="5.44124">
        <ele>260.37628009039</ele>
        <time>2018-01-24T14:48:52Z</time>
      </trkpt>
      <trkpt lat="43.49817" lon="5.44132">
        <ele>260.17723515854</ele>
        <time>2018-01-24T14:49:00Z</time>
      </trkpt>
      <trkpt lat="43.49823" lon="5.44141">
        <ele>259.98718295883</ele>
        <time>2018-01-24T14:49:08Z</time>
      </trkpt>
      <trkpt lat="43.49828" lon="5.4415">
        <ele>259.85012170384</ele>
        <time>2018-01-24T14:49:14Z</time>
      </trkpt>
      <trkpt lat="43.49834" lon="5.44158">
        <ele>259.66406191237</ele>
        <time>2018-01-24T14:49:23Z</time>
      </trkpt>
      <trkpt lat="43.49838" lon="5.44168">
        <ele>259.51760697058</ele>
        <time>2018-01-24T14:49:30Z</time>
      </trkpt>
      <trkpt lat="43.49845" lon="5.44176">
        <ele>259.34725375438</ele>
        <time>2018-01-24T14:49:38Z</time>
      </trkpt>
      <trkpt lat="43.49851" lon="5.44183">
        <ele>259.22584078781</ele>
        <time>2018-01-24T14:49:44Z</time>
      </trkpt>
      <trkpt lat="43.49858" lon="5.4419">
        <ele>259.10466173196</ele>
        <time>2018-01-24T14:49:50Z</time>
      </trkpt>
      <trkpt lat="43.49865" lon="5.44197">
        <ele>258.91953460549</ele>
        <time>2018-01-24T14:49:59Z</time>
      </trkpt>
      <trkpt lat="43.4987" lon="5.44206">
        <ele>258.73634374438</ele>
        <time>2018-01-24T14:50:07Z</time>
      </trkpt>
      <trkpt lat="43.49875" lon="5.44215">
        <ele>258.5621626912</ele>
        <time>2018-01-24T14:50:14Z</time>
      </trkpt>
      <trkpt lat="43.4988" lon="5.44222">
        <ele>258.38512608836</ele>
        <time>2018-01-24T14:50:21Z</time>
      </trkpt>
      <trkpt lat="43.49885" lon="5.44231">
        <ele>258.23133111946</ele>
        <time>2018-01-24T14:50:27Z</time>
      </trkpt>
      <trkpt lat="43.49889" lon="5.44241">
        <ele>258.04885236716</ele>
        <time>2018-01-24T14:50:34Z</time>
      </trkpt>
      <trkpt lat="43.49895" lon="5.4425">
        <ele>257.86987260382</ele>
        <time>2018-01-24T14:50:41Z</time>
      </trkpt>
      <trkpt lat="43.499" lon="5.4426">
        <ele>257.63129748526</ele>
        <time>2018-01-24T14:50:50Z</time>
      </trkpt>
      <trkpt lat="43.49905" lon="5.44269">
        <ele>257.44879430107</ele>
        <time>2018-01-24T14:50:57Z</time>
      </trkpt>
      <trkpt lat="43.49909" lon="5.44279">
        <ele>257.27318298899</ele>
        <time>2018-01-24T14:51:03Z</time>
      </trkpt>
      <trkpt lat="43.49914" lon="5.44289">
        <ele>256.97510742783</ele>
        <time>2018-01-24T14:51:16Z</time>
      </trkpt>
      <trkpt lat="43.4992" lon="5.44296">
        <ele>256.79951606544</ele>
        <time>2018-01-24T14:51:24Z</time>
      </trkpt>
      <trkpt lat="43.49927" lon="5.44301">
        <ele>256.52596607181</ele>
        <time>2018-01-24T14:51:36Z</time>
      </trkpt>
      <trkpt lat="43.49935" lon="5.44305">
        <ele>256.35281740531</ele>
        <time>2018-01-24T14:51:44Z</time>
      </trkpt>
      <trkpt lat="43.49943" lon="5.44307">
        <ele>256.19396272672</ele>
        <time>2018-01-24T14:51:52Z</time>
      </trkpt>
      <trkpt lat="43.49952" lon="5.44309">
        <ele>255.99838470433</ele>
        <time>2018-01-24T14:52:02Z</time>
      </trkpt>
      <trkpt lat="43.4996" lon="5.44311">
        <ele>255.79062398444</ele>
        <time>2018-01-24T14:52:13Z</time>
      </trkpt>
      <trkpt lat="43.49968" lon="5.44313">
        <ele>255.58811293359</ele>
        <time>2018-01-24T14:52:24Z</time>
      </trkpt>
      <trkpt lat="43.49977" lon="5.44316">
        <ele>255.40019570442</ele>
        <time>2018-01-24T14:52:34Z</time>
      </trkpt>
      <trkpt lat="43.49985" lon="5.44314">
        <ele>255.22718297711</ele>
        <time>2018-01-24T14:52:42Z</time>
      </trkpt>
      <trkpt lat="43.49993" lon="5.44317">
        <ele>255.00938594804</ele>
        <time>2018-01-24T14:52:51Z</time>
      </trkpt>
      <trkpt lat="43.50002" lon="5.4432">
        <ele>254.68382096389</ele>
        <time>2018-01-24T14:53:03Z</time>
      </trkpt>
      <trkpt lat="43.5001" lon="5.44324">
        <ele>254.18004664127</ele>
        <time>2018-01-24T14:53:20Z</time>
      </trkpt>
      <trkpt lat="43.50018" lon="5.4432">
        <ele>253.84172888392</ele>
        <time>2018-01-24T14:53:31Z</time>
      </trkpt>
      <trkpt lat="43.50019" lon="5.44332">
        <ele>253.11414680329</ele>
        <time>2018-01-24T14:54:04Z</time>
      </trkpt>
      <trkpt lat="43.5002" lon="5.44326">
        <ele>250.25270871134</ele>
        <time>2018-01-24T14:58:39Z</time>
      </trkpt>
      <trkpt lat="43.5002" lon="5.44326">
        <ele>250.25270871134</ele>
        <time>2018-01-24T14:58:40Z</time>
      </trkpt>
    </trkseg>
  </trk>
</gpx>